<?xml version="1.0" encoding="UTF-8" standalone="no" ?>
<gpx xmlns="http://www.topografix.com/GPX/1/1" xmlns:xsi="http://www.w3.org/2001/XMLSchema-instance" xsi:schemaLocation="http://www.topografix.com/GPX/1/1 http://www.topografix.com/GPX/1/1/gpx.xsd" version="1.1" creator="VisuGPX - https://www.visugpx.com">
  <metadata>
    <name>Vol au dessus d'un lit de lapiaz</name>
    <desc><![CDATA[Belle ballade en huit dans le Vercors central au départ de St Martin en Vercors. On gare la voiture après le village près des containers du tri sélectif et on rejoint la fin de la descente d'Herbouilly par la route mêlée d'un peu de piste. Une fois revenu à St Martin on repart en face direction le pas de l'allier. Un passage engagé bien raide et un peu expo dans la première descente (pas très long) et les lapiaz du pas de l'allier peuvent être exigeants car parfois pentus mais c'est que du bonheur ! Un tout-suspendu est préférable car ça secoue pas mal mais les anciens passaient ça en tout-rigide, alors... A faire impérativement par temps bien sec !

PS : La trace n'a pas été retouchée, ne pas tenir compte des petits aller-retour pipi/photos/etc..., notamment au pas de l'allier, on repart en continuant le sentier par lequel on arrive mais on ne passe pas côté ouest du Pas ;).]]></desc>
  </metadata>
  <trk>
    <name><![CDATA[Pas de l'allier]]></name>
    <desc><![CDATA[3 août 2012  9:31 am]]></desc>
    <trkseg>
      <trkpt lat="45.00332" lon="5.44103">
        <ele>690.001</ele>
        <time>2012-08-03T07:32:42.834Z</time>
      </trkpt>
      <trkpt lat="45.00332" lon="5.44103">
        <ele>701.201</ele>
        <time>2012-08-03T07:32:47.826Z</time>
      </trkpt>
      <trkpt lat="45.00332" lon="5.44103">
        <ele>712.905</ele>
        <time>2012-08-03T07:33:41.805Z</time>
      </trkpt>
      <trkpt lat="45.0032" lon="5.44081">
        <ele>718.515</ele>
        <time>2012-08-03T07:34:24.895Z</time>
      </trkpt>
      <trkpt lat="45.0032" lon="5.44081">
        <ele>719.399</ele>
        <time>2012-08-03T07:34:35.838Z</time>
      </trkpt>
      <trkpt lat="45.0032" lon="5.44081">
        <ele>718.465</ele>
        <time>2012-08-03T07:34:38.747Z</time>
      </trkpt>
      <trkpt lat="45.00339" lon="5.4407">
        <ele>715.438</ele>
        <time>2012-08-03T07:34:59.879Z</time>
      </trkpt>
      <trkpt lat="45.00339" lon="5.4407">
        <ele>709.588</ele>
        <time>2012-08-03T07:35:08.845Z</time>
      </trkpt>
      <trkpt lat="45.00339" lon="5.4407">
        <ele>704.89</ele>
        <time>2012-08-03T07:36:22.052Z</time>
      </trkpt>
      <trkpt lat="45.00331" lon="5.44088">
        <ele>704.709</ele>
        <time>2012-08-03T07:38:27.854Z</time>
      </trkpt>
      <trkpt lat="45.00331" lon="5.44088">
        <ele>706.823</ele>
        <time>2012-08-03T07:38:30.916Z</time>
      </trkpt>
      <trkpt lat="45.00331" lon="5.44088">
        <ele>708.082</ele>
        <time>2012-08-03T07:39:06.234Z</time>
      </trkpt>
      <trkpt lat="45.00336" lon="5.44062">
        <ele>707.426</ele>
        <time>2012-08-03T07:39:39.914Z</time>
      </trkpt>
      <trkpt lat="45.00336" lon="5.44062">
        <ele>705.944</ele>
        <time>2012-08-03T07:39:48.845Z</time>
      </trkpt>
      <trkpt lat="45.00336" lon="5.44062">
        <ele>705.143</ele>
        <time>2012-08-03T07:46:53.501Z</time>
      </trkpt>
      <trkpt lat="45.00341" lon="5.44093">
        <ele>704.86</ele>
        <time>2012-08-03T07:47:11.773Z</time>
      </trkpt>
      <trkpt lat="45.00348" lon="5.44103">
        <ele>704.437</ele>
        <time>2012-08-03T07:47:15.699Z</time>
      </trkpt>
      <trkpt lat="45.00354" lon="5.44114">
        <ele>702.688</ele>
        <time>2012-08-03T07:47:19.256Z</time>
      </trkpt>
      <trkpt lat="45.0036" lon="5.44127">
        <ele>699.008</ele>
        <time>2012-08-03T07:47:23.262Z</time>
      </trkpt>
      <trkpt lat="45.00367" lon="5.44136">
        <ele>695.259</ele>
        <time>2012-08-03T07:47:27.101Z</time>
      </trkpt>
      <trkpt lat="45.00376" lon="5.44146">
        <ele>693.232</ele>
        <time>2012-08-03T07:47:31.823Z</time>
      </trkpt>
      <trkpt lat="45.00375" lon="5.44161">
        <ele>692.5</ele>
        <time>2012-08-03T07:47:36.338Z</time>
      </trkpt>
      <trkpt lat="45.00369" lon="5.4417">
        <ele>692.271</ele>
        <time>2012-08-03T07:47:39.602Z</time>
      </trkpt>
      <trkpt lat="45.00365" lon="5.44184">
        <ele>692.169</ele>
        <time>2012-08-03T07:47:43.315Z</time>
      </trkpt>
      <trkpt lat="45.00362" lon="5.442">
        <ele>692.158</ele>
        <time>2012-08-03T07:47:47.197Z</time>
      </trkpt>
      <trkpt lat="45.00358" lon="5.44216">
        <ele>692.179</ele>
        <time>2012-08-03T07:47:51.290Z</time>
      </trkpt>
      <trkpt lat="45.00353" lon="5.4423">
        <ele>692.197</ele>
        <time>2012-08-03T07:47:55.447Z</time>
      </trkpt>
      <trkpt lat="45.00349" lon="5.44244">
        <ele>692.205</ele>
        <time>2012-08-03T07:47:59.134Z</time>
      </trkpt>
      <trkpt lat="45.00347" lon="5.44258">
        <ele>692.206</ele>
        <time>2012-08-03T07:48:02.665Z</time>
      </trkpt>
      <trkpt lat="45.00343" lon="5.44274">
        <ele>692.205</ele>
        <time>2012-08-03T07:48:07.091Z</time>
      </trkpt>
      <trkpt lat="45.00343" lon="5.44288">
        <ele>692.203</ele>
        <time>2012-08-03T07:48:10.796Z</time>
      </trkpt>
      <trkpt lat="45.00346" lon="5.443">
        <ele>692.202</ele>
        <time>2012-08-03T07:48:14.333Z</time>
      </trkpt>
      <trkpt lat="45.00345" lon="5.44315">
        <ele>692.34</ele>
        <time>2012-08-03T07:48:18.192Z</time>
      </trkpt>
      <trkpt lat="45.00342" lon="5.44329">
        <ele>693.115</ele>
        <time>2012-08-03T07:48:22.259Z</time>
      </trkpt>
      <trkpt lat="45.00342" lon="5.44343">
        <ele>694.564</ele>
        <time>2012-08-03T07:48:26.027Z</time>
      </trkpt>
      <trkpt lat="45.00342" lon="5.44357">
        <ele>695.986</ele>
        <time>2012-08-03T07:48:29.777Z</time>
      </trkpt>
      <trkpt lat="45.00342" lon="5.4437">
        <ele>696.898</ele>
        <time>2012-08-03T07:48:33.344Z</time>
      </trkpt>
      <trkpt lat="45.00342" lon="5.44385">
        <ele>697.317</ele>
        <time>2012-08-03T07:48:37.296Z</time>
      </trkpt>
      <trkpt lat="45.00343" lon="5.44398">
        <ele>697.234</ele>
        <time>2012-08-03T07:48:40.977Z</time>
      </trkpt>
      <trkpt lat="45.00345" lon="5.44411">
        <ele>696.797</ele>
        <time>2012-08-03T07:48:44.759Z</time>
      </trkpt>
      <trkpt lat="45.00347" lon="5.44424">
        <ele>696.353</ele>
        <time>2012-08-03T07:48:48.488Z</time>
      </trkpt>
      <trkpt lat="45.00348" lon="5.44437">
        <ele>696.282</ele>
        <time>2012-08-03T07:48:52.507Z</time>
      </trkpt>
      <trkpt lat="45.00349" lon="5.44452">
        <ele>696.611</ele>
        <time>2012-08-03T07:48:57.226Z</time>
      </trkpt>
      <trkpt lat="45.0035" lon="5.44467">
        <ele>697.017</ele>
        <time>2012-08-03T07:49:01.802Z</time>
      </trkpt>
      <trkpt lat="45.00349" lon="5.44481">
        <ele>697.367</ele>
        <time>2012-08-03T07:49:06.421Z</time>
      </trkpt>
      <trkpt lat="45.00346" lon="5.44495">
        <ele>697.908</ele>
        <time>2012-08-03T07:49:11.191Z</time>
      </trkpt>
      <trkpt lat="45.00343" lon="5.44509">
        <ele>698.748</ele>
        <time>2012-08-03T07:49:15.985Z</time>
      </trkpt>
      <trkpt lat="45.00341" lon="5.44521">
        <ele>699.758</ele>
        <time>2012-08-03T07:49:20.085Z</time>
      </trkpt>
      <trkpt lat="45.0034" lon="5.44535">
        <ele>700.672</ele>
        <time>2012-08-03T07:49:24.178Z</time>
      </trkpt>
      <trkpt lat="45.00342" lon="5.44548">
        <ele>701.21</ele>
        <time>2012-08-03T07:49:28.080Z</time>
      </trkpt>
      <trkpt lat="45.00345" lon="5.4456">
        <ele>701.354</ele>
        <time>2012-08-03T07:49:32.044Z</time>
      </trkpt>
      <trkpt lat="45.00349" lon="5.44575">
        <ele>701.309</ele>
        <time>2012-08-03T07:49:36.715Z</time>
      </trkpt>
      <trkpt lat="45.00354" lon="5.44588">
        <ele>701.372</ele>
        <time>2012-08-03T07:49:41.379Z</time>
      </trkpt>
      <trkpt lat="45.00358" lon="5.44602">
        <ele>701.827</ele>
        <time>2012-08-03T07:49:45.710Z</time>
      </trkpt>
      <trkpt lat="45.00361" lon="5.44614">
        <ele>702.821</ele>
        <time>2012-08-03T07:49:49.648Z</time>
      </trkpt>
      <trkpt lat="45.00366" lon="5.44629">
        <ele>704.227</ele>
        <time>2012-08-03T07:49:54.325Z</time>
      </trkpt>
      <trkpt lat="45.00369" lon="5.44641">
        <ele>705.672</ele>
        <time>2012-08-03T07:49:58.268Z</time>
      </trkpt>
      <trkpt lat="45.00373" lon="5.44655">
        <ele>706.89</ele>
        <time>2012-08-03T07:50:03.018Z</time>
      </trkpt>
      <trkpt lat="45.00377" lon="5.44667">
        <ele>707.789</ele>
        <time>2012-08-03T07:50:07.021Z</time>
      </trkpt>
      <trkpt lat="45.0038" lon="5.44682">
        <ele>708.394</ele>
        <time>2012-08-03T07:50:11.956Z</time>
      </trkpt>
      <trkpt lat="45.00383" lon="5.44694">
        <ele>708.987</ele>
        <time>2012-08-03T07:50:15.928Z</time>
      </trkpt>
      <trkpt lat="45.00388" lon="5.44707">
        <ele>709.931</ele>
        <time>2012-08-03T07:50:20.540Z</time>
      </trkpt>
      <trkpt lat="45.00387" lon="5.4472">
        <ele>711.122</ele>
        <time>2012-08-03T07:50:25.031Z</time>
      </trkpt>
      <trkpt lat="45.00389" lon="5.44733">
        <ele>712.025</ele>
        <time>2012-08-03T07:50:30.883Z</time>
      </trkpt>
      <trkpt lat="45.00395" lon="5.44745">
        <ele>712.365</ele>
        <time>2012-08-03T07:50:36.860Z</time>
      </trkpt>
      <trkpt lat="45.00402" lon="5.44753">
        <ele>712.363</ele>
        <time>2012-08-03T07:50:42.025Z</time>
      </trkpt>
      <trkpt lat="45.0041" lon="5.44763">
        <ele>712.265</ele>
        <time>2012-08-03T07:50:47.379Z</time>
      </trkpt>
      <trkpt lat="45.00414" lon="5.44775">
        <ele>712.191</ele>
        <time>2012-08-03T07:50:51.417Z</time>
      </trkpt>
      <trkpt lat="45.00422" lon="5.44789">
        <ele>712.164</ele>
        <time>2012-08-03T07:50:56.096Z</time>
      </trkpt>
      <trkpt lat="45.0043" lon="5.44799">
        <ele>712.165</ele>
        <time>2012-08-03T07:50:59.613Z</time>
      </trkpt>
      <trkpt lat="45.00435" lon="5.44809">
        <ele>712.173</ele>
        <time>2012-08-03T07:51:02.396Z</time>
      </trkpt>
      <trkpt lat="45.00439" lon="5.44824">
        <ele>712.179</ele>
        <time>2012-08-03T07:51:05.735Z</time>
      </trkpt>
      <trkpt lat="45.00442" lon="5.44838">
        <ele>712.181</ele>
        <time>2012-08-03T07:51:08.717Z</time>
      </trkpt>
      <trkpt lat="45.00446" lon="5.44854">
        <ele>712.043</ele>
        <time>2012-08-03T07:51:11.903Z</time>
      </trkpt>
      <trkpt lat="45.00449" lon="5.44868">
        <ele>711.406</ele>
        <time>2012-08-03T07:51:14.977Z</time>
      </trkpt>
      <trkpt lat="45.00452" lon="5.44882">
        <ele>710.04</ele>
        <time>2012-08-03T07:51:17.869Z</time>
      </trkpt>
      <trkpt lat="45.00454" lon="5.44895">
        <ele>708.406</ele>
        <time>2012-08-03T07:51:20.526Z</time>
      </trkpt>
      <trkpt lat="45.00457" lon="5.44908">
        <ele>707.151</ele>
        <time>2012-08-03T07:51:23.312Z</time>
      </trkpt>
      <trkpt lat="45.00461" lon="5.4492">
        <ele>706.418</ele>
        <time>2012-08-03T07:51:26.104Z</time>
      </trkpt>
      <trkpt lat="45.00465" lon="5.44933">
        <ele>705.947</ele>
        <time>2012-08-03T07:51:28.982Z</time>
      </trkpt>
      <trkpt lat="45.00471" lon="5.44948">
        <ele>705.547</ele>
        <time>2012-08-03T07:51:32.673Z</time>
      </trkpt>
      <trkpt lat="45.00475" lon="5.44959">
        <ele>705.241</ele>
        <time>2012-08-03T07:51:35.477Z</time>
      </trkpt>
      <trkpt lat="45.00477" lon="5.44974">
        <ele>705.126</ele>
        <time>2012-08-03T07:51:38.884Z</time>
      </trkpt>
      <trkpt lat="45.00477" lon="5.44991">
        <ele>705.264</ele>
        <time>2012-08-03T07:51:42.751Z</time>
      </trkpt>
      <trkpt lat="45.00478" lon="5.45007">
        <ele>705.795</ele>
        <time>2012-08-03T07:51:46.721Z</time>
      </trkpt>
      <trkpt lat="45.00481" lon="5.45021">
        <ele>706.687</ele>
        <time>2012-08-03T07:51:50.515Z</time>
      </trkpt>
      <trkpt lat="45.00489" lon="5.45033">
        <ele>707.739</ele>
        <time>2012-08-03T07:51:54.574Z</time>
      </trkpt>
      <trkpt lat="45.00489" lon="5.45049">
        <ele>708.809</ele>
        <time>2012-08-03T07:51:58.726Z</time>
      </trkpt>
      <trkpt lat="45.00491" lon="5.45066">
        <ele>709.845</ele>
        <time>2012-08-03T07:52:02.309Z</time>
      </trkpt>
      <trkpt lat="45.00496" lon="5.45082">
        <ele>710.714</ele>
        <time>2012-08-03T07:52:05.953Z</time>
      </trkpt>
      <trkpt lat="45.00501" lon="5.45094">
        <ele>711.901</ele>
        <time>2012-08-03T07:52:08.870Z</time>
      </trkpt>
      <trkpt lat="45.00502" lon="5.45108">
        <ele>713.826</ele>
        <time>2012-08-03T07:52:12.312Z</time>
      </trkpt>
      <trkpt lat="45.00497" lon="5.45119">
        <ele>715.627</ele>
        <time>2012-08-03T07:52:15.930Z</time>
      </trkpt>
      <trkpt lat="45.00492" lon="5.45132">
        <ele>716.432</ele>
        <time>2012-08-03T07:52:20.504Z</time>
      </trkpt>
      <trkpt lat="45.00495" lon="5.45145">
        <ele>716.524</ele>
        <time>2012-08-03T07:52:25.293Z</time>
      </trkpt>
      <trkpt lat="45.00499" lon="5.45156">
        <ele>716.365</ele>
        <time>2012-08-03T07:52:31.488Z</time>
      </trkpt>
      <trkpt lat="45.00507" lon="5.45167">
        <ele>716.08</ele>
        <time>2012-08-03T07:52:40.012Z</time>
      </trkpt>
      <trkpt lat="45.00507" lon="5.45181">
        <ele>715.655</ele>
        <time>2012-08-03T07:52:46.419Z</time>
      </trkpt>
      <trkpt lat="45.00503" lon="5.45194">
        <ele>715.279</ele>
        <time>2012-08-03T07:52:51.891Z</time>
      </trkpt>
      <trkpt lat="45.00498" lon="5.45206">
        <ele>715.117</ele>
        <time>2012-08-03T07:52:57.155Z</time>
      </trkpt>
      <trkpt lat="45.00493" lon="5.45219">
        <ele>715.102</ele>
        <time>2012-08-03T07:53:02.342Z</time>
      </trkpt>
      <trkpt lat="45.00488" lon="5.45231">
        <ele>715.138</ele>
        <time>2012-08-03T07:53:07.354Z</time>
      </trkpt>
      <trkpt lat="45.00483" lon="5.45243">
        <ele>715.168</ele>
        <time>2012-08-03T07:53:12.461Z</time>
      </trkpt>
      <trkpt lat="45.00478" lon="5.45255">
        <ele>715.181</ele>
        <time>2012-08-03T07:53:17.184Z</time>
      </trkpt>
      <trkpt lat="45.00475" lon="5.45267">
        <ele>715.32</ele>
        <time>2012-08-03T07:53:22.244Z</time>
      </trkpt>
      <trkpt lat="45.0047" lon="5.4528">
        <ele>715.954</ele>
        <time>2012-08-03T07:53:27.874Z</time>
      </trkpt>
      <trkpt lat="45.00466" lon="5.45293">
        <ele>717.179</ele>
        <time>2012-08-03T07:53:33.822Z</time>
      </trkpt>
      <trkpt lat="45.00456" lon="5.45292">
        <ele>718.866</ele>
        <time>2012-08-03T07:53:40.181Z</time>
      </trkpt>
      <trkpt lat="45.00447" lon="5.45285">
        <ele>720.969</ele>
        <time>2012-08-03T07:53:46.792Z</time>
      </trkpt>
      <trkpt lat="45.00439" lon="5.45279">
        <ele>722.995</ele>
        <time>2012-08-03T07:53:52.465Z</time>
      </trkpt>
      <trkpt lat="45.00432" lon="5.45268">
        <ele>724.749</ele>
        <time>2012-08-03T07:53:59.170Z</time>
      </trkpt>
      <trkpt lat="45.00426" lon="5.45257">
        <ele>726.515</ele>
        <time>2012-08-03T07:54:05.547Z</time>
      </trkpt>
      <trkpt lat="45.00424" lon="5.45245">
        <ele>728.033</ele>
        <time>2012-08-03T07:54:11.641Z</time>
      </trkpt>
      <trkpt lat="45.00419" lon="5.45232">
        <ele>728.928</ele>
        <time>2012-08-03T07:54:18.175Z</time>
      </trkpt>
      <trkpt lat="45.00413" lon="5.4522">
        <ele>729.445</ele>
        <time>2012-08-03T07:54:24.392Z</time>
      </trkpt>
      <trkpt lat="45.00405" lon="5.45209">
        <ele>730.111</ele>
        <time>2012-08-03T07:54:30.550Z</time>
      </trkpt>
      <trkpt lat="45.00398" lon="5.45198">
        <ele>731.253</ele>
        <time>2012-08-03T07:54:36.377Z</time>
      </trkpt>
      <trkpt lat="45.00392" lon="5.45188">
        <ele>732.592</ele>
        <time>2012-08-03T07:54:41.490Z</time>
      </trkpt>
      <trkpt lat="45.00384" lon="5.45179">
        <ele>733.806</ele>
        <time>2012-08-03T07:54:47.080Z</time>
      </trkpt>
      <trkpt lat="45.00384" lon="5.45179">
        <ele>734.732</ele>
        <time>2012-08-03T07:55:09.082Z</time>
      </trkpt>
      <trkpt lat="45.00384" lon="5.45179">
        <ele>735.22</ele>
        <time>2012-08-03T07:56:04.313Z</time>
      </trkpt>
      <trkpt lat="45.00364" lon="5.45157">
        <ele>735.462</ele>
        <time>2012-08-03T07:56:26.382Z</time>
      </trkpt>
      <trkpt lat="45.00357" lon="5.45148">
        <ele>735.898</ele>
        <time>2012-08-03T07:56:30.172Z</time>
      </trkpt>
      <trkpt lat="45.00349" lon="5.45139">
        <ele>736.552</ele>
        <time>2012-08-03T07:56:34.502Z</time>
      </trkpt>
      <trkpt lat="45.00341" lon="5.45131">
        <ele>737.196</ele>
        <time>2012-08-03T07:56:38.650Z</time>
      </trkpt>
      <trkpt lat="45.00334" lon="5.45121">
        <ele>737.887</ele>
        <time>2012-08-03T07:56:43.101Z</time>
      </trkpt>
      <trkpt lat="45.00326" lon="5.45112">
        <ele>738.895</ele>
        <time>2012-08-03T07:56:48.236Z</time>
      </trkpt>
      <trkpt lat="45.00316" lon="5.45115">
        <ele>740.105</ele>
        <time>2012-08-03T07:56:53.689Z</time>
      </trkpt>
      <trkpt lat="45.00318" lon="5.45127">
        <ele>741.005</ele>
        <time>2012-08-03T07:56:58.180Z</time>
      </trkpt>
      <trkpt lat="45.00324" lon="5.45139">
        <ele>741.337</ele>
        <time>2012-08-03T07:57:02.780Z</time>
      </trkpt>
      <trkpt lat="45.00329" lon="5.4515">
        <ele>741.33</ele>
        <time>2012-08-03T07:57:06.971Z</time>
      </trkpt>
      <trkpt lat="45.00333" lon="5.45164">
        <ele>741.23</ele>
        <time>2012-08-03T07:57:11.685Z</time>
      </trkpt>
      <trkpt lat="45.00337" lon="5.45176">
        <ele>741.157</ele>
        <time>2012-08-03T07:57:16.408Z</time>
      </trkpt>
      <trkpt lat="45.0034" lon="5.45189">
        <ele>741.13</ele>
        <time>2012-08-03T07:57:21.024Z</time>
      </trkpt>
      <trkpt lat="45.00339" lon="5.45204">
        <ele>741.131</ele>
        <time>2012-08-03T07:57:26.662Z</time>
      </trkpt>
      <trkpt lat="45.00337" lon="5.45217">
        <ele>741.554</ele>
        <time>2012-08-03T07:57:31.811Z</time>
      </trkpt>
      <trkpt lat="45.00334" lon="5.45232">
        <ele>742.778</ele>
        <time>2012-08-03T07:57:37.604Z</time>
      </trkpt>
      <trkpt lat="45.00332" lon="5.45246">
        <ele>744.663</ele>
        <time>2012-08-03T07:57:43.043Z</time>
      </trkpt>
      <trkpt lat="45.00328" lon="5.45257">
        <ele>746.637</ele>
        <time>2012-08-03T07:57:48.200Z</time>
      </trkpt>
      <trkpt lat="45.00325" lon="5.45271">
        <ele>748.138</ele>
        <time>2012-08-03T07:57:53.844Z</time>
      </trkpt>
      <trkpt lat="45.00323" lon="5.45285">
        <ele>748.96</ele>
        <time>2012-08-03T07:57:59.650Z</time>
      </trkpt>
      <trkpt lat="45.00321" lon="5.45298">
        <ele>749.427</ele>
        <time>2012-08-03T07:58:05.312Z</time>
      </trkpt>
      <trkpt lat="45.00321" lon="5.45311">
        <ele>750.076</ele>
        <time>2012-08-03T07:58:11.013Z</time>
      </trkpt>
      <trkpt lat="45.00319" lon="5.45324">
        <ele>751.496</ele>
        <time>2012-08-03T07:58:16.925Z</time>
      </trkpt>
      <trkpt lat="45.00317" lon="5.45338">
        <ele>753.561</ele>
        <time>2012-08-03T07:58:23.752Z</time>
      </trkpt>
      <trkpt lat="45.00315" lon="5.45351">
        <ele>755.656</ele>
        <time>2012-08-03T07:58:29.929Z</time>
      </trkpt>
      <trkpt lat="45.00311" lon="5.45363">
        <ele>757.432</ele>
        <time>2012-08-03T07:58:36.108Z</time>
      </trkpt>
      <trkpt lat="45.00308" lon="5.45377">
        <ele>758.702</ele>
        <time>2012-08-03T07:58:42.642Z</time>
      </trkpt>
      <trkpt lat="45.00306" lon="5.4539">
        <ele>759.29</ele>
        <time>2012-08-03T07:58:48.726Z</time>
      </trkpt>
      <trkpt lat="45.00305" lon="5.45404">
        <ele>759.508</ele>
        <time>2012-08-03T07:58:55.080Z</time>
      </trkpt>
      <trkpt lat="45.00304" lon="5.45418">
        <ele>759.899</ele>
        <time>2012-08-03T07:59:01.483Z</time>
      </trkpt>
      <trkpt lat="45.00301" lon="5.45432">
        <ele>760.801</ele>
        <time>2012-08-03T07:59:08.248Z</time>
      </trkpt>
      <trkpt lat="45.00297" lon="5.45443">
        <ele>762.018</ele>
        <time>2012-08-03T07:59:13.945Z</time>
      </trkpt>
      <trkpt lat="45.00292" lon="5.45456">
        <ele>763.505</ele>
        <time>2012-08-03T07:59:20.403Z</time>
      </trkpt>
      <trkpt lat="45.00292" lon="5.45469">
        <ele>765.301</ele>
        <time>2012-08-03T07:59:26.274Z</time>
      </trkpt>
      <trkpt lat="45.00289" lon="5.45482">
        <ele>767.056</ele>
        <time>2012-08-03T07:59:32.421Z</time>
      </trkpt>
      <trkpt lat="45.00283" lon="5.45493">
        <ele>768.377</ele>
        <time>2012-08-03T07:59:39.462Z</time>
      </trkpt>
      <trkpt lat="45.00275" lon="5.455">
        <ele>769.146</ele>
        <time>2012-08-03T07:59:45.932Z</time>
      </trkpt>
      <trkpt lat="45.00273" lon="5.45513">
        <ele>769.901</ele>
        <time>2012-08-03T07:59:52.913Z</time>
      </trkpt>
      <trkpt lat="45.00272" lon="5.45526">
        <ele>771.688</ele>
        <time>2012-08-03T07:59:59.119Z</time>
      </trkpt>
      <trkpt lat="45.00269" lon="5.45541">
        <ele>774.275</ele>
        <time>2012-08-03T08:00:06.147Z</time>
      </trkpt>
      <trkpt lat="45.00266" lon="5.45555">
        <ele>776.382</ele>
        <time>2012-08-03T08:00:13.148Z</time>
      </trkpt>
      <trkpt lat="45.00263" lon="5.45566">
        <ele>777.368</ele>
        <time>2012-08-03T08:00:19.592Z</time>
      </trkpt>
      <trkpt lat="45.00256" lon="5.45576">
        <ele>777.647</ele>
        <time>2012-08-03T08:00:25.882Z</time>
      </trkpt>
      <trkpt lat="45.0025" lon="5.45588">
        <ele>777.97</ele>
        <time>2012-08-03T08:00:32.943Z</time>
      </trkpt>
      <trkpt lat="45.00244" lon="5.45599">
        <ele>778.665</ele>
        <time>2012-08-03T08:00:39.538Z</time>
      </trkpt>
      <trkpt lat="45.00238" lon="5.45608">
        <ele>779.491</ele>
        <time>2012-08-03T08:00:45.933Z</time>
      </trkpt>
      <trkpt lat="45.00232" lon="5.45618">
        <ele>780.051</ele>
        <time>2012-08-03T08:00:52.316Z</time>
      </trkpt>
      <trkpt lat="45.00225" lon="5.45626">
        <ele>780.238</ele>
        <time>2012-08-03T08:00:58.720Z</time>
      </trkpt>
      <trkpt lat="45.00218" lon="5.45635">
        <ele>779.942</ele>
        <time>2012-08-03T08:01:05.235Z</time>
      </trkpt>
      <trkpt lat="45.00211" lon="5.45642">
        <ele>778.601</ele>
        <time>2012-08-03T08:01:11.959Z</time>
      </trkpt>
      <trkpt lat="45.00204" lon="5.45651">
        <ele>776.378</ele>
        <time>2012-08-03T08:01:18.723Z</time>
      </trkpt>
      <trkpt lat="45.00196" lon="5.4566">
        <ele>774.535</ele>
        <time>2012-08-03T08:01:25.746Z</time>
      </trkpt>
      <trkpt lat="45.00189" lon="5.45669">
        <ele>773.782</ele>
        <time>2012-08-03T08:01:32.232Z</time>
      </trkpt>
      <trkpt lat="45.00182" lon="5.45677">
        <ele>773.742</ele>
        <time>2012-08-03T08:01:38.439Z</time>
      </trkpt>
      <trkpt lat="45.00173" lon="5.45683">
        <ele>773.925</ele>
        <time>2012-08-03T08:01:44.903Z</time>
      </trkpt>
      <trkpt lat="45.00165" lon="5.4569">
        <ele>774.628</ele>
        <time>2012-08-03T08:01:51.385Z</time>
      </trkpt>
      <trkpt lat="45.00157" lon="5.45699">
        <ele>776.128</ele>
        <time>2012-08-03T08:01:58.041Z</time>
      </trkpt>
      <trkpt lat="45.00149" lon="5.45707">
        <ele>777.885</ele>
        <time>2012-08-03T08:02:04.245Z</time>
      </trkpt>
      <trkpt lat="45.00142" lon="5.45715">
        <ele>779.29</ele>
        <time>2012-08-03T08:02:10.302Z</time>
      </trkpt>
      <trkpt lat="45.00135" lon="5.45723">
        <ele>780.399</ele>
        <time>2012-08-03T08:02:16.642Z</time>
      </trkpt>
      <trkpt lat="45.00128" lon="5.45733">
        <ele>781.483</ele>
        <time>2012-08-03T08:02:23.150Z</time>
      </trkpt>
      <trkpt lat="45.00129" lon="5.45748">
        <ele>782.929</ele>
        <time>2012-08-03T08:02:30.463Z</time>
      </trkpt>
      <trkpt lat="45.0013" lon="5.45764">
        <ele>784.752</ele>
        <time>2012-08-03T08:02:37.448Z</time>
      </trkpt>
      <trkpt lat="45.00129" lon="5.45778">
        <ele>786.519</ele>
        <time>2012-08-03T08:02:44.079Z</time>
      </trkpt>
      <trkpt lat="45.00132" lon="5.4579">
        <ele>788.137</ele>
        <time>2012-08-03T08:02:50.221Z</time>
      </trkpt>
      <trkpt lat="45.00135" lon="5.45803">
        <ele>789.895</ele>
        <time>2012-08-03T08:02:56.625Z</time>
      </trkpt>
      <trkpt lat="45.00132" lon="5.45817">
        <ele>791.564</ele>
        <time>2012-08-03T08:03:04.043Z</time>
      </trkpt>
      <trkpt lat="45.00132" lon="5.45829">
        <ele>792.851</ele>
        <time>2012-08-03T08:03:12.335Z</time>
      </trkpt>
      <trkpt lat="45.00127" lon="5.45841">
        <ele>794.428</ele>
        <time>2012-08-03T08:03:21.130Z</time>
      </trkpt>
      <trkpt lat="45.00127" lon="5.45841">
        <ele>796.666</ele>
        <time>2012-08-03T08:03:32.936Z</time>
      </trkpt>
      <trkpt lat="45.00127" lon="5.45841">
        <ele>798.59</ele>
        <time>2012-08-03T08:04:12.156Z</time>
      </trkpt>
      <trkpt lat="45.00123" lon="5.45873">
        <ele>799.537</ele>
        <time>2012-08-03T08:04:43.977Z</time>
      </trkpt>
      <trkpt lat="45.00128" lon="5.45885">
        <ele>799.957</ele>
        <time>2012-08-03T08:04:51.653Z</time>
      </trkpt>
      <trkpt lat="45.00132" lon="5.45897">
        <ele>800.832</ele>
        <time>2012-08-03T08:04:58.645Z</time>
      </trkpt>
      <trkpt lat="45.00134" lon="5.45911">
        <ele>803.203</ele>
        <time>2012-08-03T08:05:06.933Z</time>
      </trkpt>
      <trkpt lat="45.00135" lon="5.45925">
        <ele>807.005</ele>
        <time>2012-08-03T08:05:15.166Z</time>
      </trkpt>
      <trkpt lat="45.0014" lon="5.45937">
        <ele>810.764</ele>
        <time>2012-08-03T08:05:21.996Z</time>
      </trkpt>
      <trkpt lat="45.00146" lon="5.45948">
        <ele>813.061</ele>
        <time>2012-08-03T08:05:28.635Z</time>
      </trkpt>
      <trkpt lat="45.00149" lon="5.45961">
        <ele>813.993</ele>
        <time>2012-08-03T08:05:35.475Z</time>
      </trkpt>
      <trkpt lat="45.00146" lon="5.45974">
        <ele>814.69</ele>
        <time>2012-08-03T08:05:42.322Z</time>
      </trkpt>
      <trkpt lat="45.00147" lon="5.45988">
        <ele>815.895</ele>
        <time>2012-08-03T08:05:48.440Z</time>
      </trkpt>
      <trkpt lat="45.00144" lon="5.46">
        <ele>817.647</ele>
        <time>2012-08-03T08:05:54.871Z</time>
      </trkpt>
      <trkpt lat="45.00151" lon="5.46011">
        <ele>819.43</ele>
        <time>2012-08-03T08:06:01.817Z</time>
      </trkpt>
      <trkpt lat="45.00159" lon="5.46019">
        <ele>820.803</ele>
        <time>2012-08-03T08:06:08.825Z</time>
      </trkpt>
      <trkpt lat="45.00166" lon="5.4603">
        <ele>821.723</ele>
        <time>2012-08-03T08:06:15.611Z</time>
      </trkpt>
      <trkpt lat="45.00174" lon="5.4604">
        <ele>822.299</ele>
        <time>2012-08-03T08:06:22.232Z</time>
      </trkpt>
      <trkpt lat="45.00179" lon="5.46052">
        <ele>822.726</ele>
        <time>2012-08-03T08:06:28.763Z</time>
      </trkpt>
      <trkpt lat="45.00185" lon="5.46063">
        <ele>823.16</ele>
        <time>2012-08-03T08:06:35.126Z</time>
      </trkpt>
      <trkpt lat="45.00191" lon="5.46073">
        <ele>823.896</ele>
        <time>2012-08-03T08:06:42.425Z</time>
      </trkpt>
      <trkpt lat="45.002" lon="5.46079">
        <ele>825.391</ele>
        <time>2012-08-03T08:06:50.491Z</time>
      </trkpt>
      <trkpt lat="45.00207" lon="5.46087">
        <ele>827.488</ele>
        <time>2012-08-03T08:06:58.090Z</time>
      </trkpt>
      <trkpt lat="45.00216" lon="5.4609">
        <ele>829.309</ele>
        <time>2012-08-03T08:07:06.690Z</time>
      </trkpt>
      <trkpt lat="45.00226" lon="5.46088">
        <ele>830.358</ele>
        <time>2012-08-03T08:07:14.923Z</time>
      </trkpt>
      <trkpt lat="45.00226" lon="5.46088">
        <ele>830.883</ele>
        <time>2012-08-03T08:07:33.109Z</time>
      </trkpt>
      <trkpt lat="45.00226" lon="5.46088">
        <ele>830.98</ele>
        <time>2012-08-03T08:07:33.209Z</time>
      </trkpt>
      <trkpt lat="45.00247" lon="5.46073">
        <ele>831.061</ele>
        <time>2012-08-03T08:08:26.979Z</time>
      </trkpt>
      <trkpt lat="45.00256" lon="5.46081">
        <ele>832.001</ele>
        <time>2012-08-03T08:08:36.808Z</time>
      </trkpt>
      <trkpt lat="45.00263" lon="5.46088">
        <ele>833.611</ele>
        <time>2012-08-03T08:08:44.795Z</time>
      </trkpt>
      <trkpt lat="45.00273" lon="5.46097">
        <ele>834.969</ele>
        <time>2012-08-03T08:08:54.798Z</time>
      </trkpt>
      <trkpt lat="45.00278" lon="5.46108">
        <ele>835.787</ele>
        <time>2012-08-03T08:09:02.772Z</time>
      </trkpt>
      <trkpt lat="45.00286" lon="5.46114">
        <ele>836.568</ele>
        <time>2012-08-03T08:09:12.725Z</time>
      </trkpt>
      <trkpt lat="45.00294" lon="5.46119">
        <ele>837.966</ele>
        <time>2012-08-03T08:09:23.049Z</time>
      </trkpt>
      <trkpt lat="45.00294" lon="5.46119">
        <ele>839.445</ele>
        <time>2012-08-03T08:09:26.868Z</time>
      </trkpt>
      <trkpt lat="45.00294" lon="5.46119">
        <ele>839.847</ele>
        <time>2012-08-03T08:09:29.375Z</time>
      </trkpt>
      <trkpt lat="45.00312" lon="5.46137">
        <ele>839.309</ele>
        <time>2012-08-03T08:09:55.279Z</time>
      </trkpt>
      <trkpt lat="45.00321" lon="5.46143">
        <ele>839.067</ele>
        <time>2012-08-03T08:10:04.942Z</time>
      </trkpt>
      <trkpt lat="45.00321" lon="5.46143">
        <ele>839.692</ele>
        <time>2012-08-03T08:10:10.018Z</time>
      </trkpt>
      <trkpt lat="45.00321" lon="5.46143">
        <ele>840.265</ele>
        <time>2012-08-03T08:10:10.118Z</time>
      </trkpt>
      <trkpt lat="45.00337" lon="5.4616">
        <ele>839.927</ele>
        <time>2012-08-03T08:10:42.946Z</time>
      </trkpt>
      <trkpt lat="45.00348" lon="5.46163">
        <ele>840.753</ele>
        <time>2012-08-03T08:10:49.548Z</time>
      </trkpt>
      <trkpt lat="45.00357" lon="5.46162">
        <ele>844.918</ele>
        <time>2012-08-03T08:10:55.087Z</time>
      </trkpt>
      <trkpt lat="45.00357" lon="5.46162">
        <ele>850.401</ele>
        <time>2012-08-03T08:11:15.074Z</time>
      </trkpt>
      <trkpt lat="45.00357" lon="5.46162">
        <ele>853.254</ele>
        <time>2012-08-03T08:11:15.174Z</time>
      </trkpt>
      <trkpt lat="45.00383" lon="5.46172">
        <ele>853.296</ele>
        <time>2012-08-03T08:11:52.148Z</time>
      </trkpt>
      <trkpt lat="45.00389" lon="5.46181">
        <ele>853.194</ele>
        <time>2012-08-03T08:12:03.483Z</time>
      </trkpt>
      <trkpt lat="45.00396" lon="5.46192">
        <ele>853.998</ele>
        <time>2012-08-03T08:12:14.366Z</time>
      </trkpt>
      <trkpt lat="45.00405" lon="5.46195">
        <ele>856.427</ele>
        <time>2012-08-03T08:12:22.870Z</time>
      </trkpt>
      <trkpt lat="45.00413" lon="5.46203">
        <ele>861.511</ele>
        <time>2012-08-03T08:12:31.621Z</time>
      </trkpt>
      <trkpt lat="45.00422" lon="5.46209">
        <ele>867.897</ele>
        <time>2012-08-03T08:12:41.852Z</time>
      </trkpt>
      <trkpt lat="45.00433" lon="5.46211">
        <ele>873.616</ele>
        <time>2012-08-03T08:12:54.682Z</time>
      </trkpt>
      <trkpt lat="45.0044" lon="5.46219">
        <ele>877.832</ele>
        <time>2012-08-03T08:13:05.316Z</time>
      </trkpt>
      <trkpt lat="45.00435" lon="5.46209">
        <ele>880.043</ele>
        <time>2012-08-03T08:13:13.917Z</time>
      </trkpt>
      <trkpt lat="45.0044" lon="5.46219">
        <ele>880.781</ele>
        <time>2012-08-03T08:13:21.183Z</time>
      </trkpt>
      <trkpt lat="45.0044" lon="5.46219">
        <ele>880.962</ele>
        <time>2012-08-03T08:13:22.019Z</time>
      </trkpt>
      <trkpt lat="45.0044" lon="5.46219">
        <ele>881.026</ele>
        <time>2012-08-03T08:13:22.119Z</time>
      </trkpt>
      <trkpt lat="45.00458" lon="5.46239">
        <ele>882.68</ele>
        <time>2012-08-03T08:13:42.301Z</time>
      </trkpt>
      <trkpt lat="45.00464" lon="5.46248">
        <ele>887.807</ele>
        <time>2012-08-03T08:13:47.953Z</time>
      </trkpt>
      <trkpt lat="45.00473" lon="5.46251">
        <ele>894.385</ele>
        <time>2012-08-03T08:13:53.645Z</time>
      </trkpt>
      <trkpt lat="45.0048" lon="5.46261">
        <ele>898.424</ele>
        <time>2012-08-03T08:14:00.947Z</time>
      </trkpt>
      <trkpt lat="45.00485" lon="5.46271">
        <ele>898.798</ele>
        <time>2012-08-03T08:14:07.863Z</time>
      </trkpt>
      <trkpt lat="45.00485" lon="5.46271">
        <ele>897.417</ele>
        <time>2012-08-03T08:14:22.849Z</time>
      </trkpt>
      <trkpt lat="45.00485" lon="5.46271">
        <ele>896.507</ele>
        <time>2012-08-03T08:14:22.949Z</time>
      </trkpt>
      <trkpt lat="45.00508" lon="5.46296">
        <ele>896.412</ele>
        <time>2012-08-03T08:14:57.138Z</time>
      </trkpt>
      <trkpt lat="45.00516" lon="5.46303">
        <ele>896.451</ele>
        <time>2012-08-03T08:15:00.367Z</time>
      </trkpt>
      <trkpt lat="45.00525" lon="5.46304">
        <ele>896.23</ele>
        <time>2012-08-03T08:15:03.853Z</time>
      </trkpt>
      <trkpt lat="45.00535" lon="5.46305">
        <ele>895.691</ele>
        <time>2012-08-03T08:15:26.930Z</time>
      </trkpt>
      <trkpt lat="45.00535" lon="5.46305">
        <ele>895.153</ele>
        <time>2012-08-03T08:15:26.931Z</time>
      </trkpt>
      <trkpt lat="45.00535" lon="5.46305">
        <ele>894.901</ele>
        <time>2012-08-03T08:15:27.031Z</time>
      </trkpt>
      <trkpt lat="45.00516" lon="5.46286">
        <ele>894.749</ele>
        <time>2012-08-03T08:15:41.010Z</time>
      </trkpt>
      <trkpt lat="45.00525" lon="5.46294">
        <ele>894.489</ele>
        <time>2012-08-03T08:15:42.856Z</time>
      </trkpt>
      <trkpt lat="45.00525" lon="5.46294">
        <ele>894.128</ele>
        <time>2012-08-03T08:15:45.048Z</time>
      </trkpt>
      <trkpt lat="45.00525" lon="5.46294">
        <ele>893.76</ele>
        <time>2012-08-03T08:15:45.148Z</time>
      </trkpt>
      <trkpt lat="45.00545" lon="5.46312">
        <ele>893.495</ele>
        <time>2012-08-03T08:16:04.876Z</time>
      </trkpt>
      <trkpt lat="45.00555" lon="5.46315">
        <ele>893.401</ele>
        <time>2012-08-03T08:16:09.809Z</time>
      </trkpt>
      <trkpt lat="45.00564" lon="5.46319">
        <ele>893.405</ele>
        <time>2012-08-03T08:16:16.035Z</time>
      </trkpt>
      <trkpt lat="45.00574" lon="5.46327">
        <ele>894.335</ele>
        <time>2012-08-03T08:16:24.195Z</time>
      </trkpt>
      <trkpt lat="45.00583" lon="5.46331">
        <ele>897.114</ele>
        <time>2012-08-03T08:16:31.676Z</time>
      </trkpt>
      <trkpt lat="45.00592" lon="5.46336">
        <ele>900.745</ele>
        <time>2012-08-03T08:16:39.100Z</time>
      </trkpt>
      <trkpt lat="45.00601" lon="5.46339">
        <ele>903.769</ele>
        <time>2012-08-03T08:16:46.560Z</time>
      </trkpt>
      <trkpt lat="45.00611" lon="5.46339">
        <ele>906.19</ele>
        <time>2012-08-03T08:16:54.816Z</time>
      </trkpt>
      <trkpt lat="45.00619" lon="5.46345">
        <ele>908.491</ele>
        <time>2012-08-03T08:17:02.316Z</time>
      </trkpt>
      <trkpt lat="45.00629" lon="5.46346">
        <ele>910.575</ele>
        <time>2012-08-03T08:17:10.141Z</time>
      </trkpt>
      <trkpt lat="45.00639" lon="5.46349">
        <ele>912.454</ele>
        <time>2012-08-03T08:17:16.730Z</time>
      </trkpt>
      <trkpt lat="45.00648" lon="5.46353">
        <ele>914.297</ele>
        <time>2012-08-03T08:17:23.815Z</time>
      </trkpt>
      <trkpt lat="45.00656" lon="5.46359">
        <ele>915.7</ele>
        <time>2012-08-03T08:17:30.863Z</time>
      </trkpt>
      <trkpt lat="45.00664" lon="5.46351">
        <ele>916.231</ele>
        <time>2012-08-03T08:17:39.429Z</time>
      </trkpt>
      <trkpt lat="45.00673" lon="5.46359">
        <ele>916.368</ele>
        <time>2012-08-03T08:17:47.743Z</time>
      </trkpt>
      <trkpt lat="45.00681" lon="5.46366">
        <ele>916.714</ele>
        <time>2012-08-03T08:17:55.415Z</time>
      </trkpt>
      <trkpt lat="45.0069" lon="5.46368">
        <ele>918.434</ele>
        <time>2012-08-03T08:18:04.087Z</time>
      </trkpt>
      <trkpt lat="45.00699" lon="5.46373">
        <ele>922.23</ele>
        <time>2012-08-03T08:18:14.042Z</time>
      </trkpt>
      <trkpt lat="45.00699" lon="5.46373">
        <ele>926.468</ele>
        <time>2012-08-03T08:18:28.074Z</time>
      </trkpt>
      <trkpt lat="45.00699" lon="5.46373">
        <ele>928.987</ele>
        <time>2012-08-03T08:18:28.174Z</time>
      </trkpt>
      <trkpt lat="45.00721" lon="5.46379">
        <ele>929.398</ele>
        <time>2012-08-03T08:19:41.737Z</time>
      </trkpt>
      <trkpt lat="45.00729" lon="5.46382">
        <ele>928.616</ele>
        <time>2012-08-03T08:19:48.268Z</time>
      </trkpt>
      <trkpt lat="45.00739" lon="5.46378">
        <ele>927.89</ele>
        <time>2012-08-03T08:19:55.033Z</time>
      </trkpt>
      <trkpt lat="45.00748" lon="5.4638">
        <ele>927.705</ele>
        <time>2012-08-03T08:20:01.497Z</time>
      </trkpt>
      <trkpt lat="45.00757" lon="5.46381">
        <ele>927.773</ele>
        <time>2012-08-03T08:20:08.217Z</time>
      </trkpt>
      <trkpt lat="45.00757" lon="5.46381">
        <ele>927.876</ele>
        <time>2012-08-03T08:20:25.107Z</time>
      </trkpt>
      <trkpt lat="45.00757" lon="5.46381">
        <ele>927.935</ele>
        <time>2012-08-03T08:20:25.207Z</time>
      </trkpt>
      <trkpt lat="45.00784" lon="5.4638">
        <ele>928.364</ele>
        <time>2012-08-03T08:21:09.811Z</time>
      </trkpt>
      <trkpt lat="45.00792" lon="5.46384">
        <ele>929.576</ele>
        <time>2012-08-03T08:21:17.719Z</time>
      </trkpt>
      <trkpt lat="45.00801" lon="5.46388">
        <ele>931.036</ele>
        <time>2012-08-03T08:21:25.538Z</time>
      </trkpt>
      <trkpt lat="45.00809" lon="5.46394">
        <ele>932.617</ele>
        <time>2012-08-03T08:21:33.038Z</time>
      </trkpt>
      <trkpt lat="45.00817" lon="5.464">
        <ele>935.085</ele>
        <time>2012-08-03T08:21:40.191Z</time>
      </trkpt>
      <trkpt lat="45.00824" lon="5.46408">
        <ele>937.949</ele>
        <time>2012-08-03T08:21:47.646Z</time>
      </trkpt>
      <trkpt lat="45.00833" lon="5.46411">
        <ele>939.952</ele>
        <time>2012-08-03T08:21:54.614Z</time>
      </trkpt>
      <trkpt lat="45.00842" lon="5.46414">
        <ele>940.76</ele>
        <time>2012-08-03T08:22:01.209Z</time>
      </trkpt>
      <trkpt lat="45.0085" lon="5.46422">
        <ele>940.679</ele>
        <time>2012-08-03T08:22:07.873Z</time>
      </trkpt>
      <trkpt lat="45.0085" lon="5.46422">
        <ele>940.25</ele>
        <time>2012-08-03T08:22:25.886Z</time>
      </trkpt>
      <trkpt lat="45.0085" lon="5.46422">
        <ele>939.906</ele>
        <time>2012-08-03T08:22:26.069Z</time>
      </trkpt>
      <trkpt lat="45.00873" lon="5.4642">
        <ele>939.688</ele>
        <time>2012-08-03T08:23:03.468Z</time>
      </trkpt>
      <trkpt lat="45.0088" lon="5.46427">
        <ele>939.577</ele>
        <time>2012-08-03T08:23:11.683Z</time>
      </trkpt>
      <trkpt lat="45.00886" lon="5.46418">
        <ele>939.556</ele>
        <time>2012-08-03T08:23:19.939Z</time>
      </trkpt>
      <trkpt lat="45.00895" lon="5.46422">
        <ele>940.169</ele>
        <time>2012-08-03T08:23:29.028Z</time>
      </trkpt>
      <trkpt lat="45.00898" lon="5.46436">
        <ele>941.88</ele>
        <time>2012-08-03T08:23:38.315Z</time>
      </trkpt>
      <trkpt lat="45.00907" lon="5.46432">
        <ele>945.503</ele>
        <time>2012-08-03T08:23:46.713Z</time>
      </trkpt>
      <trkpt lat="45.00916" lon="5.46431">
        <ele>951.226</ele>
        <time>2012-08-03T08:23:54.179Z</time>
      </trkpt>
      <trkpt lat="45.00924" lon="5.46439">
        <ele>956.668</ele>
        <time>2012-08-03T08:24:00.624Z</time>
      </trkpt>
      <trkpt lat="45.00933" lon="5.4644">
        <ele>959.406</ele>
        <time>2012-08-03T08:24:07.008Z</time>
      </trkpt>
      <trkpt lat="45.00943" lon="5.46434">
        <ele>959.914</ele>
        <time>2012-08-03T08:24:14.192Z</time>
      </trkpt>
      <trkpt lat="45.00952" lon="5.46436">
        <ele>959.654</ele>
        <time>2012-08-03T08:24:20.828Z</time>
      </trkpt>
      <trkpt lat="45.00961" lon="5.46443">
        <ele>960.123</ele>
        <time>2012-08-03T08:24:29.204Z</time>
      </trkpt>
      <trkpt lat="45.00969" lon="5.46448">
        <ele>961.849</ele>
        <time>2012-08-03T08:24:35.527Z</time>
      </trkpt>
      <trkpt lat="45.00979" lon="5.46449">
        <ele>963.823</ele>
        <time>2012-08-03T08:24:41.016Z</time>
      </trkpt>
      <trkpt lat="45.00988" lon="5.46448">
        <ele>964.953</ele>
        <time>2012-08-03T08:24:46.720Z</time>
      </trkpt>
      <trkpt lat="45.00996" lon="5.46451">
        <ele>965.241</ele>
        <time>2012-08-03T08:24:53.088Z</time>
      </trkpt>
      <trkpt lat="45.01006" lon="5.46454">
        <ele>965.135</ele>
        <time>2012-08-03T08:25:00.114Z</time>
      </trkpt>
      <trkpt lat="45.01015" lon="5.46458">
        <ele>964.973</ele>
        <time>2012-08-03T08:25:06.832Z</time>
      </trkpt>
      <trkpt lat="45.01024" lon="5.46465">
        <ele>964.882</ele>
        <time>2012-08-03T08:25:15.442Z</time>
      </trkpt>
      <trkpt lat="45.01033" lon="5.46469">
        <ele>965.136</ele>
        <time>2012-08-03T08:25:24.220Z</time>
      </trkpt>
      <trkpt lat="45.01042" lon="5.46476">
        <ele>966.279</ele>
        <time>2012-08-03T08:25:34.894Z</time>
      </trkpt>
      <trkpt lat="45.01052" lon="5.46475">
        <ele>968.525</ele>
        <time>2012-08-03T08:25:45.247Z</time>
      </trkpt>
      <trkpt lat="45.01062" lon="5.46469">
        <ele>973.006</ele>
        <time>2012-08-03T08:25:55.502Z</time>
      </trkpt>
      <trkpt lat="45.01072" lon="5.46464">
        <ele>979.733</ele>
        <time>2012-08-03T08:26:04.666Z</time>
      </trkpt>
      <trkpt lat="45.01079" lon="5.46456">
        <ele>985.45</ele>
        <time>2012-08-03T08:26:11.895Z</time>
      </trkpt>
      <trkpt lat="45.01079" lon="5.46456">
        <ele>987.832</ele>
        <time>2012-08-03T08:26:20.896Z</time>
      </trkpt>
      <trkpt lat="45.01079" lon="5.46456">
        <ele>987.994</ele>
        <time>2012-08-03T08:26:20.996Z</time>
      </trkpt>
      <trkpt lat="45.01068" lon="5.46481">
        <ele>987.438</ele>
        <time>2012-08-03T08:26:46.189Z</time>
      </trkpt>
      <trkpt lat="45.0106" lon="5.46487">
        <ele>986.973</ele>
        <time>2012-08-03T08:26:54.036Z</time>
      </trkpt>
      <trkpt lat="45.01051" lon="5.46483">
        <ele>986.782</ele>
        <time>2012-08-03T08:27:02.107Z</time>
      </trkpt>
      <trkpt lat="45.01041" lon="5.46484">
        <ele>986.909</ele>
        <time>2012-08-03T08:27:11.146Z</time>
      </trkpt>
      <trkpt lat="45.01032" lon="5.46488">
        <ele>988.006</ele>
        <time>2012-08-03T08:27:18.429Z</time>
      </trkpt>
      <trkpt lat="45.01024" lon="5.46495">
        <ele>990.903</ele>
        <time>2012-08-03T08:27:25.431Z</time>
      </trkpt>
      <trkpt lat="45.01015" lon="5.46497">
        <ele>994.741</ele>
        <time>2012-08-03T08:27:32.969Z</time>
      </trkpt>
      <trkpt lat="45.01007" lon="5.46502">
        <ele>997.491</ele>
        <time>2012-08-03T08:27:41.286Z</time>
      </trkpt>
      <trkpt lat="45.00997" lon="5.46505">
        <ele>998.467</ele>
        <time>2012-08-03T08:27:48.538Z</time>
      </trkpt>
      <trkpt lat="45.00987" lon="5.465">
        <ele>998.554</ele>
        <time>2012-08-03T08:27:54.894Z</time>
      </trkpt>
      <trkpt lat="45.00977" lon="5.46505">
        <ele>998.737</ele>
        <time>2012-08-03T08:28:01.306Z</time>
      </trkpt>
      <trkpt lat="45.00971" lon="5.46515">
        <ele>998.828</ele>
        <time>2012-08-03T08:28:07.484Z</time>
      </trkpt>
      <trkpt lat="45.00962" lon="5.46522">
        <ele>998.077</ele>
        <time>2012-08-03T08:28:14.293Z</time>
      </trkpt>
      <trkpt lat="45.00953" lon="5.46525">
        <ele>996.816</ele>
        <time>2012-08-03T08:28:20.696Z</time>
      </trkpt>
      <trkpt lat="45.00944" lon="5.4653">
        <ele>995.943</ele>
        <time>2012-08-03T08:28:27.756Z</time>
      </trkpt>
      <trkpt lat="45.00934" lon="5.4653">
        <ele>995.923</ele>
        <time>2012-08-03T08:28:34.753Z</time>
      </trkpt>
      <trkpt lat="45.00925" lon="5.46534">
        <ele>996.53</ele>
        <time>2012-08-03T08:28:40.868Z</time>
      </trkpt>
      <trkpt lat="45.00916" lon="5.46538">
        <ele>997.012</ele>
        <time>2012-08-03T08:28:47.013Z</time>
      </trkpt>
      <trkpt lat="45.00906" lon="5.46534">
        <ele>997.064</ele>
        <time>2012-08-03T08:28:54.347Z</time>
      </trkpt>
      <trkpt lat="45.00898" lon="5.46541">
        <ele>997.104</ele>
        <time>2012-08-03T08:29:01.875Z</time>
      </trkpt>
      <trkpt lat="45.00888" lon="5.46545">
        <ele>997.375</ele>
        <time>2012-08-03T08:29:09.660Z</time>
      </trkpt>
      <trkpt lat="45.00879" lon="5.46543">
        <ele>997.844</ele>
        <time>2012-08-03T08:29:15.980Z</time>
      </trkpt>
      <trkpt lat="45.00869" lon="5.46541">
        <ele>998.651</ele>
        <time>2012-08-03T08:29:22.702Z</time>
      </trkpt>
      <trkpt lat="45.00859" lon="5.46543">
        <ele>999.775</ele>
        <time>2012-08-03T08:29:29.399Z</time>
      </trkpt>
      <trkpt lat="45.0085" lon="5.46544">
        <ele>1000.943</ele>
        <time>2012-08-03T08:29:35.624Z</time>
      </trkpt>
      <trkpt lat="45.00841" lon="5.46539">
        <ele>1002.013</ele>
        <time>2012-08-03T08:29:41.993Z</time>
      </trkpt>
      <trkpt lat="45.0083" lon="5.46537">
        <ele>1003.037</ele>
        <time>2012-08-03T08:29:48.891Z</time>
      </trkpt>
      <trkpt lat="45.00821" lon="5.46537">
        <ele>1004.153</ele>
        <time>2012-08-03T08:29:54.255Z</time>
      </trkpt>
      <trkpt lat="45.00812" lon="5.46539">
        <ele>1005.923</ele>
        <time>2012-08-03T08:29:59.932Z</time>
      </trkpt>
      <trkpt lat="45.00803" lon="5.46541">
        <ele>1008.769</ele>
        <time>2012-08-03T08:30:05.536Z</time>
      </trkpt>
      <trkpt lat="45.00797" lon="5.46553">
        <ele>1011.864</ele>
        <time>2012-08-03T08:30:12.543Z</time>
      </trkpt>
      <trkpt lat="45.00805" lon="5.46561">
        <ele>1013.795</ele>
        <time>2012-08-03T08:30:19.876Z</time>
      </trkpt>
      <trkpt lat="45.00815" lon="5.46564">
        <ele>1014.365</ele>
        <time>2012-08-03T08:30:27.514Z</time>
      </trkpt>
      <trkpt lat="45.00825" lon="5.46563">
        <ele>1014.381</ele>
        <time>2012-08-03T08:30:36.299Z</time>
      </trkpt>
      <trkpt lat="45.00835" lon="5.46567">
        <ele>1014.488</ele>
        <time>2012-08-03T08:30:45.139Z</time>
      </trkpt>
      <trkpt lat="45.00842" lon="5.46574">
        <ele>1014.701</ele>
        <time>2012-08-03T08:30:53.045Z</time>
      </trkpt>
      <trkpt lat="45.00851" lon="5.46568">
        <ele>1014.831</ele>
        <time>2012-08-03T08:31:01.498Z</time>
      </trkpt>
      <trkpt lat="45.00859" lon="5.46574">
        <ele>1014.868</ele>
        <time>2012-08-03T08:31:11.065Z</time>
      </trkpt>
      <trkpt lat="45.00868" lon="5.46582">
        <ele>1015.273</ele>
        <time>2012-08-03T08:31:20.038Z</time>
      </trkpt>
      <trkpt lat="45.00877" lon="5.46587">
        <ele>1016.474</ele>
        <time>2012-08-03T08:31:26.310Z</time>
      </trkpt>
      <trkpt lat="45.00886" lon="5.46586">
        <ele>1017.931</ele>
        <time>2012-08-03T08:31:32.052Z</time>
      </trkpt>
      <trkpt lat="45.00896" lon="5.46583">
        <ele>1019.1</ele>
        <time>2012-08-03T08:31:37.493Z</time>
      </trkpt>
      <trkpt lat="45.00904" lon="5.46578">
        <ele>1020.075</ele>
        <time>2012-08-03T08:31:42.661Z</time>
      </trkpt>
      <trkpt lat="45.00912" lon="5.46587">
        <ele>1020.891</ele>
        <time>2012-08-03T08:31:49.180Z</time>
      </trkpt>
      <trkpt lat="45.0092" lon="5.46593">
        <ele>1021.758</ele>
        <time>2012-08-03T08:31:55.821Z</time>
      </trkpt>
      <trkpt lat="45.00928" lon="5.46602">
        <ele>1022.828</ele>
        <time>2012-08-03T08:32:03.623Z</time>
      </trkpt>
      <trkpt lat="45.00937" lon="5.46607">
        <ele>1023.938</ele>
        <time>2012-08-03T08:32:10.515Z</time>
      </trkpt>
      <trkpt lat="45.00946" lon="5.46611">
        <ele>1024.98</ele>
        <time>2012-08-03T08:32:16.729Z</time>
      </trkpt>
      <trkpt lat="45.00955" lon="5.46614">
        <ele>1025.724</ele>
        <time>2012-08-03T08:32:23.596Z</time>
      </trkpt>
      <trkpt lat="45.00965" lon="5.46608">
        <ele>1025.986</ele>
        <time>2012-08-03T08:32:31.281Z</time>
      </trkpt>
      <trkpt lat="45.00973" lon="5.46616">
        <ele>1025.419</ele>
        <time>2012-08-03T08:32:38.748Z</time>
      </trkpt>
      <trkpt lat="45.00982" lon="5.46623">
        <ele>1023.755</ele>
        <time>2012-08-03T08:32:45.700Z</time>
      </trkpt>
      <trkpt lat="45.00988" lon="5.46613">
        <ele>1021.857</ele>
        <time>2012-08-03T08:32:52.044Z</time>
      </trkpt>
      <trkpt lat="45.00998" lon="5.46607">
        <ele>1020.766</ele>
        <time>2012-08-03T08:33:00.374Z</time>
      </trkpt>
      <trkpt lat="45.01009" lon="5.46608">
        <ele>1020.624</ele>
        <time>2012-08-03T08:33:10.184Z</time>
      </trkpt>
      <trkpt lat="45.01018" lon="5.46614">
        <ele>1021.775</ele>
        <time>2012-08-03T08:33:17.395Z</time>
      </trkpt>
      <trkpt lat="45.01027" lon="5.46617">
        <ele>1024.1</ele>
        <time>2012-08-03T08:33:24.111Z</time>
      </trkpt>
      <trkpt lat="45.01037" lon="5.46615">
        <ele>1026.21</ele>
        <time>2012-08-03T08:33:30.836Z</time>
      </trkpt>
      <trkpt lat="45.01047" lon="5.46617">
        <ele>1027.273</ele>
        <time>2012-08-03T08:33:38.119Z</time>
      </trkpt>
      <trkpt lat="45.01047" lon="5.46617">
        <ele>1027.589</ele>
        <time>2012-08-03T08:33:58.879Z</time>
      </trkpt>
      <trkpt lat="45.01047" lon="5.46617">
        <ele>1027.406</ele>
        <time>2012-08-03T08:34:04.631Z</time>
      </trkpt>
      <trkpt lat="45.0107" lon="5.46615">
        <ele>1027.04</ele>
        <time>2012-08-03T08:34:41.117Z</time>
      </trkpt>
      <trkpt lat="45.0107" lon="5.46615">
        <ele>1026.76</ele>
        <time>2012-08-03T08:34:49.907Z</time>
      </trkpt>
      <trkpt lat="45.0107" lon="5.46615">
        <ele>1026.549</ele>
        <time>2012-08-03T08:34:56.580Z</time>
      </trkpt>
      <trkpt lat="45.01092" lon="5.46616">
        <ele>1026.413</ele>
        <time>2012-08-03T08:35:22.054Z</time>
      </trkpt>
      <trkpt lat="45.01102" lon="5.46615">
        <ele>1026.371</ele>
        <time>2012-08-03T08:35:28.754Z</time>
      </trkpt>
      <trkpt lat="45.01112" lon="5.46615">
        <ele>1028.369</ele>
        <time>2012-08-03T08:35:35.135Z</time>
      </trkpt>
      <trkpt lat="45.01122" lon="5.46616">
        <ele>1033.849</ele>
        <time>2012-08-03T08:35:41.395Z</time>
      </trkpt>
      <trkpt lat="45.01131" lon="5.46616">
        <ele>1040.18</ele>
        <time>2012-08-03T08:35:47.619Z</time>
      </trkpt>
      <trkpt lat="45.01141" lon="5.46614">
        <ele>1044.168</ele>
        <time>2012-08-03T08:35:54.700Z</time>
      </trkpt>
      <trkpt lat="45.01151" lon="5.46611">
        <ele>1045.777</ele>
        <time>2012-08-03T08:36:02.350Z</time>
      </trkpt>
      <trkpt lat="45.0116" lon="5.46615">
        <ele>1046.522</ele>
        <time>2012-08-03T08:36:09.515Z</time>
      </trkpt>
      <trkpt lat="45.01169" lon="5.46613">
        <ele>1047.667</ele>
        <time>2012-08-03T08:36:16.045Z</time>
      </trkpt>
      <trkpt lat="45.01177" lon="5.46606">
        <ele>1049.125</ele>
        <time>2012-08-03T08:36:22.714Z</time>
      </trkpt>
      <trkpt lat="45.01186" lon="5.46601">
        <ele>1050.566</ele>
        <time>2012-08-03T08:36:30.072Z</time>
      </trkpt>
      <trkpt lat="45.01198" lon="5.46599">
        <ele>1052.437</ele>
        <time>2012-08-03T08:36:41.182Z</time>
      </trkpt>
      <trkpt lat="45.01207" lon="5.46597">
        <ele>1055.562</ele>
        <time>2012-08-03T08:36:49.860Z</time>
      </trkpt>
      <trkpt lat="45.01217" lon="5.46602">
        <ele>1059.883</ele>
        <time>2012-08-03T08:36:58.446Z</time>
      </trkpt>
      <trkpt lat="45.01226" lon="5.46605">
        <ele>1064.391</ele>
        <time>2012-08-03T08:37:06.151Z</time>
      </trkpt>
      <trkpt lat="45.01235" lon="5.46602">
        <ele>1067.988</ele>
        <time>2012-08-03T08:37:13.643Z</time>
      </trkpt>
      <trkpt lat="45.01245" lon="5.46601">
        <ele>1070.1</ele>
        <time>2012-08-03T08:37:21.621Z</time>
      </trkpt>
      <trkpt lat="45.01255" lon="5.466">
        <ele>1070.919</ele>
        <time>2012-08-03T08:37:31.009Z</time>
      </trkpt>
      <trkpt lat="45.01263" lon="5.46591">
        <ele>1071.209</ele>
        <time>2012-08-03T08:37:40.352Z</time>
      </trkpt>
      <trkpt lat="45.01272" lon="5.46591">
        <ele>1071.45</ele>
        <time>2012-08-03T08:37:49.011Z</time>
      </trkpt>
      <trkpt lat="45.01281" lon="5.46591">
        <ele>1071.687</ele>
        <time>2012-08-03T08:37:57.526Z</time>
      </trkpt>
      <trkpt lat="45.01289" lon="5.46582">
        <ele>1071.796</ele>
        <time>2012-08-03T08:38:06.554Z</time>
      </trkpt>
      <trkpt lat="45.01299" lon="5.46581">
        <ele>1071.949</ele>
        <time>2012-08-03T08:38:15.943Z</time>
      </trkpt>
      <trkpt lat="45.01299" lon="5.46581">
        <ele>1072.151</ele>
        <time>2012-08-03T08:38:37.946Z</time>
      </trkpt>
      <trkpt lat="45.01299" lon="5.46581">
        <ele>1072.141</ele>
        <time>2012-08-03T08:38:38.664Z</time>
      </trkpt>
      <trkpt lat="45.0132" lon="5.46578">
        <ele>1072.491</ele>
        <time>2012-08-03T08:39:03.853Z</time>
      </trkpt>
      <trkpt lat="45.01325" lon="5.46566">
        <ele>1074.195</ele>
        <time>2012-08-03T08:39:09.136Z</time>
      </trkpt>
      <trkpt lat="45.01325" lon="5.46566">
        <ele>1076.698</ele>
        <time>2012-08-03T08:39:21.193Z</time>
      </trkpt>
      <trkpt lat="45.01325" lon="5.46566">
        <ele>1078.052</ele>
        <time>2012-08-03T08:39:21.293Z</time>
      </trkpt>
      <trkpt lat="45.01349" lon="5.46561">
        <ele>1077.512</ele>
        <time>2012-08-03T08:39:42.450Z</time>
      </trkpt>
      <trkpt lat="45.01359" lon="5.46558">
        <ele>1077.549</ele>
        <time>2012-08-03T08:39:47.210Z</time>
      </trkpt>
      <trkpt lat="45.01369" lon="5.46554">
        <ele>1081.632</ele>
        <time>2012-08-03T08:39:51.611Z</time>
      </trkpt>
      <trkpt lat="45.01377" lon="5.46549">
        <ele>1089.07</ele>
        <time>2012-08-03T08:39:55.085Z</time>
      </trkpt>
      <trkpt lat="45.01377" lon="5.46549">
        <ele>1095.254</ele>
        <time>2012-08-03T08:40:17.981Z</time>
      </trkpt>
      <trkpt lat="45.01377" lon="5.46549">
        <ele>1097.551</ele>
        <time>2012-08-03T08:41:08.621Z</time>
      </trkpt>
      <trkpt lat="45.01363" lon="5.46562">
        <ele>1097.515</ele>
        <time>2012-08-03T08:41:32.509Z</time>
      </trkpt>
      <trkpt lat="45.01359" lon="5.46575">
        <ele>1097.346</ele>
        <time>2012-08-03T08:41:39.879Z</time>
      </trkpt>
      <trkpt lat="45.01353" lon="5.46586">
        <ele>1097.229</ele>
        <time>2012-08-03T08:41:45.989Z</time>
      </trkpt>
      <trkpt lat="45.01344" lon="5.4659">
        <ele>1096.539</ele>
        <time>2012-08-03T08:41:51.208Z</time>
      </trkpt>
      <trkpt lat="45.01335" lon="5.46599">
        <ele>1095.521</ele>
        <time>2012-08-03T08:41:57.156Z</time>
      </trkpt>
      <trkpt lat="45.01327" lon="5.46607">
        <ele>1094.952</ele>
        <time>2012-08-03T08:42:02.472Z</time>
      </trkpt>
      <trkpt lat="45.01324" lon="5.4662">
        <ele>1095.485</ele>
        <time>2012-08-03T08:42:08.225Z</time>
      </trkpt>
      <trkpt lat="45.01315" lon="5.46627">
        <ele>1096.816</ele>
        <time>2012-08-03T08:42:14.115Z</time>
      </trkpt>
      <trkpt lat="45.01308" lon="5.46635">
        <ele>1097.823</ele>
        <time>2012-08-03T08:42:19.812Z</time>
      </trkpt>
      <trkpt lat="45.01299" lon="5.46643">
        <ele>1098.064</ele>
        <time>2012-08-03T08:42:26.469Z</time>
      </trkpt>
      <trkpt lat="45.01291" lon="5.46651">
        <ele>1097.957</ele>
        <time>2012-08-03T08:42:32.932Z</time>
      </trkpt>
      <trkpt lat="45.01285" lon="5.46662">
        <ele>1097.67</ele>
        <time>2012-08-03T08:42:39.288Z</time>
      </trkpt>
      <trkpt lat="45.01274" lon="5.46664">
        <ele>1097.091</ele>
        <time>2012-08-03T08:42:45.247Z</time>
      </trkpt>
      <trkpt lat="45.01266" lon="5.46667">
        <ele>1096.067</ele>
        <time>2012-08-03T08:42:50.205Z</time>
      </trkpt>
      <trkpt lat="45.01257" lon="5.46672">
        <ele>1094.811</ele>
        <time>2012-08-03T08:42:55.015Z</time>
      </trkpt>
      <trkpt lat="45.01248" lon="5.46676">
        <ele>1093.883</ele>
        <time>2012-08-03T08:43:00.095Z</time>
      </trkpt>
      <trkpt lat="45.01238" lon="5.46679">
        <ele>1093.957</ele>
        <time>2012-08-03T08:43:05.541Z</time>
      </trkpt>
      <trkpt lat="45.01229" lon="5.4668">
        <ele>1095.045</ele>
        <time>2012-08-03T08:43:10.625Z</time>
      </trkpt>
      <trkpt lat="45.0122" lon="5.46686">
        <ele>1096.256</ele>
        <time>2012-08-03T08:43:16.116Z</time>
      </trkpt>
      <trkpt lat="45.0121" lon="5.46689">
        <ele>1097.134</ele>
        <time>2012-08-03T08:43:21.744Z</time>
      </trkpt>
      <trkpt lat="45.012" lon="5.4669">
        <ele>1097.961</ele>
        <time>2012-08-03T08:43:27.249Z</time>
      </trkpt>
      <trkpt lat="45.01191" lon="5.46691">
        <ele>1098.747</ele>
        <time>2012-08-03T08:43:32.101Z</time>
      </trkpt>
      <trkpt lat="45.01182" lon="5.46693">
        <ele>1099.496</ele>
        <time>2012-08-03T08:43:36.891Z</time>
      </trkpt>
      <trkpt lat="45.01172" lon="5.46693">
        <ele>1100.507</ele>
        <time>2012-08-03T08:43:42.279Z</time>
      </trkpt>
      <trkpt lat="45.01162" lon="5.46695">
        <ele>1101.979</ele>
        <time>2012-08-03T08:43:47.758Z</time>
      </trkpt>
      <trkpt lat="45.01152" lon="5.467">
        <ele>1103.587</ele>
        <time>2012-08-03T08:43:53.258Z</time>
      </trkpt>
      <trkpt lat="45.01142" lon="5.46704">
        <ele>1105.068</ele>
        <time>2012-08-03T08:43:58.841Z</time>
      </trkpt>
      <trkpt lat="45.01133" lon="5.46708">
        <ele>1106.629</ele>
        <time>2012-08-03T08:44:04.418Z</time>
      </trkpt>
      <trkpt lat="45.01122" lon="5.46711">
        <ele>1108.051</ele>
        <time>2012-08-03T08:44:10.273Z</time>
      </trkpt>
      <trkpt lat="45.01113" lon="5.46711">
        <ele>1108.815</ele>
        <time>2012-08-03T08:44:15.130Z</time>
      </trkpt>
      <trkpt lat="45.01103" lon="5.46714">
        <ele>1108.983</ele>
        <time>2012-08-03T08:44:20.468Z</time>
      </trkpt>
      <trkpt lat="45.01093" lon="5.46715">
        <ele>1109.169</ele>
        <time>2012-08-03T08:44:25.762Z</time>
      </trkpt>
      <trkpt lat="45.01084" lon="5.46719">
        <ele>1110.049</ele>
        <time>2012-08-03T08:44:31.258Z</time>
      </trkpt>
      <trkpt lat="45.01074" lon="5.46724">
        <ele>1111.86</ele>
        <time>2012-08-03T08:44:36.892Z</time>
      </trkpt>
      <trkpt lat="45.01065" lon="5.46729">
        <ele>1114.293</ele>
        <time>2012-08-03T08:44:41.977Z</time>
      </trkpt>
      <trkpt lat="45.01056" lon="5.46731">
        <ele>1116.532</ele>
        <time>2012-08-03T08:44:47.299Z</time>
      </trkpt>
      <trkpt lat="45.01047" lon="5.46736">
        <ele>1117.799</ele>
        <time>2012-08-03T08:44:52.964Z</time>
      </trkpt>
      <trkpt lat="45.01038" lon="5.46741">
        <ele>1118.114</ele>
        <time>2012-08-03T08:44:59.015Z</time>
      </trkpt>
      <trkpt lat="45.01027" lon="5.46745">
        <ele>1117.99</ele>
        <time>2012-08-03T08:45:05.260Z</time>
      </trkpt>
      <trkpt lat="45.01018" lon="5.46748">
        <ele>1117.807</ele>
        <time>2012-08-03T08:45:10.536Z</time>
      </trkpt>
      <trkpt lat="45.0101" lon="5.46754">
        <ele>1117.704</ele>
        <time>2012-08-03T08:45:15.502Z</time>
      </trkpt>
      <trkpt lat="45.00999" lon="5.46759">
        <ele>1117.679</ele>
        <time>2012-08-03T08:45:21.188Z</time>
      </trkpt>
      <trkpt lat="45.0099" lon="5.46762">
        <ele>1117.69</ele>
        <time>2012-08-03T08:45:26.080Z</time>
      </trkpt>
      <trkpt lat="45.00981" lon="5.46765">
        <ele>1117.981</ele>
        <time>2012-08-03T08:45:30.940Z</time>
      </trkpt>
      <trkpt lat="45.00971" lon="5.46769">
        <ele>1118.709</ele>
        <time>2012-08-03T08:45:36.226Z</time>
      </trkpt>
      <trkpt lat="45.00961" lon="5.4677">
        <ele>1119.45</ele>
        <time>2012-08-03T08:45:41.778Z</time>
      </trkpt>
      <trkpt lat="45.00951" lon="5.46773">
        <ele>1119.523</ele>
        <time>2012-08-03T08:45:47.285Z</time>
      </trkpt>
      <trkpt lat="45.00941" lon="5.4678">
        <ele>1118.855</ele>
        <time>2012-08-03T08:45:53.038Z</time>
      </trkpt>
      <trkpt lat="45.00932" lon="5.46779">
        <ele>1117.918</ele>
        <time>2012-08-03T08:45:58.067Z</time>
      </trkpt>
      <trkpt lat="45.00922" lon="5.46784">
        <ele>1116.594</ele>
        <time>2012-08-03T08:46:03.754Z</time>
      </trkpt>
      <trkpt lat="45.00912" lon="5.46781">
        <ele>1114.704</ele>
        <time>2012-08-03T08:46:08.544Z</time>
      </trkpt>
      <trkpt lat="45.00903" lon="5.4678">
        <ele>1113.107</ele>
        <time>2012-08-03T08:46:13.368Z</time>
      </trkpt>
      <trkpt lat="45.00894" lon="5.46779">
        <ele>1112.445</ele>
        <time>2012-08-03T08:46:18.022Z</time>
      </trkpt>
      <trkpt lat="45.00884" lon="5.46779">
        <ele>1112.402</ele>
        <time>2012-08-03T08:46:23.170Z</time>
      </trkpt>
      <trkpt lat="45.00875" lon="5.46777">
        <ele>1112.835</ele>
        <time>2012-08-03T08:46:28.133Z</time>
      </trkpt>
      <trkpt lat="45.00864" lon="5.46778">
        <ele>1113.684</ele>
        <time>2012-08-03T08:46:33.511Z</time>
      </trkpt>
      <trkpt lat="45.00855" lon="5.46777">
        <ele>1115.029</ele>
        <time>2012-08-03T08:46:38.442Z</time>
      </trkpt>
      <trkpt lat="45.00844" lon="5.46774">
        <ele>1116.96</ele>
        <time>2012-08-03T08:46:43.867Z</time>
      </trkpt>
      <trkpt lat="45.00836" lon="5.4678">
        <ele>1118.838</ele>
        <time>2012-08-03T08:46:48.845Z</time>
      </trkpt>
      <trkpt lat="45.00826" lon="5.46783">
        <ele>1119.838</ele>
        <time>2012-08-03T08:46:54.232Z</time>
      </trkpt>
      <trkpt lat="45.00816" lon="5.46787">
        <ele>1119.916</ele>
        <time>2012-08-03T08:46:59.948Z</time>
      </trkpt>
      <trkpt lat="45.00806" lon="5.4679">
        <ele>1119.158</ele>
        <time>2012-08-03T08:47:04.620Z</time>
      </trkpt>
      <trkpt lat="45.00796" lon="5.46791">
        <ele>1117.916</ele>
        <time>2012-08-03T08:47:09.440Z</time>
      </trkpt>
      <trkpt lat="45.00787" lon="5.46793">
        <ele>1116.921</ele>
        <time>2012-08-03T08:47:13.967Z</time>
      </trkpt>
      <trkpt lat="45.00778" lon="5.468">
        <ele>1116.527</ele>
        <time>2012-08-03T08:47:18.617Z</time>
      </trkpt>
      <trkpt lat="45.00768" lon="5.46802">
        <ele>1116.514</ele>
        <time>2012-08-03T08:47:23.423Z</time>
      </trkpt>
      <trkpt lat="45.00758" lon="5.46804">
        <ele>1116.617</ele>
        <time>2012-08-03T08:47:28.441Z</time>
      </trkpt>
      <trkpt lat="45.0075" lon="5.46811">
        <ele>1116.698</ele>
        <time>2012-08-03T08:47:33.308Z</time>
      </trkpt>
      <trkpt lat="45.00739" lon="5.4681">
        <ele>1116.729</ele>
        <time>2012-08-03T08:47:38.705Z</time>
      </trkpt>
      <trkpt lat="45.00729" lon="5.46809">
        <ele>1116.177</ele>
        <time>2012-08-03T08:47:43.904Z</time>
      </trkpt>
      <trkpt lat="45.00719" lon="5.46807">
        <ele>1114.315</ele>
        <time>2012-08-03T08:47:49.512Z</time>
      </trkpt>
      <trkpt lat="45.00711" lon="5.468">
        <ele>1111.751</ele>
        <time>2012-08-03T08:47:54.670Z</time>
      </trkpt>
      <trkpt lat="45.00701" lon="5.468">
        <ele>1109.939</ele>
        <time>2012-08-03T08:48:00.027Z</time>
      </trkpt>
      <trkpt lat="45.00691" lon="5.468">
        <ele>1109.307</ele>
        <time>2012-08-03T08:48:05.906Z</time>
      </trkpt>
      <trkpt lat="45.00681" lon="5.46798">
        <ele>1109.901</ele>
        <time>2012-08-03T08:48:12.024Z</time>
      </trkpt>
      <trkpt lat="45.00672" lon="5.46797">
        <ele>1111.689</ele>
        <time>2012-08-03T08:48:17.388Z</time>
      </trkpt>
      <trkpt lat="45.00661" lon="5.46798">
        <ele>1113.812</ele>
        <time>2012-08-03T08:48:23.163Z</time>
      </trkpt>
      <trkpt lat="45.00652" lon="5.46799">
        <ele>1115.431</ele>
        <time>2012-08-03T08:48:28.142Z</time>
      </trkpt>
      <trkpt lat="45.00643" lon="5.46798">
        <ele>1116.438</ele>
        <time>2012-08-03T08:48:33.163Z</time>
      </trkpt>
      <trkpt lat="45.00633" lon="5.46802">
        <ele>1117.286</ele>
        <time>2012-08-03T08:48:38.530Z</time>
      </trkpt>
      <trkpt lat="45.00623" lon="5.46805">
        <ele>1118.405</ele>
        <time>2012-08-03T08:48:43.593Z</time>
      </trkpt>
      <trkpt lat="45.00612" lon="5.4681">
        <ele>1119.558</ele>
        <time>2012-08-03T08:48:49.474Z</time>
      </trkpt>
      <trkpt lat="45.00603" lon="5.46817">
        <ele>1120.223</ele>
        <time>2012-08-03T08:48:55.001Z</time>
      </trkpt>
      <trkpt lat="45.00594" lon="5.46822">
        <ele>1120.278</ele>
        <time>2012-08-03T08:48:59.613Z</time>
      </trkpt>
      <trkpt lat="45.00584" lon="5.46824">
        <ele>1119.991</ele>
        <time>2012-08-03T08:49:04.437Z</time>
      </trkpt>
      <trkpt lat="45.00575" lon="5.46819">
        <ele>1119.621</ele>
        <time>2012-08-03T08:49:09.111Z</time>
      </trkpt>
      <trkpt lat="45.00566" lon="5.46813">
        <ele>1119.169</ele>
        <time>2012-08-03T08:49:13.830Z</time>
      </trkpt>
      <trkpt lat="45.00556" lon="5.4681">
        <ele>1118.796</ele>
        <time>2012-08-03T08:49:18.887Z</time>
      </trkpt>
      <trkpt lat="45.00546" lon="5.46806">
        <ele>1118.645</ele>
        <time>2012-08-03T08:49:23.708Z</time>
      </trkpt>
      <trkpt lat="45.00536" lon="5.46799">
        <ele>1118.637</ele>
        <time>2012-08-03T08:49:28.944Z</time>
      </trkpt>
      <trkpt lat="45.00528" lon="5.46793">
        <ele>1119.227</ele>
        <time>2012-08-03T08:49:33.407Z</time>
      </trkpt>
      <trkpt lat="45.00518" lon="5.46792">
        <ele>1121.112</ele>
        <time>2012-08-03T08:49:38.440Z</time>
      </trkpt>
      <trkpt lat="45.00508" lon="5.46798">
        <ele>1123.957</ele>
        <time>2012-08-03T08:49:43.441Z</time>
      </trkpt>
      <trkpt lat="45.00501" lon="5.46808">
        <ele>1126.625</ele>
        <time>2012-08-03T08:49:48.872Z</time>
      </trkpt>
      <trkpt lat="45.00491" lon="5.46807">
        <ele>1128.353</ele>
        <time>2012-08-03T08:49:54.321Z</time>
      </trkpt>
      <trkpt lat="45.00481" lon="5.4681">
        <ele>1129.445</ele>
        <time>2012-08-03T08:49:59.597Z</time>
      </trkpt>
      <trkpt lat="45.0047" lon="5.46804">
        <ele>1130.541</ele>
        <time>2012-08-03T08:50:06.284Z</time>
      </trkpt>
      <trkpt lat="45.0046" lon="5.468">
        <ele>1131.469</ele>
        <time>2012-08-03T08:50:12.687Z</time>
      </trkpt>
      <trkpt lat="45.00451" lon="5.46795">
        <ele>1131.855</ele>
        <time>2012-08-03T08:50:18.663Z</time>
      </trkpt>
      <trkpt lat="45.00442" lon="5.46789">
        <ele>1132.156</ele>
        <time>2012-08-03T08:50:24.433Z</time>
      </trkpt>
      <trkpt lat="45.00435" lon="5.4678">
        <ele>1133.338</ele>
        <time>2012-08-03T08:50:29.573Z</time>
      </trkpt>
      <trkpt lat="45.00425" lon="5.46777">
        <ele>1135.579</ele>
        <time>2012-08-03T08:50:35.147Z</time>
      </trkpt>
      <trkpt lat="45.00415" lon="5.46774">
        <ele>1138.013</ele>
        <time>2012-08-03T08:50:41.301Z</time>
      </trkpt>
      <trkpt lat="45.00405" lon="5.46773">
        <ele>1140.131</ele>
        <time>2012-08-03T08:50:47.017Z</time>
      </trkpt>
      <trkpt lat="45.00395" lon="5.4677">
        <ele>1142.648</ele>
        <time>2012-08-03T08:50:52.935Z</time>
      </trkpt>
      <trkpt lat="45.00386" lon="5.46766">
        <ele>1146.025</ele>
        <time>2012-08-03T08:50:57.880Z</time>
      </trkpt>
      <trkpt lat="45.00377" lon="5.46763">
        <ele>1149.465</ele>
        <time>2012-08-03T08:51:02.922Z</time>
      </trkpt>
      <trkpt lat="45.00368" lon="5.46758">
        <ele>1152.569</ele>
        <time>2012-08-03T08:51:08.241Z</time>
      </trkpt>
      <trkpt lat="45.00359" lon="5.46751">
        <ele>1155.617</ele>
        <time>2012-08-03T08:51:14.049Z</time>
      </trkpt>
      <trkpt lat="45.0035" lon="5.46747">
        <ele>1158.11</ele>
        <time>2012-08-03T08:51:19.304Z</time>
      </trkpt>
      <trkpt lat="45.00341" lon="5.46755">
        <ele>1159.511</ele>
        <time>2012-08-03T08:51:25.215Z</time>
      </trkpt>
      <trkpt lat="45.00341" lon="5.46768">
        <ele>1160.13</ele>
        <time>2012-08-03T08:51:30.469Z</time>
      </trkpt>
      <trkpt lat="45.00347" lon="5.46778">
        <ele>1160.452</ele>
        <time>2012-08-03T08:51:35.933Z</time>
      </trkpt>
      <trkpt lat="45.00355" lon="5.46785">
        <ele>1160.656</ele>
        <time>2012-08-03T08:51:40.904Z</time>
      </trkpt>
      <trkpt lat="45.00364" lon="5.46788">
        <ele>1160.718</ele>
        <time>2012-08-03T08:51:45.873Z</time>
      </trkpt>
      <trkpt lat="45.00373" lon="5.46798">
        <ele>1160.844</ele>
        <time>2012-08-03T08:51:50.890Z</time>
      </trkpt>
      <trkpt lat="45.00375" lon="5.4681">
        <ele>1161.178</ele>
        <time>2012-08-03T08:51:55.136Z</time>
      </trkpt>
      <trkpt lat="45.00385" lon="5.46815">
        <ele>1161.531</ele>
        <time>2012-08-03T08:52:00.768Z</time>
      </trkpt>
      <trkpt lat="45.00395" lon="5.46815">
        <ele>1161.701</ele>
        <time>2012-08-03T08:52:06.148Z</time>
      </trkpt>
      <trkpt lat="45.00405" lon="5.46818">
        <ele>1161.867</ele>
        <time>2012-08-03T08:52:11.955Z</time>
      </trkpt>
      <trkpt lat="45.00414" lon="5.4682">
        <ele>1162.475</ele>
        <time>2012-08-03T08:52:17.209Z</time>
      </trkpt>
      <trkpt lat="45.00423" lon="5.4683">
        <ele>1163.674</ele>
        <time>2012-08-03T08:52:23.681Z</time>
      </trkpt>
      <trkpt lat="45.00432" lon="5.46835">
        <ele>1164.934</ele>
        <time>2012-08-03T08:52:29.300Z</time>
      </trkpt>
      <trkpt lat="45.00438" lon="5.46844">
        <ele>1166.231</ele>
        <time>2012-08-03T08:52:35.598Z</time>
      </trkpt>
      <trkpt lat="45.00445" lon="5.46856">
        <ele>1167.872</ele>
        <time>2012-08-03T08:52:43.888Z</time>
      </trkpt>
      <trkpt lat="45.00452" lon="5.46867">
        <ele>1169.426</ele>
        <time>2012-08-03T08:52:50.854Z</time>
      </trkpt>
      <trkpt lat="45.00455" lon="5.46855">
        <ele>1170.937</ele>
        <time>2012-08-03T08:52:57.147Z</time>
      </trkpt>
      <trkpt lat="45.00455" lon="5.46855">
        <ele>1172.792</ele>
        <time>2012-08-03T08:53:18.153Z</time>
      </trkpt>
      <trkpt lat="45.00455" lon="5.46855">
        <ele>1174.309</ele>
        <time>2012-08-03T08:53:36.220Z</time>
      </trkpt>
      <trkpt lat="45.00463" lon="5.46881">
        <ele>1174.921</ele>
        <time>2012-08-03T08:53:56.651Z</time>
      </trkpt>
      <trkpt lat="45.00471" lon="5.46891">
        <ele>1174.95</ele>
        <time>2012-08-03T08:54:02.449Z</time>
      </trkpt>
      <trkpt lat="45.0048" lon="5.46899">
        <ele>1175.349</ele>
        <time>2012-08-03T08:54:08.315Z</time>
      </trkpt>
      <trkpt lat="45.00487" lon="5.4691">
        <ele>1177.218</ele>
        <time>2012-08-03T08:54:14.012Z</time>
      </trkpt>
      <trkpt lat="45.00494" lon="5.4692">
        <ele>1180.224</ele>
        <time>2012-08-03T08:54:19.756Z</time>
      </trkpt>
      <trkpt lat="45.005" lon="5.4693">
        <ele>1182.9</ele>
        <time>2012-08-03T08:54:24.920Z</time>
      </trkpt>
      <trkpt lat="45.00507" lon="5.46939">
        <ele>1184.449</ele>
        <time>2012-08-03T08:54:30.080Z</time>
      </trkpt>
      <trkpt lat="45.00518" lon="5.46933">
        <ele>1184.99</ele>
        <time>2012-08-03T08:54:35.471Z</time>
      </trkpt>
      <trkpt lat="45.00528" lon="5.46928">
        <ele>1185.093</ele>
        <time>2012-08-03T08:54:40.416Z</time>
      </trkpt>
      <trkpt lat="45.00538" lon="5.46935">
        <ele>1185.135</ele>
        <time>2012-08-03T08:54:45.165Z</time>
      </trkpt>
      <trkpt lat="45.00543" lon="5.46947">
        <ele>1185.019</ele>
        <time>2012-08-03T08:54:49.364Z</time>
      </trkpt>
      <trkpt lat="45.00551" lon="5.46953">
        <ele>1184.781</ele>
        <time>2012-08-03T08:54:53.092Z</time>
      </trkpt>
      <trkpt lat="45.00562" lon="5.46955">
        <ele>1184.774</ele>
        <time>2012-08-03T08:54:57.491Z</time>
      </trkpt>
      <trkpt lat="45.0057" lon="5.46964">
        <ele>1185.092</ele>
        <time>2012-08-03T08:55:01.398Z</time>
      </trkpt>
      <trkpt lat="45.00574" lon="5.46976">
        <ele>1185.472</ele>
        <time>2012-08-03T08:55:04.932Z</time>
      </trkpt>
      <trkpt lat="45.00583" lon="5.46984">
        <ele>1185.805</ele>
        <time>2012-08-03T08:55:08.770Z</time>
      </trkpt>
      <trkpt lat="45.00591" lon="5.46988">
        <ele>1186.203</ele>
        <time>2012-08-03T08:55:12.416Z</time>
      </trkpt>
      <trkpt lat="45.00601" lon="5.46992">
        <ele>1186.546</ele>
        <time>2012-08-03T08:55:16.456Z</time>
      </trkpt>
      <trkpt lat="45.00611" lon="5.46985">
        <ele>1186.69</ele>
        <time>2012-08-03T08:55:21.287Z</time>
      </trkpt>
      <trkpt lat="45.00619" lon="5.46975">
        <ele>1186.701</ele>
        <time>2012-08-03T08:55:26.325Z</time>
      </trkpt>
      <trkpt lat="45.00628" lon="5.46967">
        <ele>1186.668</ele>
        <time>2012-08-03T08:55:30.923Z</time>
      </trkpt>
      <trkpt lat="45.00634" lon="5.46958">
        <ele>1187.469</ele>
        <time>2012-08-03T08:55:35.001Z</time>
      </trkpt>
      <trkpt lat="45.0064" lon="5.46948">
        <ele>1189.893</ele>
        <time>2012-08-03T08:55:39.183Z</time>
      </trkpt>
      <trkpt lat="45.00649" lon="5.46938">
        <ele>1192.967</ele>
        <time>2012-08-03T08:55:44.315Z</time>
      </trkpt>
      <trkpt lat="45.00657" lon="5.4693">
        <ele>1195.258</ele>
        <time>2012-08-03T08:55:49.095Z</time>
      </trkpt>
      <trkpt lat="45.00666" lon="5.46928">
        <ele>1196.499</ele>
        <time>2012-08-03T08:55:53.709Z</time>
      </trkpt>
      <trkpt lat="45.00676" lon="5.46929">
        <ele>1196.918</ele>
        <time>2012-08-03T08:55:58.897Z</time>
      </trkpt>
      <trkpt lat="45.00686" lon="5.46929">
        <ele>1196.879</ele>
        <time>2012-08-03T08:56:04.855Z</time>
      </trkpt>
      <trkpt lat="45.00694" lon="5.46937">
        <ele>1196.731</ele>
        <time>2012-08-03T08:56:10.427Z</time>
      </trkpt>
      <trkpt lat="45.00703" lon="5.46946">
        <ele>1196.63</ele>
        <time>2012-08-03T08:56:16.535Z</time>
      </trkpt>
      <trkpt lat="45.0071" lon="5.46953">
        <ele>1196.597</ele>
        <time>2012-08-03T08:56:21.742Z</time>
      </trkpt>
      <trkpt lat="45.00719" lon="5.4696">
        <ele>1196.877</ele>
        <time>2012-08-03T08:56:27.470Z</time>
      </trkpt>
      <trkpt lat="45.00727" lon="5.46966">
        <ele>1197.609</ele>
        <time>2012-08-03T08:56:32.804Z</time>
      </trkpt>
      <trkpt lat="45.00736" lon="5.46969">
        <ele>1199.047</ele>
        <time>2012-08-03T08:56:37.926Z</time>
      </trkpt>
      <trkpt lat="45.00746" lon="5.4697">
        <ele>1201.476</ele>
        <time>2012-08-03T08:56:43.400Z</time>
      </trkpt>
      <trkpt lat="45.00754" lon="5.46967">
        <ele>1204.234</ele>
        <time>2012-08-03T08:56:48.646Z</time>
      </trkpt>
      <trkpt lat="45.00764" lon="5.46967">
        <ele>1206.148</ele>
        <time>2012-08-03T08:56:54.504Z</time>
      </trkpt>
      <trkpt lat="45.00773" lon="5.46964">
        <ele>1206.94</ele>
        <time>2012-08-03T08:56:59.692Z</time>
      </trkpt>
      <trkpt lat="45.00782" lon="5.46958">
        <ele>1206.99</ele>
        <time>2012-08-03T08:57:04.923Z</time>
      </trkpt>
      <trkpt lat="45.00789" lon="5.46951">
        <ele>1206.94</ele>
        <time>2012-08-03T08:57:10.011Z</time>
      </trkpt>
      <trkpt lat="45.00799" lon="5.46948">
        <ele>1207.42</ele>
        <time>2012-08-03T08:57:15.541Z</time>
      </trkpt>
      <trkpt lat="45.00806" lon="5.46955">
        <ele>1208.446</ele>
        <time>2012-08-03T08:57:20.050Z</time>
      </trkpt>
      <trkpt lat="45.00812" lon="5.46965">
        <ele>1209.771</ele>
        <time>2012-08-03T08:57:24.898Z</time>
      </trkpt>
      <trkpt lat="45.00817" lon="5.46977">
        <ele>1211.52</ele>
        <time>2012-08-03T08:57:30.034Z</time>
      </trkpt>
      <trkpt lat="45.00823" lon="5.46989">
        <ele>1213.384</ele>
        <time>2012-08-03T08:57:35.815Z</time>
      </trkpt>
      <trkpt lat="45.00827" lon="5.47002">
        <ele>1214.563</ele>
        <time>2012-08-03T08:57:41.186Z</time>
      </trkpt>
      <trkpt lat="45.00826" lon="5.47016">
        <ele>1214.919</ele>
        <time>2012-08-03T08:57:46.768Z</time>
      </trkpt>
      <trkpt lat="45.00823" lon="5.47028">
        <ele>1214.851</ele>
        <time>2012-08-03T08:57:52.175Z</time>
      </trkpt>
      <trkpt lat="45.00819" lon="5.4704">
        <ele>1214.698</ele>
        <time>2012-08-03T08:57:57.810Z</time>
      </trkpt>
      <trkpt lat="45.00813" lon="5.47052">
        <ele>1214.603</ele>
        <time>2012-08-03T08:58:03.730Z</time>
      </trkpt>
      <trkpt lat="45.00807" lon="5.47064">
        <ele>1214.851</ele>
        <time>2012-08-03T08:58:09.668Z</time>
      </trkpt>
      <trkpt lat="45.008" lon="5.47071">
        <ele>1215.853</ele>
        <time>2012-08-03T08:58:14.636Z</time>
      </trkpt>
      <trkpt lat="45.00791" lon="5.47076">
        <ele>1217.601</ele>
        <time>2012-08-03T08:58:19.539Z</time>
      </trkpt>
      <trkpt lat="45.00783" lon="5.47081">
        <ele>1220.247</ele>
        <time>2012-08-03T08:58:24.576Z</time>
      </trkpt>
      <trkpt lat="45.00773" lon="5.47086">
        <ele>1223.551</ele>
        <time>2012-08-03T08:58:29.918Z</time>
      </trkpt>
      <trkpt lat="45.00764" lon="5.47095">
        <ele>1226.11</ele>
        <time>2012-08-03T08:58:36.074Z</time>
      </trkpt>
      <trkpt lat="45.00759" lon="5.47105">
        <ele>1227.094</ele>
        <time>2012-08-03T08:58:41.269Z</time>
      </trkpt>
      <trkpt lat="45.00764" lon="5.47116">
        <ele>1227.242</ele>
        <time>2012-08-03T08:58:47.164Z</time>
      </trkpt>
      <trkpt lat="45.00775" lon="5.47117">
        <ele>1227.606</ele>
        <time>2012-08-03T08:58:53.420Z</time>
      </trkpt>
      <trkpt lat="45.00787" lon="5.47119">
        <ele>1228.487</ele>
        <time>2012-08-03T08:58:59.922Z</time>
      </trkpt>
      <trkpt lat="45.00796" lon="5.4711">
        <ele>1229.599</ele>
        <time>2012-08-03T08:59:05.807Z</time>
      </trkpt>
      <trkpt lat="45.00805" lon="5.47105">
        <ele>1230.834</ele>
        <time>2012-08-03T08:59:11.202Z</time>
      </trkpt>
      <trkpt lat="45.00813" lon="5.471">
        <ele>1232.117</ele>
        <time>2012-08-03T08:59:16.274Z</time>
      </trkpt>
      <trkpt lat="45.00823" lon="5.47096">
        <ele>1233.123</ele>
        <time>2012-08-03T08:59:21.621Z</time>
      </trkpt>
      <trkpt lat="45.00832" lon="5.47094">
        <ele>1233.653</ele>
        <time>2012-08-03T08:59:27.291Z</time>
      </trkpt>
      <trkpt lat="45.00841" lon="5.471">
        <ele>1233.764</ele>
        <time>2012-08-03T08:59:34.146Z</time>
      </trkpt>
      <trkpt lat="45.00847" lon="5.47111">
        <ele>1233.836</ele>
        <time>2012-08-03T08:59:40.722Z</time>
      </trkpt>
      <trkpt lat="45.00855" lon="5.47119">
        <ele>1234.113</ele>
        <time>2012-08-03T08:59:48.005Z</time>
      </trkpt>
      <trkpt lat="45.00865" lon="5.47125">
        <ele>1234.716</ele>
        <time>2012-08-03T08:59:54.809Z</time>
      </trkpt>
      <trkpt lat="45.00874" lon="5.47129">
        <ele>1235.741</ele>
        <time>2012-08-03T09:00:00.747Z</time>
      </trkpt>
      <trkpt lat="45.00885" lon="5.47134">
        <ele>1237.01</ele>
        <time>2012-08-03T09:00:06.877Z</time>
      </trkpt>
      <trkpt lat="45.00896" lon="5.47135">
        <ele>1238.067</ele>
        <time>2012-08-03T09:00:12.427Z</time>
      </trkpt>
      <trkpt lat="45.00904" lon="5.47128">
        <ele>1238.638</ele>
        <time>2012-08-03T09:00:17.272Z</time>
      </trkpt>
      <trkpt lat="45.00912" lon="5.47113">
        <ele>1238.766</ele>
        <time>2012-08-03T09:00:23.912Z</time>
      </trkpt>
      <trkpt lat="45.00918" lon="5.47102">
        <ele>1238.147</ele>
        <time>2012-08-03T09:00:29.267Z</time>
      </trkpt>
      <trkpt lat="45.00924" lon="5.47092">
        <ele>1236.621</ele>
        <time>2012-08-03T09:00:34.676Z</time>
      </trkpt>
      <trkpt lat="45.0093" lon="5.47079">
        <ele>1235.097</ele>
        <time>2012-08-03T09:00:40.880Z</time>
      </trkpt>
      <trkpt lat="45.00936" lon="5.47067">
        <ele>1234.386</ele>
        <time>2012-08-03T09:00:46.837Z</time>
      </trkpt>
      <trkpt lat="45.00944" lon="5.47058">
        <ele>1234.424</ele>
        <time>2012-08-03T09:00:52.671Z</time>
      </trkpt>
      <trkpt lat="45.00953" lon="5.47049">
        <ele>1235.187</ele>
        <time>2012-08-03T09:00:59.134Z</time>
      </trkpt>
      <trkpt lat="45.00961" lon="5.47043">
        <ele>1237.23</ele>
        <time>2012-08-03T09:01:05.040Z</time>
      </trkpt>
      <trkpt lat="45.00969" lon="5.47034">
        <ele>1240.913</ele>
        <time>2012-08-03T09:01:11.245Z</time>
      </trkpt>
      <trkpt lat="45.00978" lon="5.47028">
        <ele>1245.092</ele>
        <time>2012-08-03T09:01:17.340Z</time>
      </trkpt>
      <trkpt lat="45.00986" lon="5.47022">
        <ele>1247.994</ele>
        <time>2012-08-03T09:01:22.649Z</time>
      </trkpt>
      <trkpt lat="45.00996" lon="5.47015">
        <ele>1250.09</ele>
        <time>2012-08-03T09:01:28.263Z</time>
      </trkpt>
      <trkpt lat="45.01004" lon="5.47009">
        <ele>1252.632</ele>
        <time>2012-08-03T09:01:33.295Z</time>
      </trkpt>
      <trkpt lat="45.01013" lon="5.47005">
        <ele>1254.913</ele>
        <time>2012-08-03T09:01:38.515Z</time>
      </trkpt>
      <trkpt lat="45.01022" lon="5.46996">
        <ele>1255.905</ele>
        <time>2012-08-03T09:01:44.655Z</time>
      </trkpt>
      <trkpt lat="45.01031" lon="5.46989">
        <ele>1256</ele>
        <time>2012-08-03T09:01:50.263Z</time>
      </trkpt>
      <trkpt lat="45.01039" lon="5.46982">
        <ele>1255.789</ele>
        <time>2012-08-03T09:01:56.348Z</time>
      </trkpt>
      <trkpt lat="45.01049" lon="5.46981">
        <ele>1255.604</ele>
        <time>2012-08-03T09:02:02.516Z</time>
      </trkpt>
      <trkpt lat="45.0106" lon="5.46981">
        <ele>1255.524</ele>
        <time>2012-08-03T09:02:08.357Z</time>
      </trkpt>
      <trkpt lat="45.0107" lon="5.46982">
        <ele>1255.517</ele>
        <time>2012-08-03T09:02:13.952Z</time>
      </trkpt>
      <trkpt lat="45.0108" lon="5.46982">
        <ele>1255.535</ele>
        <time>2012-08-03T09:02:19.572Z</time>
      </trkpt>
      <trkpt lat="45.01089" lon="5.46988">
        <ele>1255.688</ele>
        <time>2012-08-03T09:02:25.259Z</time>
      </trkpt>
      <trkpt lat="45.01096" lon="5.46998">
        <ele>1256.331</ele>
        <time>2012-08-03T09:02:31.283Z</time>
      </trkpt>
      <trkpt lat="45.01105" lon="5.46995">
        <ele>1257.835</ele>
        <time>2012-08-03T09:02:36.574Z</time>
      </trkpt>
      <trkpt lat="45.01113" lon="5.46988">
        <ele>1259.965</ele>
        <time>2012-08-03T09:02:41.688Z</time>
      </trkpt>
      <trkpt lat="45.01121" lon="5.4698">
        <ele>1261.809</ele>
        <time>2012-08-03T09:02:47.165Z</time>
      </trkpt>
      <trkpt lat="45.01128" lon="5.46971">
        <ele>1262.727</ele>
        <time>2012-08-03T09:02:52.920Z</time>
      </trkpt>
      <trkpt lat="45.01138" lon="5.46971">
        <ele>1262.892</ele>
        <time>2012-08-03T09:02:58.817Z</time>
      </trkpt>
      <trkpt lat="45.01145" lon="5.46979">
        <ele>1262.754</ele>
        <time>2012-08-03T09:03:04.127Z</time>
      </trkpt>
      <trkpt lat="45.01151" lon="5.46988">
        <ele>1262.604</ele>
        <time>2012-08-03T09:03:09.378Z</time>
      </trkpt>
      <trkpt lat="45.01161" lon="5.46989">
        <ele>1262.53</ele>
        <time>2012-08-03T09:03:14.610Z</time>
      </trkpt>
      <trkpt lat="45.0117" lon="5.4699">
        <ele>1262.517</ele>
        <time>2012-08-03T09:03:19.925Z</time>
      </trkpt>
      <trkpt lat="45.0118" lon="5.4699">
        <ele>1262.529</ele>
        <time>2012-08-03T09:03:25.746Z</time>
      </trkpt>
      <trkpt lat="45.0119" lon="5.46992">
        <ele>1262.956</ele>
        <time>2012-08-03T09:03:31.870Z</time>
      </trkpt>
      <trkpt lat="45.012" lon="5.46994">
        <ele>1264.041</ele>
        <time>2012-08-03T09:03:37.663Z</time>
      </trkpt>
      <trkpt lat="45.0121" lon="5.46997">
        <ele>1265.289</ele>
        <time>2012-08-03T09:03:42.922Z</time>
      </trkpt>
      <trkpt lat="45.01219" lon="5.47">
        <ele>1266.312</ele>
        <time>2012-08-03T09:03:47.901Z</time>
      </trkpt>
      <trkpt lat="45.0123" lon="5.47">
        <ele>1267.119</ele>
        <time>2012-08-03T09:03:53.341Z</time>
      </trkpt>
      <trkpt lat="45.0124" lon="5.46998">
        <ele>1267.574</ele>
        <time>2012-08-03T09:03:58.556Z</time>
      </trkpt>
      <trkpt lat="45.01249" lon="5.46997">
        <ele>1267.685</ele>
        <time>2012-08-03T09:04:03.105Z</time>
      </trkpt>
      <trkpt lat="45.01258" lon="5.46997">
        <ele>1267.501</ele>
        <time>2012-08-03T09:04:07.683Z</time>
      </trkpt>
      <trkpt lat="45.01266" lon="5.47004">
        <ele>1267.075</ele>
        <time>2012-08-03T09:04:12.795Z</time>
      </trkpt>
      <trkpt lat="45.01276" lon="5.4701">
        <ele>1266.531</ele>
        <time>2012-08-03T09:04:18.910Z</time>
      </trkpt>
      <trkpt lat="45.01286" lon="5.47014">
        <ele>1265.987</ele>
        <time>2012-08-03T09:04:25.300Z</time>
      </trkpt>
      <trkpt lat="45.01296" lon="5.47017">
        <ele>1265.595</ele>
        <time>2012-08-03T09:04:30.452Z</time>
      </trkpt>
      <trkpt lat="45.01305" lon="5.47021">
        <ele>1265.455</ele>
        <time>2012-08-03T09:04:35.770Z</time>
      </trkpt>
      <trkpt lat="45.01314" lon="5.47026">
        <ele>1265.462</ele>
        <time>2012-08-03T09:04:41.333Z</time>
      </trkpt>
      <trkpt lat="45.01321" lon="5.47035">
        <ele>1266.335</ele>
        <time>2012-08-03T09:04:47.533Z</time>
      </trkpt>
      <trkpt lat="45.01329" lon="5.47044">
        <ele>1268.803</ele>
        <time>2012-08-03T09:04:54.080Z</time>
      </trkpt>
      <trkpt lat="45.01338" lon="5.47052">
        <ele>1271.751</ele>
        <time>2012-08-03T09:05:00.338Z</time>
      </trkpt>
      <trkpt lat="45.01346" lon="5.47058">
        <ele>1273.54</ele>
        <time>2012-08-03T09:05:06.443Z</time>
      </trkpt>
      <trkpt lat="45.01352" lon="5.47068">
        <ele>1274.046</ele>
        <time>2012-08-03T09:05:12.880Z</time>
      </trkpt>
      <trkpt lat="45.01362" lon="5.47071">
        <ele>1273.917</ele>
        <time>2012-08-03T09:05:21.064Z</time>
      </trkpt>
      <trkpt lat="45.01368" lon="5.4706">
        <ele>1273.675</ele>
        <time>2012-08-03T09:05:30.032Z</time>
      </trkpt>
      <trkpt lat="45.01368" lon="5.4706">
        <ele>1273.348</ele>
        <time>2012-08-03T09:05:50.925Z</time>
      </trkpt>
      <trkpt lat="45.01368" lon="5.4706">
        <ele>1272.786</ele>
        <time>2012-08-03T09:06:15.956Z</time>
      </trkpt>
      <trkpt lat="45.01386" lon="5.47042">
        <ele>1272.189</ele>
        <time>2012-08-03T09:06:44.701Z</time>
      </trkpt>
      <trkpt lat="45.01389" lon="5.47029">
        <ele>1271.901</ele>
        <time>2012-08-03T09:06:52.117Z</time>
      </trkpt>
      <trkpt lat="45.01389" lon="5.47029">
        <ele>1271.938</ele>
        <time>2012-08-03T09:07:10.923Z</time>
      </trkpt>
      <trkpt lat="45.01389" lon="5.47029">
        <ele>1272.094</ele>
        <time>2012-08-03T09:21:11.967Z</time>
      </trkpt>
      <trkpt lat="45.01408" lon="5.47012">
        <ele>1272.2</ele>
        <time>2012-08-03T09:21:40.177Z</time>
      </trkpt>
      <trkpt lat="45.01417" lon="5.47008">
        <ele>1274.353</ele>
        <time>2012-08-03T09:21:47.369Z</time>
      </trkpt>
      <trkpt lat="45.01427" lon="5.47006">
        <ele>1280.003</ele>
        <time>2012-08-03T09:21:55.095Z</time>
      </trkpt>
      <trkpt lat="45.01436" lon="5.47001">
        <ele>1286.288</ele>
        <time>2012-08-03T09:22:04.403Z</time>
      </trkpt>
      <trkpt lat="45.01445" lon="5.47004">
        <ele>1290.192</ele>
        <time>2012-08-03T09:22:13.143Z</time>
      </trkpt>
      <trkpt lat="45.01445" lon="5.47004">
        <ele>1291.87</ele>
        <time>2012-08-03T09:22:15.984Z</time>
      </trkpt>
      <trkpt lat="45.01445" lon="5.47004">
        <ele>1292.157</ele>
        <time>2012-08-03T09:22:20.327Z</time>
      </trkpt>
      <trkpt lat="45.01455" lon="5.46983">
        <ele>1291.895</ele>
        <time>2012-08-03T09:22:35.390Z</time>
      </trkpt>
      <trkpt lat="45.01464" lon="5.46973">
        <ele>1291.893</ele>
        <time>2012-08-03T09:22:39.049Z</time>
      </trkpt>
      <trkpt lat="45.01472" lon="5.46961">
        <ele>1292.892</ele>
        <time>2012-08-03T09:22:42.082Z</time>
      </trkpt>
      <trkpt lat="45.01481" lon="5.4695">
        <ele>1294.689</ele>
        <time>2012-08-03T09:22:44.861Z</time>
      </trkpt>
      <trkpt lat="45.01491" lon="5.46947">
        <ele>1295.617</ele>
        <time>2012-08-03T09:22:47.146Z</time>
      </trkpt>
      <trkpt lat="45.01491" lon="5.46947">
        <ele>1295.002</ele>
        <time>2012-08-03T09:23:02.130Z</time>
      </trkpt>
      <trkpt lat="45.01491" lon="5.46947">
        <ele>1294.137</ele>
        <time>2012-08-03T09:23:57.782Z</time>
      </trkpt>
      <trkpt lat="45.01507" lon="5.46926">
        <ele>1293.884</ele>
        <time>2012-08-03T09:24:15.178Z</time>
      </trkpt>
      <trkpt lat="45.01519" lon="5.46919">
        <ele>1293.856</ele>
        <time>2012-08-03T09:24:22.496Z</time>
      </trkpt>
      <trkpt lat="45.0153" lon="5.46914">
        <ele>1293.611</ele>
        <time>2012-08-03T09:24:26.363Z</time>
      </trkpt>
      <trkpt lat="45.01537" lon="5.46902">
        <ele>1292.679</ele>
        <time>2012-08-03T09:24:29.654Z</time>
      </trkpt>
      <trkpt lat="45.01543" lon="5.46891">
        <ele>1291.141</ele>
        <time>2012-08-03T09:24:32.584Z</time>
      </trkpt>
      <trkpt lat="45.01554" lon="5.46882">
        <ele>1289.698</ele>
        <time>2012-08-03T09:24:35.957Z</time>
      </trkpt>
      <trkpt lat="45.01564" lon="5.46875">
        <ele>1288.657</ele>
        <time>2012-08-03T09:24:39.811Z</time>
      </trkpt>
      <trkpt lat="45.01575" lon="5.46867">
        <ele>1287.752</ele>
        <time>2012-08-03T09:24:43.879Z</time>
      </trkpt>
      <trkpt lat="45.01582" lon="5.46875">
        <ele>1286.975</ele>
        <time>2012-08-03T09:24:46.934Z</time>
      </trkpt>
      <trkpt lat="45.01582" lon="5.46875">
        <ele>1286.51</ele>
        <time>2012-08-03T09:24:51.943Z</time>
      </trkpt>
      <trkpt lat="45.01582" lon="5.46875">
        <ele>1286.244</ele>
        <time>2012-08-03T09:25:47.128Z</time>
      </trkpt>
      <trkpt lat="45.01601" lon="5.46861">
        <ele>1285.92</ele>
        <time>2012-08-03T09:26:00.297Z</time>
      </trkpt>
      <trkpt lat="45.01609" lon="5.46876">
        <ele>1285.611</ele>
        <time>2012-08-03T09:26:04.820Z</time>
      </trkpt>
      <trkpt lat="45.01613" lon="5.46864">
        <ele>1285.4</ele>
        <time>2012-08-03T09:26:08.168Z</time>
      </trkpt>
      <trkpt lat="45.01617" lon="5.4685">
        <ele>1284.722</ele>
        <time>2012-08-03T09:26:11.376Z</time>
      </trkpt>
      <trkpt lat="45.01624" lon="5.46839">
        <ele>1281.375</ele>
        <time>2012-08-03T09:26:14.169Z</time>
      </trkpt>
      <trkpt lat="45.01639" lon="5.46825">
        <ele>1274.982</ele>
        <time>2012-08-03T09:26:18.472Z</time>
      </trkpt>
      <trkpt lat="45.0165" lon="5.46811">
        <ele>1268.78</ele>
        <time>2012-08-03T09:26:21.991Z</time>
      </trkpt>
      <trkpt lat="45.01659" lon="5.46803">
        <ele>1265.169</ele>
        <time>2012-08-03T09:26:24.618Z</time>
      </trkpt>
      <trkpt lat="45.01668" lon="5.46792">
        <ele>1263.807</ele>
        <time>2012-08-03T09:26:28.034Z</time>
      </trkpt>
      <trkpt lat="45.01675" lon="5.46782">
        <ele>1263.811</ele>
        <time>2012-08-03T09:26:31.470Z</time>
      </trkpt>
      <trkpt lat="45.0168" lon="5.46771">
        <ele>1263.65</ele>
        <time>2012-08-03T09:26:34.548Z</time>
      </trkpt>
      <trkpt lat="45.01689" lon="5.46756">
        <ele>1262.365</ele>
        <time>2012-08-03T09:26:38.515Z</time>
      </trkpt>
      <trkpt lat="45.01695" lon="5.46747">
        <ele>1260.636</ele>
        <time>2012-08-03T09:26:40.819Z</time>
      </trkpt>
      <trkpt lat="45.01701" lon="5.46736">
        <ele>1259.564</ele>
        <time>2012-08-03T09:26:43.106Z</time>
      </trkpt>
      <trkpt lat="45.01701" lon="5.46736">
        <ele>1259.052</ele>
        <time>2012-08-03T09:26:56.154Z</time>
      </trkpt>
      <trkpt lat="45.01701" lon="5.46736">
        <ele>1258.605</ele>
        <time>2012-08-03T09:27:02.726Z</time>
      </trkpt>
      <trkpt lat="45.01705" lon="5.4672">
        <ele>1258.217</ele>
        <time>2012-08-03T09:27:09.328Z</time>
      </trkpt>
      <trkpt lat="45.0171" lon="5.46709">
        <ele>1258.052</ele>
        <time>2012-08-03T09:27:12.043Z</time>
      </trkpt>
      <trkpt lat="45.01722" lon="5.467">
        <ele>1257.968</ele>
        <time>2012-08-03T09:27:15.553Z</time>
      </trkpt>
      <trkpt lat="45.01731" lon="5.46686">
        <ele>1257.537</ele>
        <time>2012-08-03T09:27:18.788Z</time>
      </trkpt>
      <trkpt lat="45.01738" lon="5.46672">
        <ele>1256.503</ele>
        <time>2012-08-03T09:27:21.465Z</time>
      </trkpt>
      <trkpt lat="45.0175" lon="5.46664">
        <ele>1255.17</ele>
        <time>2012-08-03T09:27:24.290Z</time>
      </trkpt>
      <trkpt lat="45.01761" lon="5.46653">
        <ele>1253.93</ele>
        <time>2012-08-03T09:27:27.170Z</time>
      </trkpt>
      <trkpt lat="45.01772" lon="5.46634">
        <ele>1252.707</ele>
        <time>2012-08-03T09:27:30.836Z</time>
      </trkpt>
      <trkpt lat="45.01781" lon="5.46621">
        <ele>1251.49</ele>
        <time>2012-08-03T09:27:33.344Z</time>
      </trkpt>
      <trkpt lat="45.01789" lon="5.46604">
        <ele>1250.509</ele>
        <time>2012-08-03T09:27:36.199Z</time>
      </trkpt>
      <trkpt lat="45.01795" lon="5.46588">
        <ele>1249.862</ele>
        <time>2012-08-03T09:27:38.734Z</time>
      </trkpt>
      <trkpt lat="45.01802" lon="5.46572">
        <ele>1249.241</ele>
        <time>2012-08-03T09:27:41.207Z</time>
      </trkpt>
      <trkpt lat="45.01806" lon="5.46558">
        <ele>1248.446</ele>
        <time>2012-08-03T09:27:43.327Z</time>
      </trkpt>
      <trkpt lat="45.01809" lon="5.46546">
        <ele>1247.749</ele>
        <time>2012-08-03T09:27:45.116Z</time>
      </trkpt>
      <trkpt lat="45.01817" lon="5.46513">
        <ele>1247.451</ele>
        <time>2012-08-03T09:27:49.810Z</time>
      </trkpt>
      <trkpt lat="45.0182" lon="5.46491">
        <ele>1247.288</ele>
        <time>2012-08-03T09:27:53.087Z</time>
      </trkpt>
      <trkpt lat="45.01821" lon="5.46477">
        <ele>1246.855</ele>
        <time>2012-08-03T09:27:55.503Z</time>
      </trkpt>
      <trkpt lat="45.01816" lon="5.46463">
        <ele>1245.906</ele>
        <time>2012-08-03T09:27:58.257Z</time>
      </trkpt>
      <trkpt lat="45.01811" lon="5.46449">
        <ele>1243.975</ele>
        <time>2012-08-03T09:28:02.009Z</time>
      </trkpt>
      <trkpt lat="45.01811" lon="5.46449">
        <ele>1241.237</ele>
        <time>2012-08-03T09:28:14.950Z</time>
      </trkpt>
      <trkpt lat="45.01811" lon="5.46449">
        <ele>1239.037</ele>
        <time>2012-08-03T09:28:17.922Z</time>
      </trkpt>
      <trkpt lat="45.0183" lon="5.46439">
        <ele>1238.163</ele>
        <time>2012-08-03T09:28:36.498Z</time>
      </trkpt>
      <trkpt lat="45.0184" lon="5.46438">
        <ele>1238.133</ele>
        <time>2012-08-03T09:28:41.088Z</time>
      </trkpt>
      <trkpt lat="45.0184" lon="5.46438">
        <ele>1238.101</ele>
        <time>2012-08-03T09:29:01.180Z</time>
      </trkpt>
      <trkpt lat="45.0184" lon="5.46438">
        <ele>1237.603</ele>
        <time>2012-08-03T09:35:06.773Z</time>
      </trkpt>
      <trkpt lat="45.01865" lon="5.4643">
        <ele>1236.972</ele>
        <time>2012-08-03T09:35:29.139Z</time>
      </trkpt>
      <trkpt lat="45.01865" lon="5.4643">
        <ele>1236.478</ele>
        <time>2012-08-03T09:35:41.042Z</time>
      </trkpt>
      <trkpt lat="45.01865" lon="5.4643">
        <ele>1235.93</ele>
        <time>2012-08-03T09:42:31.513Z</time>
      </trkpt>
      <trkpt lat="45.01842" lon="5.46416">
        <ele>1235.376</ele>
        <time>2012-08-03T09:42:58.060Z</time>
      </trkpt>
      <trkpt lat="45.01852" lon="5.46416">
        <ele>1235.047</ele>
        <time>2012-08-03T09:43:03.144Z</time>
      </trkpt>
      <trkpt lat="45.01852" lon="5.46416">
        <ele>1234.76</ele>
        <time>2012-08-03T09:43:29.176Z</time>
      </trkpt>
      <trkpt lat="45.01852" lon="5.46416">
        <ele>1234.232</ele>
        <time>2012-08-03T09:43:40.536Z</time>
      </trkpt>
      <trkpt lat="45.01874" lon="5.46427">
        <ele>1233.646</ele>
        <time>2012-08-03T09:44:11.553Z</time>
      </trkpt>
      <trkpt lat="45.01877" lon="5.46439">
        <ele>1231.552</ele>
        <time>2012-08-03T09:44:17.291Z</time>
      </trkpt>
      <trkpt lat="45.01877" lon="5.46454">
        <ele>1225.773</ele>
        <time>2012-08-03T09:44:20.601Z</time>
      </trkpt>
      <trkpt lat="45.01874" lon="5.46438">
        <ele>1216.969</ele>
        <time>2012-08-03T09:44:23.944Z</time>
      </trkpt>
      <trkpt lat="45.01874" lon="5.46438">
        <ele>1208.586</ele>
        <time>2012-08-03T09:44:33.961Z</time>
      </trkpt>
      <trkpt lat="45.01874" lon="5.46438">
        <ele>1203.548</ele>
        <time>2012-08-03T09:48:06.428Z</time>
      </trkpt>
      <trkpt lat="45.01886" lon="5.46418">
        <ele>1202.147</ele>
        <time>2012-08-03T09:48:30.408Z</time>
      </trkpt>
      <trkpt lat="45.01896" lon="5.46422">
        <ele>1202.391</ele>
        <time>2012-08-03T09:48:39.055Z</time>
      </trkpt>
      <trkpt lat="45.01887" lon="5.46427">
        <ele>1202.718</ele>
        <time>2012-08-03T09:48:46.984Z</time>
      </trkpt>
      <trkpt lat="45.01887" lon="5.46427">
        <ele>1202.579</ele>
        <time>2012-08-03T09:48:58.171Z</time>
      </trkpt>
      <trkpt lat="45.01887" lon="5.46427">
        <ele>1202.034</ele>
        <time>2012-08-03T09:49:22.732Z</time>
      </trkpt>
      <trkpt lat="45.01913" lon="5.46424">
        <ele>1201.094</ele>
        <time>2012-08-03T09:49:51.459Z</time>
      </trkpt>
      <trkpt lat="45.01923" lon="5.46426">
        <ele>1199.588</ele>
        <time>2012-08-03T09:49:58.004Z</time>
      </trkpt>
      <trkpt lat="45.01936" lon="5.46427">
        <ele>1197.854</ele>
        <time>2012-08-03T09:50:07.193Z</time>
      </trkpt>
      <trkpt lat="45.01939" lon="5.46415">
        <ele>1196.703</ele>
        <time>2012-08-03T09:50:14.017Z</time>
      </trkpt>
      <trkpt lat="45.01947" lon="5.4641">
        <ele>1194.397</ele>
        <time>2012-08-03T09:50:20.722Z</time>
      </trkpt>
      <trkpt lat="45.01957" lon="5.46406">
        <ele>1188.855</ele>
        <time>2012-08-03T09:50:26.615Z</time>
      </trkpt>
      <trkpt lat="45.01966" lon="5.46399">
        <ele>1181.971</ele>
        <time>2012-08-03T09:50:31.191Z</time>
      </trkpt>
      <trkpt lat="45.01975" lon="5.46393">
        <ele>1177.053</ele>
        <time>2012-08-03T09:50:34.829Z</time>
      </trkpt>
      <trkpt lat="45.01984" lon="5.46383">
        <ele>1174.625</ele>
        <time>2012-08-03T09:50:38.955Z</time>
      </trkpt>
      <trkpt lat="45.01994" lon="5.46378">
        <ele>1173.551</ele>
        <time>2012-08-03T09:50:42.389Z</time>
      </trkpt>
      <trkpt lat="45.02004" lon="5.46379">
        <ele>1172.626</ele>
        <time>2012-08-03T09:50:45.796Z</time>
      </trkpt>
      <trkpt lat="45.02014" lon="5.4638">
        <ele>1170.757</ele>
        <time>2012-08-03T09:50:49.173Z</time>
      </trkpt>
      <trkpt lat="45.02023" lon="5.46383">
        <ele>1167.665</ele>
        <time>2012-08-03T09:50:52.737Z</time>
      </trkpt>
      <trkpt lat="45.02032" lon="5.46381">
        <ele>1164.788</ele>
        <time>2012-08-03T09:50:56.586Z</time>
      </trkpt>
      <trkpt lat="45.02041" lon="5.46375">
        <ele>1162.399</ele>
        <time>2012-08-03T09:51:00.754Z</time>
      </trkpt>
      <trkpt lat="45.0205" lon="5.4637">
        <ele>1159.631</ele>
        <time>2012-08-03T09:51:05.092Z</time>
      </trkpt>
      <trkpt lat="45.02058" lon="5.46366">
        <ele>1157.125</ele>
        <time>2012-08-03T09:51:09.723Z</time>
      </trkpt>
      <trkpt lat="45.02071" lon="5.46357">
        <ele>1155.497</ele>
        <time>2012-08-03T09:51:17.834Z</time>
      </trkpt>
      <trkpt lat="45.02071" lon="5.46344">
        <ele>1153.369</ele>
        <time>2012-08-03T09:51:22.772Z</time>
      </trkpt>
      <trkpt lat="45.02063" lon="5.46336">
        <ele>1150.164</ele>
        <time>2012-08-03T09:51:27.790Z</time>
      </trkpt>
      <trkpt lat="45.02053" lon="5.46329">
        <ele>1146.703</ele>
        <time>2012-08-03T09:51:32.239Z</time>
      </trkpt>
      <trkpt lat="45.02045" lon="5.46321">
        <ele>1142.213</ele>
        <time>2012-08-03T09:51:36.171Z</time>
      </trkpt>
      <trkpt lat="45.02045" lon="5.46321">
        <ele>1136.317</ele>
        <time>2012-08-03T09:52:03.003Z</time>
      </trkpt>
      <trkpt lat="45.02045" lon="5.46321">
        <ele>1131.642</ele>
        <time>2012-08-03T09:52:20.561Z</time>
      </trkpt>
      <trkpt lat="45.02029" lon="5.46311">
        <ele>1129.392</ele>
        <time>2012-08-03T09:52:33.910Z</time>
      </trkpt>
      <trkpt lat="45.02021" lon="5.463">
        <ele>1128.264</ele>
        <time>2012-08-03T09:52:38.615Z</time>
      </trkpt>
      <trkpt lat="45.02013" lon="5.46293">
        <ele>1126.399</ele>
        <time>2012-08-03T09:52:42.764Z</time>
      </trkpt>
      <trkpt lat="45.02012" lon="5.4628">
        <ele>1122.047</ele>
        <time>2012-08-03T09:52:47.326Z</time>
      </trkpt>
      <trkpt lat="45.0202" lon="5.46274">
        <ele>1115.855</ele>
        <time>2012-08-03T09:52:52.563Z</time>
      </trkpt>
      <trkpt lat="45.0203" lon="5.46275">
        <ele>1109.461</ele>
        <time>2012-08-03T09:52:57.630Z</time>
      </trkpt>
      <trkpt lat="45.02039" lon="5.46274">
        <ele>1103.284</ele>
        <time>2012-08-03T09:53:01.646Z</time>
      </trkpt>
      <trkpt lat="45.02048" lon="5.46271">
        <ele>1097.896</ele>
        <time>2012-08-03T09:53:04.528Z</time>
      </trkpt>
      <trkpt lat="45.02063" lon="5.46265">
        <ele>1093.752</ele>
        <time>2012-08-03T09:53:07.891Z</time>
      </trkpt>
      <trkpt lat="45.02072" lon="5.46261">
        <ele>1090.297</ele>
        <time>2012-08-03T09:53:09.844Z</time>
      </trkpt>
      <trkpt lat="45.02085" lon="5.46256">
        <ele>1087.304</ele>
        <time>2012-08-03T09:53:12.395Z</time>
      </trkpt>
      <trkpt lat="45.02096" lon="5.46251">
        <ele>1084.952</ele>
        <time>2012-08-03T09:53:14.649Z</time>
      </trkpt>
      <trkpt lat="45.02109" lon="5.46249">
        <ele>1083.248</ele>
        <time>2012-08-03T09:53:17.070Z</time>
      </trkpt>
      <trkpt lat="45.02123" lon="5.46247">
        <ele>1082.104</ele>
        <time>2012-08-03T09:53:19.692Z</time>
      </trkpt>
      <trkpt lat="45.02138" lon="5.46244">
        <ele>1081.315</ele>
        <time>2012-08-03T09:53:22.619Z</time>
      </trkpt>
      <trkpt lat="45.02147" lon="5.46246">
        <ele>1080.398</ele>
        <time>2012-08-03T09:53:24.631Z</time>
      </trkpt>
      <trkpt lat="45.02158" lon="5.46244">
        <ele>1079.124</ele>
        <time>2012-08-03T09:53:27.725Z</time>
      </trkpt>
      <trkpt lat="45.02166" lon="5.46237">
        <ele>1077.363</ele>
        <time>2012-08-03T09:53:30.452Z</time>
      </trkpt>
      <trkpt lat="45.02176" lon="5.4624">
        <ele>1075.219</ele>
        <time>2012-08-03T09:53:34.377Z</time>
      </trkpt>
      <trkpt lat="45.02186" lon="5.46235">
        <ele>1072.885</ele>
        <time>2012-08-03T09:53:39.149Z</time>
      </trkpt>
      <trkpt lat="45.02195" lon="5.46226">
        <ele>1069.612</ele>
        <time>2012-08-03T09:53:43.790Z</time>
      </trkpt>
      <trkpt lat="45.022" lon="5.46212">
        <ele>1064.642</ele>
        <time>2012-08-03T09:53:48.095Z</time>
      </trkpt>
      <trkpt lat="45.02204" lon="5.462">
        <ele>1059.196</ele>
        <time>2012-08-03T09:53:51.340Z</time>
      </trkpt>
      <trkpt lat="45.0221" lon="5.46186">
        <ele>1055.017</ele>
        <time>2012-08-03T09:53:55.150Z</time>
      </trkpt>
      <trkpt lat="45.02215" lon="5.46175">
        <ele>1051.691</ele>
        <time>2012-08-03T09:53:58.069Z</time>
      </trkpt>
      <trkpt lat="45.02215" lon="5.46175">
        <ele>1048.43</ele>
        <time>2012-08-03T09:54:09.973Z</time>
      </trkpt>
      <trkpt lat="45.02215" lon="5.46175">
        <ele>1046.097</ele>
        <time>2012-08-03T09:54:16.027Z</time>
      </trkpt>
      <trkpt lat="45.02231" lon="5.46167">
        <ele>1045.133</ele>
        <time>2012-08-03T09:54:27.736Z</time>
      </trkpt>
      <trkpt lat="45.02236" lon="5.46154">
        <ele>1044.817</ele>
        <time>2012-08-03T09:54:32.014Z</time>
      </trkpt>
      <trkpt lat="45.02243" lon="5.46144">
        <ele>1044.716</ele>
        <time>2012-08-03T09:54:36.049Z</time>
      </trkpt>
      <trkpt lat="45.02252" lon="5.46139">
        <ele>1042.934</ele>
        <time>2012-08-03T09:54:39.750Z</time>
      </trkpt>
      <trkpt lat="45.02262" lon="5.46138">
        <ele>1038.156</ele>
        <time>2012-08-03T09:54:43.601Z</time>
      </trkpt>
      <trkpt lat="45.02267" lon="5.46126">
        <ele>1033.019</ele>
        <time>2012-08-03T09:54:46.843Z</time>
      </trkpt>
      <trkpt lat="45.02271" lon="5.46111">
        <ele>1029.551</ele>
        <time>2012-08-03T09:54:50.328Z</time>
      </trkpt>
      <trkpt lat="45.02278" lon="5.46103">
        <ele>1026.593</ele>
        <time>2012-08-03T09:54:53.332Z</time>
      </trkpt>
      <trkpt lat="45.02293" lon="5.46088">
        <ele>1023.879</ele>
        <time>2012-08-03T09:54:58.397Z</time>
      </trkpt>
      <trkpt lat="45.02304" lon="5.4608">
        <ele>1021.872</ele>
        <time>2012-08-03T09:55:01.539Z</time>
      </trkpt>
      <trkpt lat="45.02316" lon="5.46072">
        <ele>1020.209</ele>
        <time>2012-08-03T09:55:04.411Z</time>
      </trkpt>
      <trkpt lat="45.02326" lon="5.46062">
        <ele>1018.466</ele>
        <time>2012-08-03T09:55:06.849Z</time>
      </trkpt>
      <trkpt lat="45.0234" lon="5.46047">
        <ele>1016.15</ele>
        <time>2012-08-03T09:55:09.745Z</time>
      </trkpt>
      <trkpt lat="45.02354" lon="5.46036">
        <ele>1012.796</ele>
        <time>2012-08-03T09:55:12.164Z</time>
      </trkpt>
      <trkpt lat="45.02364" lon="5.46026">
        <ele>1008.942</ele>
        <time>2012-08-03T09:55:13.975Z</time>
      </trkpt>
      <trkpt lat="45.02375" lon="5.46013">
        <ele>1005.798</ele>
        <time>2012-08-03T09:55:16.459Z</time>
      </trkpt>
      <trkpt lat="45.02387" lon="5.46004">
        <ele>1003.722</ele>
        <time>2012-08-03T09:55:18.997Z</time>
      </trkpt>
      <trkpt lat="45.02394" lon="5.45985">
        <ele>1002.131</ele>
        <time>2012-08-03T09:55:21.899Z</time>
      </trkpt>
      <trkpt lat="45.02404" lon="5.45977">
        <ele>999.77</ele>
        <time>2012-08-03T09:55:24.026Z</time>
      </trkpt>
      <trkpt lat="45.02412" lon="5.45968">
        <ele>996.38</ele>
        <time>2012-08-03T09:55:26.036Z</time>
      </trkpt>
      <trkpt lat="45.02412" lon="5.45968">
        <ele>993.536</ele>
        <time>2012-08-03T09:55:35.154Z</time>
      </trkpt>
      <trkpt lat="45.02412" lon="5.45968">
        <ele>992.299</ele>
        <time>2012-08-03T09:55:52.011Z</time>
      </trkpt>
      <trkpt lat="45.02407" lon="5.45996">
        <ele>991.572</ele>
        <time>2012-08-03T09:56:16.916Z</time>
      </trkpt>
      <trkpt lat="45.02407" lon="5.45996">
        <ele>990.409</ele>
        <time>2012-08-03T09:56:21.044Z</time>
      </trkpt>
      <trkpt lat="45.02407" lon="5.45996">
        <ele>989.309</ele>
        <time>2012-08-03T09:56:41.616Z</time>
      </trkpt>
      <trkpt lat="45.0242" lon="5.45965">
        <ele>988.918</ele>
        <time>2012-08-03T09:57:07.916Z</time>
      </trkpt>
      <trkpt lat="45.02429" lon="5.4595">
        <ele>988.994</ele>
        <time>2012-08-03T09:57:13.549Z</time>
      </trkpt>
      <trkpt lat="45.02434" lon="5.45934">
        <ele>988.553</ele>
        <time>2012-08-03T09:57:17.396Z</time>
      </trkpt>
      <trkpt lat="45.02439" lon="5.45919">
        <ele>986.933</ele>
        <time>2012-08-03T09:57:21.178Z</time>
      </trkpt>
      <trkpt lat="45.0244" lon="5.45904">
        <ele>984.975</ele>
        <time>2012-08-03T09:57:24.961Z</time>
      </trkpt>
      <trkpt lat="45.0244" lon="5.45889">
        <ele>983.689</ele>
        <time>2012-08-03T09:57:28.675Z</time>
      </trkpt>
      <trkpt lat="45.02434" lon="5.45873">
        <ele>982.608</ele>
        <time>2012-08-03T09:57:32.710Z</time>
      </trkpt>
      <trkpt lat="45.0243" lon="5.45855">
        <ele>981.256</ele>
        <time>2012-08-03T09:57:35.496Z</time>
      </trkpt>
      <trkpt lat="45.02427" lon="5.45841">
        <ele>978.613</ele>
        <time>2012-08-03T09:57:37.310Z</time>
      </trkpt>
      <trkpt lat="45.02423" lon="5.45808">
        <ele>974.195</ele>
        <time>2012-08-03T09:57:41.219Z</time>
      </trkpt>
      <trkpt lat="45.02421" lon="5.4579">
        <ele>970.105</ele>
        <time>2012-08-03T09:57:43.726Z</time>
      </trkpt>
      <trkpt lat="45.0242" lon="5.45776">
        <ele>968.289</ele>
        <time>2012-08-03T09:57:46.759Z</time>
      </trkpt>
      <trkpt lat="45.02419" lon="5.45763">
        <ele>968.089</ele>
        <time>2012-08-03T09:57:49.498Z</time>
      </trkpt>
      <trkpt lat="45.02425" lon="5.45749">
        <ele>968.317</ele>
        <time>2012-08-03T09:57:54.595Z</time>
      </trkpt>
      <trkpt lat="45.02428" lon="5.45735">
        <ele>968.152</ele>
        <time>2012-08-03T09:58:00.011Z</time>
      </trkpt>
      <trkpt lat="45.02428" lon="5.45735">
        <ele>967.568</ele>
        <time>2012-08-03T09:58:08.150Z</time>
      </trkpt>
      <trkpt lat="45.02428" lon="5.45735">
        <ele>966.979</ele>
        <time>2012-08-03T09:58:12.104Z</time>
      </trkpt>
      <trkpt lat="45.02442" lon="5.4571">
        <ele>965.822</ele>
        <time>2012-08-03T09:58:23.604Z</time>
      </trkpt>
      <trkpt lat="45.02446" lon="5.45693">
        <ele>963.22</ele>
        <time>2012-08-03T09:58:26.830Z</time>
      </trkpt>
      <trkpt lat="45.0244" lon="5.45678">
        <ele>959.78</ele>
        <time>2012-08-03T09:58:29.988Z</time>
      </trkpt>
      <trkpt lat="45.02433" lon="5.45671">
        <ele>956.317</ele>
        <time>2012-08-03T09:58:32.352Z</time>
      </trkpt>
      <trkpt lat="45.02421" lon="5.45667">
        <ele>952.998</ele>
        <time>2012-08-03T09:58:35.466Z</time>
      </trkpt>
      <trkpt lat="45.02408" lon="5.45673">
        <ele>950.405</ele>
        <time>2012-08-03T09:58:39.454Z</time>
      </trkpt>
      <trkpt lat="45.02398" lon="5.45679">
        <ele>949.006</ele>
        <time>2012-08-03T09:58:43.422Z</time>
      </trkpt>
      <trkpt lat="45.02389" lon="5.45674">
        <ele>948.416</ele>
        <time>2012-08-03T09:58:47.402Z</time>
      </trkpt>
      <trkpt lat="45.02378" lon="5.45661">
        <ele>947.425</ele>
        <time>2012-08-03T09:58:51.719Z</time>
      </trkpt>
      <trkpt lat="45.02366" lon="5.45648">
        <ele>945.291</ele>
        <time>2012-08-03T09:58:54.900Z</time>
      </trkpt>
      <trkpt lat="45.02358" lon="5.45638">
        <ele>942.884</ele>
        <time>2012-08-03T09:58:57.118Z</time>
      </trkpt>
      <trkpt lat="45.02349" lon="5.45625">
        <ele>941.149</ele>
        <time>2012-08-03T09:58:59.747Z</time>
      </trkpt>
      <trkpt lat="45.02339" lon="5.45614">
        <ele>939.722</ele>
        <time>2012-08-03T09:59:02.524Z</time>
      </trkpt>
      <trkpt lat="45.02327" lon="5.4561">
        <ele>937.961</ele>
        <time>2012-08-03T09:59:05.252Z</time>
      </trkpt>
      <trkpt lat="45.02316" lon="5.45612">
        <ele>935.702</ele>
        <time>2012-08-03T09:59:07.787Z</time>
      </trkpt>
      <trkpt lat="45.02308" lon="5.45603">
        <ele>932.079</ele>
        <time>2012-08-03T09:59:10.105Z</time>
      </trkpt>
      <trkpt lat="45.02301" lon="5.45592">
        <ele>926.886</ele>
        <time>2012-08-03T09:59:12.360Z</time>
      </trkpt>
      <trkpt lat="45.0229" lon="5.45585">
        <ele>921.96</ele>
        <time>2012-08-03T09:59:14.801Z</time>
      </trkpt>
      <trkpt lat="45.02278" lon="5.4558">
        <ele>918.554</ele>
        <time>2012-08-03T09:59:17.309Z</time>
      </trkpt>
      <trkpt lat="45.0227" lon="5.45566">
        <ele>915.916</ele>
        <time>2012-08-03T09:59:20.035Z</time>
      </trkpt>
      <trkpt lat="45.02267" lon="5.45555">
        <ele>913.327</ele>
        <time>2012-08-03T09:59:22.078Z</time>
      </trkpt>
      <trkpt lat="45.02267" lon="5.45541">
        <ele>910.79</ele>
        <time>2012-08-03T09:59:24.706Z</time>
      </trkpt>
      <trkpt lat="45.02259" lon="5.45529">
        <ele>908.556</ele>
        <time>2012-08-03T09:59:28.154Z</time>
      </trkpt>
      <trkpt lat="45.02248" lon="5.45523">
        <ele>905.843</ele>
        <time>2012-08-03T09:59:32.360Z</time>
      </trkpt>
      <trkpt lat="45.02239" lon="5.45524">
        <ele>901.819</ele>
        <time>2012-08-03T09:59:35.561Z</time>
      </trkpt>
      <trkpt lat="45.0223" lon="5.45528">
        <ele>896.883</ele>
        <time>2012-08-03T09:59:38.571Z</time>
      </trkpt>
      <trkpt lat="45.0222" lon="5.45527">
        <ele>891.795</ele>
        <time>2012-08-03T09:59:41.997Z</time>
      </trkpt>
      <trkpt lat="45.02212" lon="5.45521">
        <ele>886.852</ele>
        <time>2012-08-03T09:59:44.978Z</time>
      </trkpt>
      <trkpt lat="45.02207" lon="5.45505">
        <ele>882.455</ele>
        <time>2012-08-03T09:59:48.867Z</time>
      </trkpt>
      <trkpt lat="45.02208" lon="5.45489">
        <ele>878.684</ele>
        <time>2012-08-03T09:59:52.872Z</time>
      </trkpt>
      <trkpt lat="45.02213" lon="5.45471">
        <ele>875.386</ele>
        <time>2012-08-03T09:59:57.715Z</time>
      </trkpt>
      <trkpt lat="45.02232" lon="5.45446">
        <ele>872.777</ele>
        <time>2012-08-03T10:00:04.723Z</time>
      </trkpt>
      <trkpt lat="45.02243" lon="5.45428">
        <ele>871.223</ele>
        <time>2012-08-03T10:00:07.739Z</time>
      </trkpt>
      <trkpt lat="45.02255" lon="5.45413">
        <ele>870.245</ele>
        <time>2012-08-03T10:00:10.194Z</time>
      </trkpt>
      <trkpt lat="45.02259" lon="5.45395">
        <ele>868.355</ele>
        <time>2012-08-03T10:00:12.320Z</time>
      </trkpt>
      <trkpt lat="45.02267" lon="5.45384">
        <ele>865.124</ele>
        <time>2012-08-03T10:00:14.325Z</time>
      </trkpt>
      <trkpt lat="45.02277" lon="5.45374">
        <ele>862.01</ele>
        <time>2012-08-03T10:00:16.826Z</time>
      </trkpt>
      <trkpt lat="45.02281" lon="5.45362">
        <ele>860.056</ele>
        <time>2012-08-03T10:00:19.016Z</time>
      </trkpt>
      <trkpt lat="45.02272" lon="5.45351">
        <ele>858.666</ele>
        <time>2012-08-03T10:00:21.932Z</time>
      </trkpt>
      <trkpt lat="45.02272" lon="5.45351">
        <ele>857.271</ele>
        <time>2012-08-03T10:00:31.981Z</time>
      </trkpt>
      <trkpt lat="45.02272" lon="5.45351">
        <ele>856.203</ele>
        <time>2012-08-03T10:01:24.504Z</time>
      </trkpt>
      <trkpt lat="45.02262" lon="5.45324">
        <ele>855.246</ele>
        <time>2012-08-03T10:01:36.126Z</time>
      </trkpt>
      <trkpt lat="45.02246" lon="5.45327">
        <ele>853.806</ele>
        <time>2012-08-03T10:01:39.517Z</time>
      </trkpt>
      <trkpt lat="45.02236" lon="5.45338">
        <ele>850.785</ele>
        <time>2012-08-03T10:01:41.696Z</time>
      </trkpt>
      <trkpt lat="45.0222" lon="5.45344">
        <ele>844.47</ele>
        <time>2012-08-03T10:01:44.444Z</time>
      </trkpt>
      <trkpt lat="45.02206" lon="5.45335">
        <ele>836.088</ele>
        <time>2012-08-03T10:01:46.844Z</time>
      </trkpt>
      <trkpt lat="45.02196" lon="5.45326">
        <ele>829.414</ele>
        <time>2012-08-03T10:01:48.792Z</time>
      </trkpt>
      <trkpt lat="45.02189" lon="5.45314">
        <ele>825.58</ele>
        <time>2012-08-03T10:01:51.007Z</time>
      </trkpt>
      <trkpt lat="45.02179" lon="5.45304">
        <ele>822.864</ele>
        <time>2012-08-03T10:01:53.931Z</time>
      </trkpt>
      <trkpt lat="45.02166" lon="5.45283">
        <ele>819.529</ele>
        <time>2012-08-03T10:01:59.244Z</time>
      </trkpt>
      <trkpt lat="45.02159" lon="5.45275">
        <ele>815.547</ele>
        <time>2012-08-03T10:02:01.165Z</time>
      </trkpt>
      <trkpt lat="45.02159" lon="5.45275">
        <ele>812.301</ele>
        <time>2012-08-03T10:02:06.014Z</time>
      </trkpt>
      <trkpt lat="45.02159" lon="5.45275">
        <ele>810.717</ele>
        <time>2012-08-03T10:02:17.838Z</time>
      </trkpt>
      <trkpt lat="45.02147" lon="5.45255">
        <ele>810.037</ele>
        <time>2012-08-03T10:02:26.682Z</time>
      </trkpt>
      <trkpt lat="45.02143" lon="5.4524">
        <ele>809.071</ele>
        <time>2012-08-03T10:02:29.577Z</time>
      </trkpt>
      <trkpt lat="45.02141" lon="5.45226">
        <ele>807.453</ele>
        <time>2012-08-03T10:02:32.169Z</time>
      </trkpt>
      <trkpt lat="45.02141" lon="5.45226">
        <ele>805.606</ele>
        <time>2012-08-03T10:02:38.938Z</time>
      </trkpt>
      <trkpt lat="45.02141" lon="5.45226">
        <ele>804.346</ele>
        <time>2012-08-03T10:02:39.230Z</time>
      </trkpt>
      <trkpt lat="45.02143" lon="5.45204">
        <ele>803.306</ele>
        <time>2012-08-03T10:02:48.894Z</time>
      </trkpt>
      <trkpt lat="45.0215" lon="5.45191">
        <ele>801.256</ele>
        <time>2012-08-03T10:02:52.312Z</time>
      </trkpt>
      <trkpt lat="45.02158" lon="5.45176">
        <ele>798.585</ele>
        <time>2012-08-03T10:02:55.683Z</time>
      </trkpt>
      <trkpt lat="45.02156" lon="5.45157">
        <ele>796.491</ele>
        <time>2012-08-03T10:02:59.190Z</time>
      </trkpt>
      <trkpt lat="45.02154" lon="5.45142">
        <ele>795.282</ele>
        <time>2012-08-03T10:03:02.196Z</time>
      </trkpt>
      <trkpt lat="45.02152" lon="5.45125">
        <ele>794.694</ele>
        <time>2012-08-03T10:03:05.149Z</time>
      </trkpt>
      <trkpt lat="45.02158" lon="5.45099">
        <ele>793.926</ele>
        <time>2012-08-03T10:03:08.596Z</time>
      </trkpt>
      <trkpt lat="45.02158" lon="5.45065">
        <ele>792.471</ele>
        <time>2012-08-03T10:03:12.349Z</time>
      </trkpt>
      <trkpt lat="45.02152" lon="5.45043">
        <ele>790.649</ele>
        <time>2012-08-03T10:03:15.062Z</time>
      </trkpt>
      <trkpt lat="45.02143" lon="5.45009">
        <ele>788.353</ele>
        <time>2012-08-03T10:03:21.285Z</time>
      </trkpt>
      <trkpt lat="45.02143" lon="5.44995">
        <ele>785.174</ele>
        <time>2012-08-03T10:03:23.543Z</time>
      </trkpt>
      <trkpt lat="45.0214" lon="5.44981">
        <ele>781.979</ele>
        <time>2012-08-03T10:03:25.429Z</time>
      </trkpt>
      <trkpt lat="45.02139" lon="5.44968">
        <ele>780.068</ele>
        <time>2012-08-03T10:03:26.903Z</time>
      </trkpt>
      <trkpt lat="45.02135" lon="5.44939">
        <ele>779.127</ele>
        <time>2012-08-03T10:03:29.793Z</time>
      </trkpt>
      <trkpt lat="45.02139" lon="5.44921">
        <ele>778.195</ele>
        <time>2012-08-03T10:03:31.515Z</time>
      </trkpt>
      <trkpt lat="45.02138" lon="5.44889">
        <ele>776.934</ele>
        <time>2012-08-03T10:03:34.363Z</time>
      </trkpt>
      <trkpt lat="45.02135" lon="5.44857">
        <ele>775.069</ele>
        <time>2012-08-03T10:03:37.244Z</time>
      </trkpt>
      <trkpt lat="45.02132" lon="5.44839">
        <ele>772.843</ele>
        <time>2012-08-03T10:03:38.855Z</time>
      </trkpt>
      <trkpt lat="45.02118" lon="5.44814">
        <ele>770.733</ele>
        <time>2012-08-03T10:03:41.403Z</time>
      </trkpt>
      <trkpt lat="45.02101" lon="5.44784">
        <ele>768.205</ele>
        <time>2012-08-03T10:03:44.242Z</time>
      </trkpt>
      <trkpt lat="45.02089" lon="5.44764">
        <ele>764.775</ele>
        <time>2012-08-03T10:03:46.486Z</time>
      </trkpt>
      <trkpt lat="45.02074" lon="5.44739">
        <ele>760.649</ele>
        <time>2012-08-03T10:03:49.889Z</time>
      </trkpt>
      <trkpt lat="45.02071" lon="5.44716">
        <ele>755.861</ele>
        <time>2012-08-03T10:03:52.501Z</time>
      </trkpt>
      <trkpt lat="45.02069" lon="5.44693">
        <ele>750.658</ele>
        <time>2012-08-03T10:03:55.125Z</time>
      </trkpt>
      <trkpt lat="45.02067" lon="5.44668">
        <ele>745.979</ele>
        <time>2012-08-03T10:03:57.954Z</time>
      </trkpt>
      <trkpt lat="45.02064" lon="5.44652">
        <ele>742.879</ele>
        <time>2012-08-03T10:03:59.877Z</time>
      </trkpt>
      <trkpt lat="45.02062" lon="5.44635">
        <ele>741.605</ele>
        <time>2012-08-03T10:04:01.780Z</time>
      </trkpt>
      <trkpt lat="45.02059" lon="5.44619">
        <ele>741.53</ele>
        <time>2012-08-03T10:04:03.640Z</time>
      </trkpt>
      <trkpt lat="45.02056" lon="5.44596">
        <ele>741.698</ele>
        <time>2012-08-03T10:04:06.369Z</time>
      </trkpt>
      <trkpt lat="45.02053" lon="5.44572">
        <ele>741.728</ele>
        <time>2012-08-03T10:04:09.164Z</time>
      </trkpt>
      <trkpt lat="45.02052" lon="5.4455">
        <ele>741.821</ele>
        <time>2012-08-03T10:04:11.897Z</time>
      </trkpt>
      <trkpt lat="45.0205" lon="5.44536">
        <ele>741.882</ele>
        <time>2012-08-03T10:04:13.809Z</time>
      </trkpt>
      <trkpt lat="45.0205" lon="5.44522">
        <ele>741.645</ele>
        <time>2012-08-03T10:04:16.412Z</time>
      </trkpt>
      <trkpt lat="45.02056" lon="5.44512">
        <ele>741.174</ele>
        <time>2012-08-03T10:04:19.384Z</time>
      </trkpt>
      <trkpt lat="45.02064" lon="5.44504">
        <ele>740.631</ele>
        <time>2012-08-03T10:04:23.043Z</time>
      </trkpt>
      <trkpt lat="45.02072" lon="5.44496">
        <ele>740.218</ele>
        <time>2012-08-03T10:04:26.984Z</time>
      </trkpt>
      <trkpt lat="45.02072" lon="5.44496">
        <ele>740.063</ele>
        <time>2012-08-03T10:04:36.940Z</time>
      </trkpt>
      <trkpt lat="45.02072" lon="5.44496">
        <ele>739.956</ele>
        <time>2012-08-03T10:05:09.343Z</time>
      </trkpt>
      <trkpt lat="45.02085" lon="5.44472">
        <ele>739.719</ele>
        <time>2012-08-03T10:05:28.509Z</time>
      </trkpt>
      <trkpt lat="45.02085" lon="5.44459">
        <ele>739.464</ele>
        <time>2012-08-03T10:05:33.379Z</time>
      </trkpt>
      <trkpt lat="45.02091" lon="5.44447">
        <ele>739.585</ele>
        <time>2012-08-03T10:05:38.600Z</time>
      </trkpt>
      <trkpt lat="45.02098" lon="5.44438">
        <ele>740.206</ele>
        <time>2012-08-03T10:05:42.996Z</time>
      </trkpt>
      <trkpt lat="45.02105" lon="5.44429">
        <ele>740.884</ele>
        <time>2012-08-03T10:05:47.745Z</time>
      </trkpt>
      <trkpt lat="45.02112" lon="5.44419">
        <ele>741.631</ele>
        <time>2012-08-03T10:05:53.195Z</time>
      </trkpt>
      <trkpt lat="45.02117" lon="5.44408">
        <ele>742.906</ele>
        <time>2012-08-03T10:05:58.740Z</time>
      </trkpt>
      <trkpt lat="45.02124" lon="5.44398">
        <ele>744.323</ele>
        <time>2012-08-03T10:06:04.759Z</time>
      </trkpt>
      <trkpt lat="45.0213" lon="5.44386">
        <ele>745.163</ele>
        <time>2012-08-03T10:06:11.320Z</time>
      </trkpt>
      <trkpt lat="45.02133" lon="5.44374">
        <ele>745.391</ele>
        <time>2012-08-03T10:06:17.869Z</time>
      </trkpt>
      <trkpt lat="45.02136" lon="5.44361">
        <ele>745.185</ele>
        <time>2012-08-03T10:06:24.928Z</time>
      </trkpt>
      <trkpt lat="45.02142" lon="5.44352">
        <ele>744.709</ele>
        <time>2012-08-03T10:06:31.689Z</time>
      </trkpt>
      <trkpt lat="45.02147" lon="5.44339">
        <ele>744.272</ele>
        <time>2012-08-03T10:06:38.809Z</time>
      </trkpt>
      <trkpt lat="45.02153" lon="5.44328">
        <ele>744.078</ele>
        <time>2012-08-03T10:06:45.565Z</time>
      </trkpt>
      <trkpt lat="45.02159" lon="5.44318">
        <ele>744.058</ele>
        <time>2012-08-03T10:06:51.719Z</time>
      </trkpt>
      <trkpt lat="45.02167" lon="5.44308">
        <ele>744.512</ele>
        <time>2012-08-03T10:06:59.002Z</time>
      </trkpt>
      <trkpt lat="45.02171" lon="5.44296">
        <ele>745.765</ele>
        <time>2012-08-03T10:07:05.897Z</time>
      </trkpt>
      <trkpt lat="45.02168" lon="5.44282">
        <ele>747.387</ele>
        <time>2012-08-03T10:07:13.971Z</time>
      </trkpt>
      <trkpt lat="45.02158" lon="5.44276">
        <ele>748.644</ele>
        <time>2012-08-03T10:07:22.683Z</time>
      </trkpt>
      <trkpt lat="45.02149" lon="5.44269">
        <ele>749.403</ele>
        <time>2012-08-03T10:07:28.533Z</time>
      </trkpt>
      <trkpt lat="45.02139" lon="5.44259">
        <ele>750.563</ele>
        <time>2012-08-03T10:07:33.542Z</time>
      </trkpt>
      <trkpt lat="45.0213" lon="5.44254">
        <ele>752.636</ele>
        <time>2012-08-03T10:07:37.067Z</time>
      </trkpt>
      <trkpt lat="45.0213" lon="5.44254">
        <ele>754.556</ele>
        <time>2012-08-03T10:07:53.042Z</time>
      </trkpt>
      <trkpt lat="45.0213" lon="5.44254">
        <ele>755.409</ele>
        <time>2012-08-03T10:10:47.451Z</time>
      </trkpt>
      <trkpt lat="45.02144" lon="5.44266">
        <ele>755.503</ele>
        <time>2012-08-03T10:11:03.558Z</time>
      </trkpt>
      <trkpt lat="45.02154" lon="5.44273">
        <ele>755.132</ele>
        <time>2012-08-03T10:11:08.567Z</time>
      </trkpt>
      <trkpt lat="45.02163" lon="5.4428">
        <ele>754.379</ele>
        <time>2012-08-03T10:11:13.850Z</time>
      </trkpt>
      <trkpt lat="45.0217" lon="5.4429">
        <ele>753.577</ele>
        <time>2012-08-03T10:11:18.871Z</time>
      </trkpt>
      <trkpt lat="45.02179" lon="5.44291">
        <ele>753.112</ele>
        <time>2012-08-03T10:11:28.186Z</time>
      </trkpt>
      <trkpt lat="45.02189" lon="5.44292">
        <ele>753.067</ele>
        <time>2012-08-03T10:11:39.433Z</time>
      </trkpt>
      <trkpt lat="45.022" lon="5.44295">
        <ele>753.646</ele>
        <time>2012-08-03T10:11:47.684Z</time>
      </trkpt>
      <trkpt lat="45.02211" lon="5.44298">
        <ele>754.797</ele>
        <time>2012-08-03T10:11:53.094Z</time>
      </trkpt>
      <trkpt lat="45.02221" lon="5.44301">
        <ele>755.835</ele>
        <time>2012-08-03T10:11:57.534Z</time>
      </trkpt>
      <trkpt lat="45.02231" lon="5.44307">
        <ele>756.287</ele>
        <time>2012-08-03T10:12:01.497Z</time>
      </trkpt>
      <trkpt lat="45.0224" lon="5.44309">
        <ele>756.332</ele>
        <time>2012-08-03T10:12:04.704Z</time>
      </trkpt>
      <trkpt lat="45.02251" lon="5.44312">
        <ele>756.236</ele>
        <time>2012-08-03T10:12:08.388Z</time>
      </trkpt>
      <trkpt lat="45.02262" lon="5.44316">
        <ele>756.152</ele>
        <time>2012-08-03T10:12:12.055Z</time>
      </trkpt>
      <trkpt lat="45.02272" lon="5.44318">
        <ele>756.116</ele>
        <time>2012-08-03T10:12:15.246Z</time>
      </trkpt>
      <trkpt lat="45.02281" lon="5.4432">
        <ele>756.112</ele>
        <time>2012-08-03T10:12:18.184Z</time>
      </trkpt>
      <trkpt lat="45.02291" lon="5.44322">
        <ele>756.12</ele>
        <time>2012-08-03T10:12:21.249Z</time>
      </trkpt>
      <trkpt lat="45.02302" lon="5.44325">
        <ele>755.989</ele>
        <time>2012-08-03T10:12:24.304Z</time>
      </trkpt>
      <trkpt lat="45.02313" lon="5.44328">
        <ele>755.632</ele>
        <time>2012-08-03T10:12:27.323Z</time>
      </trkpt>
      <trkpt lat="45.02324" lon="5.44332">
        <ele>755.401</ele>
        <time>2012-08-03T10:12:30.294Z</time>
      </trkpt>
      <trkpt lat="45.02337" lon="5.44335">
        <ele>755.585</ele>
        <time>2012-08-03T10:12:33.366Z</time>
      </trkpt>
      <trkpt lat="45.0235" lon="5.44339">
        <ele>755.927</ele>
        <time>2012-08-03T10:12:36.545Z</time>
      </trkpt>
      <trkpt lat="45.0236" lon="5.44344">
        <ele>755.994</ele>
        <time>2012-08-03T10:12:39.305Z</time>
      </trkpt>
      <trkpt lat="45.02372" lon="5.44349">
        <ele>755.691</ele>
        <time>2012-08-03T10:12:42.203Z</time>
      </trkpt>
      <trkpt lat="45.02384" lon="5.44354">
        <ele>755.306</ele>
        <time>2012-08-03T10:12:45.136Z</time>
      </trkpt>
      <trkpt lat="45.02396" lon="5.44359">
        <ele>755.102</ele>
        <time>2012-08-03T10:12:47.897Z</time>
      </trkpt>
      <trkpt lat="45.02408" lon="5.44362">
        <ele>755.059</ele>
        <time>2012-08-03T10:12:50.770Z</time>
      </trkpt>
      <trkpt lat="45.02421" lon="5.44365">
        <ele>755.085</ele>
        <time>2012-08-03T10:12:53.680Z</time>
      </trkpt>
      <trkpt lat="45.02433" lon="5.44369">
        <ele>754.978</ele>
        <time>2012-08-03T10:12:56.416Z</time>
      </trkpt>
      <trkpt lat="45.02443" lon="5.44372">
        <ele>754.635</ele>
        <time>2012-08-03T10:12:59.013Z</time>
      </trkpt>
      <trkpt lat="45.02456" lon="5.44374">
        <ele>754.268</ele>
        <time>2012-08-03T10:13:02.031Z</time>
      </trkpt>
      <trkpt lat="45.02467" lon="5.44377">
        <ele>754.091</ele>
        <time>2012-08-03T10:13:04.673Z</time>
      </trkpt>
      <trkpt lat="45.02479" lon="5.44382">
        <ele>754.2</ele>
        <time>2012-08-03T10:13:07.679Z</time>
      </trkpt>
      <trkpt lat="45.02487" lon="5.44391">
        <ele>754.589</ele>
        <time>2012-08-03T10:13:10.232Z</time>
      </trkpt>
      <trkpt lat="45.02496" lon="5.44397">
        <ele>755.264</ele>
        <time>2012-08-03T10:13:12.607Z</time>
      </trkpt>
      <trkpt lat="45.02509" lon="5.44389">
        <ele>756.312</ele>
        <time>2012-08-03T10:13:16.069Z</time>
      </trkpt>
      <trkpt lat="45.0252" lon="5.44389">
        <ele>757.439</ele>
        <time>2012-08-03T10:13:18.882Z</time>
      </trkpt>
      <trkpt lat="45.02531" lon="5.4439">
        <ele>758.127</ele>
        <time>2012-08-03T10:13:21.713Z</time>
      </trkpt>
      <trkpt lat="45.0254" lon="5.44387">
        <ele>758.323</ele>
        <time>2012-08-03T10:13:24.403Z</time>
      </trkpt>
      <trkpt lat="45.02551" lon="5.44388">
        <ele>757.859</ele>
        <time>2012-08-03T10:13:27.580Z</time>
      </trkpt>
      <trkpt lat="45.0256" lon="5.44392">
        <ele>756.687</ele>
        <time>2012-08-03T10:13:30.896Z</time>
      </trkpt>
      <trkpt lat="45.02571" lon="5.44391">
        <ele>755.523</ele>
        <time>2012-08-03T10:13:34.778Z</time>
      </trkpt>
      <trkpt lat="45.02581" lon="5.44393">
        <ele>754.982</ele>
        <time>2012-08-03T10:13:39.870Z</time>
      </trkpt>
      <trkpt lat="45.02592" lon="5.44393">
        <ele>755.045</ele>
        <time>2012-08-03T10:13:45.311Z</time>
      </trkpt>
      <trkpt lat="45.02603" lon="5.44393">
        <ele>755.502</ele>
        <time>2012-08-03T10:13:50.550Z</time>
      </trkpt>
      <trkpt lat="45.02614" lon="5.44394">
        <ele>756.381</ele>
        <time>2012-08-03T10:13:55.281Z</time>
      </trkpt>
      <trkpt lat="45.02624" lon="5.44396">
        <ele>757.68</ele>
        <time>2012-08-03T10:14:00.196Z</time>
      </trkpt>
      <trkpt lat="45.02633" lon="5.44398">
        <ele>758.82</ele>
        <time>2012-08-03T10:14:04.683Z</time>
      </trkpt>
      <trkpt lat="45.02643" lon="5.44399">
        <ele>759.446</ele>
        <time>2012-08-03T10:14:09.359Z</time>
      </trkpt>
      <trkpt lat="45.02653" lon="5.44402">
        <ele>759.986</ele>
        <time>2012-08-03T10:14:13.831Z</time>
      </trkpt>
      <trkpt lat="45.02664" lon="5.44402">
        <ele>760.884</ele>
        <time>2012-08-03T10:14:18.997Z</time>
      </trkpt>
      <trkpt lat="45.02674" lon="5.44401">
        <ele>762.194</ele>
        <time>2012-08-03T10:14:23.794Z</time>
      </trkpt>
      <trkpt lat="45.02684" lon="5.44402">
        <ele>763.455</ele>
        <time>2012-08-03T10:14:28.138Z</time>
      </trkpt>
      <trkpt lat="45.02692" lon="5.44399">
        <ele>764.307</ele>
        <time>2012-08-03T10:14:32.635Z</time>
      </trkpt>
      <trkpt lat="45.02703" lon="5.44403">
        <ele>765.12</ele>
        <time>2012-08-03T10:14:38.640Z</time>
      </trkpt>
      <trkpt lat="45.02714" lon="5.44405">
        <ele>766.278</ele>
        <time>2012-08-03T10:14:44.614Z</time>
      </trkpt>
      <trkpt lat="45.02725" lon="5.44401">
        <ele>767.449</ele>
        <time>2012-08-03T10:14:50.025Z</time>
      </trkpt>
      <trkpt lat="45.02734" lon="5.44395">
        <ele>768.137</ele>
        <time>2012-08-03T10:14:54.874Z</time>
      </trkpt>
      <trkpt lat="45.02743" lon="5.44389">
        <ele>768.322</ele>
        <time>2012-08-03T10:14:58.929Z</time>
      </trkpt>
      <trkpt lat="45.02752" lon="5.44383">
        <ele>768.126</ele>
        <time>2012-08-03T10:15:03.514Z</time>
      </trkpt>
      <trkpt lat="45.02761" lon="5.44376">
        <ele>767.67</ele>
        <time>2012-08-03T10:15:08.276Z</time>
      </trkpt>
      <trkpt lat="45.0277" lon="5.4437">
        <ele>767.383</ele>
        <time>2012-08-03T10:15:12.562Z</time>
      </trkpt>
      <trkpt lat="45.02779" lon="5.44368">
        <ele>767.553</ele>
        <time>2012-08-03T10:15:16.741Z</time>
      </trkpt>
      <trkpt lat="45.0279" lon="5.44366">
        <ele>767.901</ele>
        <time>2012-08-03T10:15:21.672Z</time>
      </trkpt>
      <trkpt lat="45.028" lon="5.44365">
        <ele>768.253</ele>
        <time>2012-08-03T10:15:26.224Z</time>
      </trkpt>
      <trkpt lat="45.0281" lon="5.44362">
        <ele>768.812</ele>
        <time>2012-08-03T10:15:30.541Z</time>
      </trkpt>
      <trkpt lat="45.02819" lon="5.44358">
        <ele>769.665</ele>
        <time>2012-08-03T10:15:34.866Z</time>
      </trkpt>
      <trkpt lat="45.02828" lon="5.44355">
        <ele>770.955</ele>
        <time>2012-08-03T10:15:38.842Z</time>
      </trkpt>
      <trkpt lat="45.02839" lon="5.44357">
        <ele>773.003</ele>
        <time>2012-08-03T10:15:43.630Z</time>
      </trkpt>
      <trkpt lat="45.02848" lon="5.44361">
        <ele>775.496</ele>
        <time>2012-08-03T10:15:47.927Z</time>
      </trkpt>
      <trkpt lat="45.02858" lon="5.44366">
        <ele>777.735</ele>
        <time>2012-08-03T10:15:52.936Z</time>
      </trkpt>
      <trkpt lat="45.02869" lon="5.44371">
        <ele>779.357</ele>
        <time>2012-08-03T10:15:58.515Z</time>
      </trkpt>
      <trkpt lat="45.02879" lon="5.44378">
        <ele>780.216</ele>
        <time>2012-08-03T10:16:03.893Z</time>
      </trkpt>
      <trkpt lat="45.0289" lon="5.44384">
        <ele>780.4</ele>
        <time>2012-08-03T10:16:08.971Z</time>
      </trkpt>
      <trkpt lat="45.029" lon="5.44389">
        <ele>780.293</ele>
        <time>2012-08-03T10:16:13.313Z</time>
      </trkpt>
      <trkpt lat="45.02909" lon="5.44394">
        <ele>780.16</ele>
        <time>2012-08-03T10:16:17.432Z</time>
      </trkpt>
      <trkpt lat="45.02918" lon="5.44397">
        <ele>780.091</ele>
        <time>2012-08-03T10:16:21.411Z</time>
      </trkpt>
      <trkpt lat="45.02929" lon="5.44402">
        <ele>780.215</ele>
        <time>2012-08-03T10:16:26.067Z</time>
      </trkpt>
      <trkpt lat="45.0294" lon="5.44405">
        <ele>780.722</ele>
        <time>2012-08-03T10:16:30.731Z</time>
      </trkpt>
      <trkpt lat="45.02949" lon="5.44406">
        <ele>781.462</ele>
        <time>2012-08-03T10:16:35.032Z</time>
      </trkpt>
      <trkpt lat="45.02959" lon="5.44406">
        <ele>782.151</ele>
        <time>2012-08-03T10:16:39.617Z</time>
      </trkpt>
      <trkpt lat="45.02969" lon="5.44406">
        <ele>782.713</ele>
        <time>2012-08-03T10:16:44.186Z</time>
      </trkpt>
      <trkpt lat="45.0298" lon="5.44409">
        <ele>783.079</ele>
        <time>2012-08-03T10:16:49.228Z</time>
      </trkpt>
      <trkpt lat="45.0299" lon="5.44409">
        <ele>783.331</ele>
        <time>2012-08-03T10:16:53.744Z</time>
      </trkpt>
      <trkpt lat="45.03" lon="5.4441">
        <ele>783.673</ele>
        <time>2012-08-03T10:16:58.065Z</time>
      </trkpt>
      <trkpt lat="45.0301" lon="5.4441">
        <ele>784.134</ele>
        <time>2012-08-03T10:17:02.585Z</time>
      </trkpt>
      <trkpt lat="45.0302" lon="5.4441">
        <ele>784.916</ele>
        <time>2012-08-03T10:17:07.112Z</time>
      </trkpt>
      <trkpt lat="45.03031" lon="5.44411">
        <ele>786.161</ele>
        <time>2012-08-03T10:17:11.999Z</time>
      </trkpt>
      <trkpt lat="45.03041" lon="5.44411">
        <ele>787.407</ele>
        <time>2012-08-03T10:17:16.366Z</time>
      </trkpt>
      <trkpt lat="45.03051" lon="5.44411">
        <ele>788.265</ele>
        <time>2012-08-03T10:17:20.809Z</time>
      </trkpt>
      <trkpt lat="45.03061" lon="5.4441">
        <ele>788.812</ele>
        <time>2012-08-03T10:17:25.402Z</time>
      </trkpt>
      <trkpt lat="45.03071" lon="5.44406">
        <ele>789.254</ele>
        <time>2012-08-03T10:17:30.013Z</time>
      </trkpt>
      <trkpt lat="45.0308" lon="5.44401">
        <ele>789.688</ele>
        <time>2012-08-03T10:17:34.663Z</time>
      </trkpt>
      <trkpt lat="45.0309" lon="5.44397">
        <ele>790.025</ele>
        <time>2012-08-03T10:17:39.294Z</time>
      </trkpt>
      <trkpt lat="45.03099" lon="5.44394">
        <ele>790.294</ele>
        <time>2012-08-03T10:17:43.914Z</time>
      </trkpt>
      <trkpt lat="45.0311" lon="5.44393">
        <ele>790.656</ele>
        <time>2012-08-03T10:17:48.586Z</time>
      </trkpt>
      <trkpt lat="45.0312" lon="5.44393">
        <ele>790.99</ele>
        <time>2012-08-03T10:17:53.401Z</time>
      </trkpt>
      <trkpt lat="45.0313" lon="5.44395">
        <ele>791.276</ele>
        <time>2012-08-03T10:17:58.229Z</time>
      </trkpt>
      <trkpt lat="45.03141" lon="5.44396">
        <ele>791.652</ele>
        <time>2012-08-03T10:18:03.617Z</time>
      </trkpt>
      <trkpt lat="45.0315" lon="5.44397">
        <ele>792.129</ele>
        <time>2012-08-03T10:18:08.500Z</time>
      </trkpt>
      <trkpt lat="45.03161" lon="5.44399">
        <ele>792.637</ele>
        <time>2012-08-03T10:18:13.824Z</time>
      </trkpt>
      <trkpt lat="45.03172" lon="5.44399">
        <ele>793.16</ele>
        <time>2012-08-03T10:18:19.496Z</time>
      </trkpt>
      <trkpt lat="45.03182" lon="5.44398">
        <ele>793.802</ele>
        <time>2012-08-03T10:18:25.446Z</time>
      </trkpt>
      <trkpt lat="45.03193" lon="5.44399">
        <ele>794.53</ele>
        <time>2012-08-03T10:18:31.063Z</time>
      </trkpt>
      <trkpt lat="45.03204" lon="5.44399">
        <ele>795.171</ele>
        <time>2012-08-03T10:18:36.702Z</time>
      </trkpt>
      <trkpt lat="45.03213" lon="5.444">
        <ele>795.701</ele>
        <time>2012-08-03T10:18:41.671Z</time>
      </trkpt>
      <trkpt lat="45.03224" lon="5.44399">
        <ele>796.056</ele>
        <time>2012-08-03T10:18:47.115Z</time>
      </trkpt>
      <trkpt lat="45.03233" lon="5.44399">
        <ele>796.31</ele>
        <time>2012-08-03T10:18:51.680Z</time>
      </trkpt>
      <trkpt lat="45.03244" lon="5.44398">
        <ele>796.655</ele>
        <time>2012-08-03T10:18:56.809Z</time>
      </trkpt>
      <trkpt lat="45.03253" lon="5.44393">
        <ele>796.981</ele>
        <time>2012-08-03T10:19:01.287Z</time>
      </trkpt>
      <trkpt lat="45.03264" lon="5.44391">
        <ele>797.68</ele>
        <time>2012-08-03T10:19:06.936Z</time>
      </trkpt>
      <trkpt lat="45.03274" lon="5.44391">
        <ele>799.552</ele>
        <time>2012-08-03T10:19:12.840Z</time>
      </trkpt>
      <trkpt lat="45.03284" lon="5.4439">
        <ele>802.219</ele>
        <time>2012-08-03T10:19:18.305Z</time>
      </trkpt>
      <trkpt lat="45.03294" lon="5.4439">
        <ele>804.361</ele>
        <time>2012-08-03T10:19:23.548Z</time>
      </trkpt>
      <trkpt lat="45.03304" lon="5.4439">
        <ele>805.765</ele>
        <time>2012-08-03T10:19:28.394Z</time>
      </trkpt>
      <trkpt lat="45.03315" lon="5.44389">
        <ele>807.255</ele>
        <time>2012-08-03T10:19:34.041Z</time>
      </trkpt>
      <trkpt lat="45.03324" lon="5.44385">
        <ele>809.178</ele>
        <time>2012-08-03T10:19:38.454Z</time>
      </trkpt>
      <trkpt lat="45.03319" lon="5.44373">
        <ele>811.403</ele>
        <time>2012-08-03T10:19:43.181Z</time>
      </trkpt>
      <trkpt lat="45.0331" lon="5.4437">
        <ele>813.572</ele>
        <time>2012-08-03T10:19:48.559Z</time>
      </trkpt>
      <trkpt lat="45.03301" lon="5.44367">
        <ele>814.983</ele>
        <time>2012-08-03T10:19:54.865Z</time>
      </trkpt>
      <trkpt lat="45.03292" lon="5.44361">
        <ele>815.427</ele>
        <time>2012-08-03T10:20:02.145Z</time>
      </trkpt>
      <trkpt lat="45.03283" lon="5.44357">
        <ele>815.358</ele>
        <time>2012-08-03T10:20:09.305Z</time>
      </trkpt>
      <trkpt lat="45.03273" lon="5.44354">
        <ele>814.904</ele>
        <time>2012-08-03T10:20:16.896Z</time>
      </trkpt>
      <trkpt lat="45.03264" lon="5.44351">
        <ele>813.794</ele>
        <time>2012-08-03T10:20:24.592Z</time>
      </trkpt>
      <trkpt lat="45.03255" lon="5.44347">
        <ele>811.885</ele>
        <time>2012-08-03T10:20:32.048Z</time>
      </trkpt>
      <trkpt lat="45.03246" lon="5.44343">
        <ele>809.722</ele>
        <time>2012-08-03T10:20:39.985Z</time>
      </trkpt>
      <trkpt lat="45.03246" lon="5.44343">
        <ele>808.225</ele>
        <time>2012-08-03T10:21:03.951Z</time>
      </trkpt>
      <trkpt lat="45.03246" lon="5.44343">
        <ele>807.608</ele>
        <time>2012-08-03T10:29:03.270Z</time>
      </trkpt>
      <trkpt lat="45.03221" lon="5.44338">
        <ele>807.373</ele>
        <time>2012-08-03T10:29:23.837Z</time>
      </trkpt>
      <trkpt lat="45.03211" lon="5.44333">
        <ele>807.371</ele>
        <time>2012-08-03T10:29:27.603Z</time>
      </trkpt>
      <trkpt lat="45.03203" lon="5.44326">
        <ele>807.735</ele>
        <time>2012-08-03T10:29:30.808Z</time>
      </trkpt>
      <trkpt lat="45.03193" lon="5.4432">
        <ele>809.722</ele>
        <time>2012-08-03T10:29:34.554Z</time>
      </trkpt>
      <trkpt lat="45.03184" lon="5.44312">
        <ele>813.981</ele>
        <time>2012-08-03T10:29:38.547Z</time>
      </trkpt>
      <trkpt lat="45.03175" lon="5.44305">
        <ele>818.294</ele>
        <time>2012-08-03T10:29:42.940Z</time>
      </trkpt>
      <trkpt lat="45.03168" lon="5.44296">
        <ele>820.738</ele>
        <time>2012-08-03T10:29:47.361Z</time>
      </trkpt>
      <trkpt lat="45.0316" lon="5.44289">
        <ele>821.859</ele>
        <time>2012-08-03T10:29:53.461Z</time>
      </trkpt>
      <trkpt lat="45.03152" lon="5.44282">
        <ele>822.282</ele>
        <time>2012-08-03T10:29:59.955Z</time>
      </trkpt>
      <trkpt lat="45.0315" lon="5.44269">
        <ele>822.28</ele>
        <time>2012-08-03T10:30:06.940Z</time>
      </trkpt>
      <trkpt lat="45.0316" lon="5.44268">
        <ele>822.435</ele>
        <time>2012-08-03T10:30:14.559Z</time>
      </trkpt>
      <trkpt lat="45.03169" lon="5.44272">
        <ele>823.617</ele>
        <time>2012-08-03T10:30:22.205Z</time>
      </trkpt>
      <trkpt lat="45.03178" lon="5.44271">
        <ele>825.761</ele>
        <time>2012-08-03T10:30:28.497Z</time>
      </trkpt>
      <trkpt lat="45.03188" lon="5.44266">
        <ele>827.866</ele>
        <time>2012-08-03T10:30:34.887Z</time>
      </trkpt>
      <trkpt lat="45.03197" lon="5.44261">
        <ele>829.627</ele>
        <time>2012-08-03T10:30:40.422Z</time>
      </trkpt>
      <trkpt lat="45.03207" lon="5.44257">
        <ele>831.553</ele>
        <time>2012-08-03T10:30:46.330Z</time>
      </trkpt>
      <trkpt lat="45.03217" lon="5.44256">
        <ele>833.683</ele>
        <time>2012-08-03T10:30:52.329Z</time>
      </trkpt>
      <trkpt lat="45.03226" lon="5.44252">
        <ele>835.406</ele>
        <time>2012-08-03T10:30:58.238Z</time>
      </trkpt>
      <trkpt lat="45.03236" lon="5.44249">
        <ele>836.51</ele>
        <time>2012-08-03T10:31:04.372Z</time>
      </trkpt>
      <trkpt lat="45.03245" lon="5.4425">
        <ele>837.775</ele>
        <time>2012-08-03T10:31:10.265Z</time>
      </trkpt>
      <trkpt lat="45.03255" lon="5.44248">
        <ele>839.456</ele>
        <time>2012-08-03T10:31:16.407Z</time>
      </trkpt>
      <trkpt lat="45.03265" lon="5.44244">
        <ele>840.913</ele>
        <time>2012-08-03T10:31:23.832Z</time>
      </trkpt>
      <trkpt lat="45.03274" lon="5.44244">
        <ele>841.785</ele>
        <time>2012-08-03T10:31:30.759Z</time>
      </trkpt>
      <trkpt lat="45.03283" lon="5.44245">
        <ele>842.302</ele>
        <time>2012-08-03T10:31:38.226Z</time>
      </trkpt>
      <trkpt lat="45.03292" lon="5.44248">
        <ele>842.837</ele>
        <time>2012-08-03T10:31:45.019Z</time>
      </trkpt>
      <trkpt lat="45.03301" lon="5.44244">
        <ele>843.486</ele>
        <time>2012-08-03T10:31:51.857Z</time>
      </trkpt>
      <trkpt lat="45.03295" lon="5.44234">
        <ele>843.959</ele>
        <time>2012-08-03T10:31:58.313Z</time>
      </trkpt>
      <trkpt lat="45.0329" lon="5.44223">
        <ele>844.269</ele>
        <time>2012-08-03T10:32:04.898Z</time>
      </trkpt>
      <trkpt lat="45.03283" lon="5.44214">
        <ele>844.761</ele>
        <time>2012-08-03T10:32:12.639Z</time>
      </trkpt>
      <trkpt lat="45.03272" lon="5.44216">
        <ele>845.437</ele>
        <time>2012-08-03T10:32:21.335Z</time>
      </trkpt>
      <trkpt lat="45.03264" lon="5.44212">
        <ele>846.081</ele>
        <time>2012-08-03T10:32:29.012Z</time>
      </trkpt>
      <trkpt lat="45.03255" lon="5.44206">
        <ele>846.767</ele>
        <time>2012-08-03T10:32:37.283Z</time>
      </trkpt>
      <trkpt lat="45.03247" lon="5.44199">
        <ele>847.77</ele>
        <time>2012-08-03T10:32:44.805Z</time>
      </trkpt>
      <trkpt lat="45.03239" lon="5.4419">
        <ele>849.117</ele>
        <time>2012-08-03T10:32:52.751Z</time>
      </trkpt>
      <trkpt lat="45.03232" lon="5.44181">
        <ele>850.653</ele>
        <time>2012-08-03T10:33:00.654Z</time>
      </trkpt>
      <trkpt lat="45.03224" lon="5.44175">
        <ele>852.074</ele>
        <time>2012-08-03T10:33:07.239Z</time>
      </trkpt>
      <trkpt lat="45.03215" lon="5.44168">
        <ele>853.12</ele>
        <time>2012-08-03T10:33:14.427Z</time>
      </trkpt>
      <trkpt lat="45.03207" lon="5.44161">
        <ele>853.896</ele>
        <time>2012-08-03T10:33:21.272Z</time>
      </trkpt>
      <trkpt lat="45.03198" lon="5.44166">
        <ele>854.713</ele>
        <time>2012-08-03T10:33:27.819Z</time>
      </trkpt>
      <trkpt lat="45.03189" lon="5.44158">
        <ele>855.639</ele>
        <time>2012-08-03T10:33:36.219Z</time>
      </trkpt>
      <trkpt lat="45.03179" lon="5.44151">
        <ele>856.635</ele>
        <time>2012-08-03T10:33:45.315Z</time>
      </trkpt>
      <trkpt lat="45.0317" lon="5.44143">
        <ele>857.514</ele>
        <time>2012-08-03T10:33:52.541Z</time>
      </trkpt>
      <trkpt lat="45.03162" lon="5.44135">
        <ele>858.03</ele>
        <time>2012-08-03T10:33:59.989Z</time>
      </trkpt>
      <trkpt lat="45.03153" lon="5.44134">
        <ele>858.167</ele>
        <time>2012-08-03T10:34:07.714Z</time>
      </trkpt>
      <trkpt lat="45.03147" lon="5.44125">
        <ele>857.985</ele>
        <time>2012-08-03T10:34:14.298Z</time>
      </trkpt>
      <trkpt lat="45.03138" lon="5.44115">
        <ele>857.553</ele>
        <time>2012-08-03T10:34:21.199Z</time>
      </trkpt>
      <trkpt lat="45.0313" lon="5.44106">
        <ele>857.28</ele>
        <time>2012-08-03T10:34:27.210Z</time>
      </trkpt>
      <trkpt lat="45.03126" lon="5.44095">
        <ele>857.454</ele>
        <time>2012-08-03T10:34:32.711Z</time>
      </trkpt>
      <trkpt lat="45.03121" lon="5.44082">
        <ele>857.939</ele>
        <time>2012-08-03T10:34:37.957Z</time>
      </trkpt>
      <trkpt lat="45.03115" lon="5.44072">
        <ele>858.51</ele>
        <time>2012-08-03T10:34:43.606Z</time>
      </trkpt>
      <trkpt lat="45.03108" lon="5.44064">
        <ele>859.078</ele>
        <time>2012-08-03T10:34:49.903Z</time>
      </trkpt>
      <trkpt lat="45.03099" lon="5.4406">
        <ele>859.874</ele>
        <time>2012-08-03T10:34:55.661Z</time>
      </trkpt>
      <trkpt lat="45.03094" lon="5.44072">
        <ele>861.238</ele>
        <time>2012-08-03T10:35:01.022Z</time>
      </trkpt>
      <trkpt lat="45.03086" lon="5.4408">
        <ele>862.825</ele>
        <time>2012-08-03T10:35:05.863Z</time>
      </trkpt>
      <trkpt lat="45.03079" lon="5.44093">
        <ele>863.906</ele>
        <time>2012-08-03T10:35:11.611Z</time>
      </trkpt>
      <trkpt lat="45.03072" lon="5.44101">
        <ele>864.405</ele>
        <time>2012-08-03T10:35:16.343Z</time>
      </trkpt>
      <trkpt lat="45.03062" lon="5.44098">
        <ele>864.728</ele>
        <time>2012-08-03T10:35:21.005Z</time>
      </trkpt>
      <trkpt lat="45.03054" lon="5.44094">
        <ele>864.967</ele>
        <time>2012-08-03T10:35:25.089Z</time>
      </trkpt>
      <trkpt lat="45.03043" lon="5.44084">
        <ele>865.193</ele>
        <time>2012-08-03T10:35:31.175Z</time>
      </trkpt>
      <trkpt lat="45.03035" lon="5.44077">
        <ele>865.689</ele>
        <time>2012-08-03T10:35:36.457Z</time>
      </trkpt>
      <trkpt lat="45.03027" lon="5.44068">
        <ele>866.668</ele>
        <time>2012-08-03T10:35:42.874Z</time>
      </trkpt>
      <trkpt lat="45.03019" lon="5.44062">
        <ele>868.465</ele>
        <time>2012-08-03T10:35:49.618Z</time>
      </trkpt>
      <trkpt lat="45.03009" lon="5.44056">
        <ele>870.977</ele>
        <time>2012-08-03T10:35:58.272Z</time>
      </trkpt>
      <trkpt lat="45.03001" lon="5.44052">
        <ele>873.3</ele>
        <time>2012-08-03T10:36:06.311Z</time>
      </trkpt>
      <trkpt lat="45.02992" lon="5.44043">
        <ele>875.002</ele>
        <time>2012-08-03T10:36:14.975Z</time>
      </trkpt>
      <trkpt lat="45.02982" lon="5.44039">
        <ele>876.27</ele>
        <time>2012-08-03T10:36:22.955Z</time>
      </trkpt>
      <trkpt lat="45.02975" lon="5.44031">
        <ele>877.291</ele>
        <time>2012-08-03T10:36:29.565Z</time>
      </trkpt>
      <trkpt lat="45.02966" lon="5.44025">
        <ele>878.348</ele>
        <time>2012-08-03T10:36:35.049Z</time>
      </trkpt>
      <trkpt lat="45.02957" lon="5.44018">
        <ele>879.937</ele>
        <time>2012-08-03T10:36:39.454Z</time>
      </trkpt>
      <trkpt lat="45.02947" lon="5.44014">
        <ele>882.131</ele>
        <time>2012-08-03T10:36:44.246Z</time>
      </trkpt>
      <trkpt lat="45.02938" lon="5.44011">
        <ele>884.136</ele>
        <time>2012-08-03T10:36:49.361Z</time>
      </trkpt>
      <trkpt lat="45.02929" lon="5.44006">
        <ele>885.296</ele>
        <time>2012-08-03T10:36:55.141Z</time>
      </trkpt>
      <trkpt lat="45.02919" lon="5.44">
        <ele>885.852</ele>
        <time>2012-08-03T10:37:00.936Z</time>
      </trkpt>
      <trkpt lat="45.02909" lon="5.43999">
        <ele>886.493</ele>
        <time>2012-08-03T10:37:08.562Z</time>
      </trkpt>
      <trkpt lat="45.029" lon="5.43992">
        <ele>888.137</ele>
        <time>2012-08-03T10:37:15.398Z</time>
      </trkpt>
      <trkpt lat="45.02889" lon="5.43986">
        <ele>890.629</ele>
        <time>2012-08-03T10:37:21.904Z</time>
      </trkpt>
      <trkpt lat="45.02882" lon="5.43978">
        <ele>892.588</ele>
        <time>2012-08-03T10:37:27.390Z</time>
      </trkpt>
      <trkpt lat="45.02873" lon="5.43973">
        <ele>893.488</ele>
        <time>2012-08-03T10:37:33.458Z</time>
      </trkpt>
      <trkpt lat="45.02863" lon="5.43968">
        <ele>893.864</ele>
        <time>2012-08-03T10:37:40.501Z</time>
      </trkpt>
      <trkpt lat="45.02855" lon="5.43962">
        <ele>894.027</ele>
        <time>2012-08-03T10:37:49.118Z</time>
      </trkpt>
      <trkpt lat="45.02847" lon="5.43955">
        <ele>894.458</ele>
        <time>2012-08-03T10:37:56.345Z</time>
      </trkpt>
      <trkpt lat="45.02838" lon="5.4395">
        <ele>895.641</ele>
        <time>2012-08-03T10:38:02.306Z</time>
      </trkpt>
      <trkpt lat="45.0283" lon="5.43945">
        <ele>897.217</ele>
        <time>2012-08-03T10:38:08.797Z</time>
      </trkpt>
      <trkpt lat="45.02822" lon="5.43935">
        <ele>898.459</ele>
        <time>2012-08-03T10:38:17.594Z</time>
      </trkpt>
      <trkpt lat="45.02831" lon="5.43932">
        <ele>899.082</ele>
        <time>2012-08-03T10:38:24.053Z</time>
      </trkpt>
      <trkpt lat="45.02841" lon="5.43932">
        <ele>899.197</ele>
        <time>2012-08-03T10:38:31.815Z</time>
      </trkpt>
      <trkpt lat="45.0285" lon="5.43929">
        <ele>899.106</ele>
        <time>2012-08-03T10:38:39.000Z</time>
      </trkpt>
      <trkpt lat="45.02861" lon="5.43929">
        <ele>899.143</ele>
        <time>2012-08-03T10:38:45.844Z</time>
      </trkpt>
      <trkpt lat="45.0287" lon="5.4393">
        <ele>899.59</ele>
        <time>2012-08-03T10:38:51.237Z</time>
      </trkpt>
      <trkpt lat="45.02879" lon="5.43926">
        <ele>900.449</ele>
        <time>2012-08-03T10:38:57.084Z</time>
      </trkpt>
      <trkpt lat="45.02886" lon="5.43915">
        <ele>901.361</ele>
        <time>2012-08-03T10:39:03.227Z</time>
      </trkpt>
      <trkpt lat="45.02896" lon="5.43917">
        <ele>901.941</ele>
        <time>2012-08-03T10:39:08.772Z</time>
      </trkpt>
      <trkpt lat="45.02906" lon="5.4392">
        <ele>902.255</ele>
        <time>2012-08-03T10:39:13.957Z</time>
      </trkpt>
      <trkpt lat="45.02916" lon="5.43917">
        <ele>902.72</ele>
        <time>2012-08-03T10:39:20.468Z</time>
      </trkpt>
      <trkpt lat="45.02926" lon="5.43917">
        <ele>903.375</ele>
        <time>2012-08-03T10:39:26.704Z</time>
      </trkpt>
      <trkpt lat="45.02936" lon="5.4391">
        <ele>903.872</ele>
        <time>2012-08-03T10:39:33.861Z</time>
      </trkpt>
      <trkpt lat="45.02947" lon="5.43907">
        <ele>904.06</ele>
        <time>2012-08-03T10:39:39.968Z</time>
      </trkpt>
      <trkpt lat="45.02956" lon="5.43904">
        <ele>903.783</ele>
        <time>2012-08-03T10:39:45.049Z</time>
      </trkpt>
      <trkpt lat="45.02961" lon="5.43893">
        <ele>903.01</ele>
        <time>2012-08-03T10:39:50.504Z</time>
      </trkpt>
      <trkpt lat="45.02971" lon="5.43895">
        <ele>902.092</ele>
        <time>2012-08-03T10:39:56.770Z</time>
      </trkpt>
      <trkpt lat="45.02978" lon="5.43884">
        <ele>901.09</ele>
        <time>2012-08-03T10:40:02.880Z</time>
      </trkpt>
      <trkpt lat="45.02975" lon="5.43872">
        <ele>899.948</ele>
        <time>2012-08-03T10:40:07.115Z</time>
      </trkpt>
      <trkpt lat="45.02965" lon="5.43865">
        <ele>899.099</ele>
        <time>2012-08-03T10:40:11.756Z</time>
      </trkpt>
      <trkpt lat="45.02958" lon="5.43857">
        <ele>898.785</ele>
        <time>2012-08-03T10:40:15.587Z</time>
      </trkpt>
      <trkpt lat="45.02952" lon="5.43847">
        <ele>899.206</ele>
        <time>2012-08-03T10:40:20.042Z</time>
      </trkpt>
      <trkpt lat="45.02948" lon="5.43833">
        <ele>900.38</ele>
        <time>2012-08-03T10:40:25.148Z</time>
      </trkpt>
      <trkpt lat="45.02942" lon="5.4382">
        <ele>901.695</ele>
        <time>2012-08-03T10:40:30.394Z</time>
      </trkpt>
      <trkpt lat="45.02937" lon="5.43809">
        <ele>902.744</ele>
        <time>2012-08-03T10:40:34.617Z</time>
      </trkpt>
      <trkpt lat="45.02929" lon="5.438">
        <ele>904.381</ele>
        <time>2012-08-03T10:40:39.445Z</time>
      </trkpt>
      <trkpt lat="45.0292" lon="5.43791">
        <ele>907.402</ele>
        <time>2012-08-03T10:40:44.879Z</time>
      </trkpt>
      <trkpt lat="45.02913" lon="5.43781">
        <ele>910.804</ele>
        <time>2012-08-03T10:40:49.012Z</time>
      </trkpt>
      <trkpt lat="45.02906" lon="5.4377">
        <ele>913.054</ele>
        <time>2012-08-03T10:40:53.635Z</time>
      </trkpt>
      <trkpt lat="45.02901" lon="5.43759">
        <ele>914.033</ele>
        <time>2012-08-03T10:40:57.728Z</time>
      </trkpt>
      <trkpt lat="45.02897" lon="5.43747">
        <ele>914.404</ele>
        <time>2012-08-03T10:41:02.513Z</time>
      </trkpt>
      <trkpt lat="45.02892" lon="5.43736">
        <ele>914.661</ele>
        <time>2012-08-03T10:41:08.396Z</time>
      </trkpt>
      <trkpt lat="45.02889" lon="5.43723">
        <ele>915.024</ele>
        <time>2012-08-03T10:41:15.247Z</time>
      </trkpt>
      <trkpt lat="45.02883" lon="5.43713">
        <ele>915.618</ele>
        <time>2012-08-03T10:41:23.317Z</time>
      </trkpt>
      <trkpt lat="45.02875" lon="5.43706">
        <ele>916.909</ele>
        <time>2012-08-03T10:41:31.898Z</time>
      </trkpt>
      <trkpt lat="45.02866" lon="5.43702">
        <ele>918.872</ele>
        <time>2012-08-03T10:41:40.831Z</time>
      </trkpt>
      <trkpt lat="45.02856" lon="5.43699">
        <ele>920.533</ele>
        <time>2012-08-03T10:41:47.441Z</time>
      </trkpt>
      <trkpt lat="45.02847" lon="5.43699">
        <ele>921.223</ele>
        <time>2012-08-03T10:41:52.823Z</time>
      </trkpt>
      <trkpt lat="45.02838" lon="5.43697">
        <ele>921.406</ele>
        <time>2012-08-03T10:41:58.030Z</time>
      </trkpt>
      <trkpt lat="45.02829" lon="5.43695">
        <ele>921.604</ele>
        <time>2012-08-03T10:42:04.457Z</time>
      </trkpt>
      <trkpt lat="45.0282" lon="5.43689">
        <ele>921.976</ele>
        <time>2012-08-03T10:42:12.301Z</time>
      </trkpt>
      <trkpt lat="45.02817" lon="5.43677">
        <ele>922.456</ele>
        <time>2012-08-03T10:42:19.084Z</time>
      </trkpt>
      <trkpt lat="45.02828" lon="5.43676">
        <ele>922.987</ele>
        <time>2012-08-03T10:42:25.408Z</time>
      </trkpt>
      <trkpt lat="45.02837" lon="5.43675">
        <ele>923.506</ele>
        <time>2012-08-03T10:42:31.635Z</time>
      </trkpt>
      <trkpt lat="45.02845" lon="5.43667">
        <ele>924.159</ele>
        <time>2012-08-03T10:42:38.469Z</time>
      </trkpt>
      <trkpt lat="45.02852" lon="5.43659">
        <ele>925.014</ele>
        <time>2012-08-03T10:42:44.950Z</time>
      </trkpt>
      <trkpt lat="45.02859" lon="5.43651">
        <ele>926.162</ele>
        <time>2012-08-03T10:42:51.506Z</time>
      </trkpt>
      <trkpt lat="45.02868" lon="5.43647">
        <ele>927.964</ele>
        <time>2012-08-03T10:42:57.935Z</time>
      </trkpt>
      <trkpt lat="45.02878" lon="5.43643">
        <ele>930.728</ele>
        <time>2012-08-03T10:43:04.604Z</time>
      </trkpt>
      <trkpt lat="45.02888" lon="5.4364">
        <ele>934.145</ele>
        <time>2012-08-03T10:43:11.461Z</time>
      </trkpt>
      <trkpt lat="45.02897" lon="5.43633">
        <ele>937.386</ele>
        <time>2012-08-03T10:43:17.022Z</time>
      </trkpt>
      <trkpt lat="45.02905" lon="5.43629">
        <ele>939.797</ele>
        <time>2012-08-03T10:43:22.684Z</time>
      </trkpt>
      <trkpt lat="45.02913" lon="5.43623">
        <ele>941.889</ele>
        <time>2012-08-03T10:43:28.539Z</time>
      </trkpt>
      <trkpt lat="45.02923" lon="5.43618">
        <ele>944.214</ele>
        <time>2012-08-03T10:43:35.432Z</time>
      </trkpt>
      <trkpt lat="45.02932" lon="5.43616">
        <ele>946.313</ele>
        <time>2012-08-03T10:43:41.194Z</time>
      </trkpt>
      <trkpt lat="45.02942" lon="5.43611">
        <ele>947.623</ele>
        <time>2012-08-03T10:43:48.509Z</time>
      </trkpt>
      <trkpt lat="45.02942" lon="5.43598">
        <ele>948.148</ele>
        <time>2012-08-03T10:43:56.051Z</time>
      </trkpt>
      <trkpt lat="45.02933" lon="5.43594">
        <ele>948.17</ele>
        <time>2012-08-03T10:44:04.632Z</time>
      </trkpt>
      <trkpt lat="45.02923" lon="5.4359">
        <ele>948.037</ele>
        <time>2012-08-03T10:44:12.515Z</time>
      </trkpt>
      <trkpt lat="45.02915" lon="5.43586">
        <ele>948.345</ele>
        <time>2012-08-03T10:44:19.075Z</time>
      </trkpt>
      <trkpt lat="45.02906" lon="5.43583">
        <ele>949.382</ele>
        <time>2012-08-03T10:44:25.438Z</time>
      </trkpt>
      <trkpt lat="45.02898" lon="5.43575">
        <ele>950.075</ele>
        <time>2012-08-03T10:44:32.356Z</time>
      </trkpt>
      <trkpt lat="45.02885" lon="5.43576">
        <ele>949.532</ele>
        <time>2012-08-03T10:44:42.577Z</time>
      </trkpt>
      <trkpt lat="45.02875" lon="5.43574">
        <ele>948.788</ele>
        <time>2012-08-03T10:44:50.678Z</time>
      </trkpt>
      <trkpt lat="45.02866" lon="5.43572">
        <ele>948.895</ele>
        <time>2012-08-03T10:44:57.569Z</time>
      </trkpt>
      <trkpt lat="45.02856" lon="5.4357">
        <ele>949.465</ele>
        <time>2012-08-03T10:45:05.021Z</time>
      </trkpt>
      <trkpt lat="45.02846" lon="5.4357">
        <ele>949.862</ele>
        <time>2012-08-03T10:45:13.136Z</time>
      </trkpt>
      <trkpt lat="45.02836" lon="5.43567">
        <ele>950.413</ele>
        <time>2012-08-03T10:45:21.741Z</time>
      </trkpt>
      <trkpt lat="45.02827" lon="5.43563">
        <ele>951.62</ele>
        <time>2012-08-03T10:45:29.159Z</time>
      </trkpt>
      <trkpt lat="45.02818" lon="5.4356">
        <ele>953.042</ele>
        <time>2012-08-03T10:45:36.687Z</time>
      </trkpt>
      <trkpt lat="45.0281" lon="5.43549">
        <ele>954.043</ele>
        <time>2012-08-03T10:45:44.202Z</time>
      </trkpt>
      <trkpt lat="45.028" lon="5.43547">
        <ele>954.647</ele>
        <time>2012-08-03T10:45:49.833Z</time>
      </trkpt>
      <trkpt lat="45.02791" lon="5.43544">
        <ele>954.954</ele>
        <time>2012-08-03T10:45:55.050Z</time>
      </trkpt>
      <trkpt lat="45.02791" lon="5.43544">
        <ele>954.874</ele>
        <time>2012-08-03T10:46:10.099Z</time>
      </trkpt>
      <trkpt lat="45.02791" lon="5.43544">
        <ele>954.471</ele>
        <time>2012-08-03T10:46:10.199Z</time>
      </trkpt>
      <trkpt lat="45.02768" lon="5.43545">
        <ele>954.191</ele>
        <time>2012-08-03T10:46:40.394Z</time>
      </trkpt>
      <trkpt lat="45.02759" lon="5.43546">
        <ele>954.351</ele>
        <time>2012-08-03T10:46:50.346Z</time>
      </trkpt>
      <trkpt lat="45.02749" lon="5.43542">
        <ele>954.827</ele>
        <time>2012-08-03T10:47:02.350Z</time>
      </trkpt>
      <trkpt lat="45.0274" lon="5.43537">
        <ele>955.396</ele>
        <time>2012-08-03T10:47:12.949Z</time>
      </trkpt>
      <trkpt lat="45.02736" lon="5.43522">
        <ele>955.826</ele>
        <time>2012-08-03T10:47:19.753Z</time>
      </trkpt>
      <trkpt lat="45.02731" lon="5.43508">
        <ele>956.402</ele>
        <time>2012-08-03T10:47:24.421Z</time>
      </trkpt>
      <trkpt lat="45.02729" lon="5.43495">
        <ele>957.48</ele>
        <time>2012-08-03T10:47:28.710Z</time>
      </trkpt>
      <trkpt lat="45.02725" lon="5.43481">
        <ele>958.542</ele>
        <time>2012-08-03T10:47:33.486Z</time>
      </trkpt>
      <trkpt lat="45.0272" lon="5.43469">
        <ele>959.171</ele>
        <time>2012-08-03T10:47:38.353Z</time>
      </trkpt>
      <trkpt lat="45.02714" lon="5.43459">
        <ele>959.597</ele>
        <time>2012-08-03T10:47:43.308Z</time>
      </trkpt>
      <trkpt lat="45.02706" lon="5.43452">
        <ele>959.739</ele>
        <time>2012-08-03T10:47:48.359Z</time>
      </trkpt>
      <trkpt lat="45.02697" lon="5.43444">
        <ele>959.468</ele>
        <time>2012-08-03T10:47:54.441Z</time>
      </trkpt>
      <trkpt lat="45.0269" lon="5.43436">
        <ele>959.086</ele>
        <time>2012-08-03T10:48:00.004Z</time>
      </trkpt>
      <trkpt lat="45.02687" lon="5.43424">
        <ele>958.875</ele>
        <time>2012-08-03T10:48:05.932Z</time>
      </trkpt>
      <trkpt lat="45.02687" lon="5.43411">
        <ele>958.826</ele>
        <time>2012-08-03T10:48:11.841Z</time>
      </trkpt>
      <trkpt lat="45.02687" lon="5.43397">
        <ele>958.849</ele>
        <time>2012-08-03T10:48:17.827Z</time>
      </trkpt>
      <trkpt lat="45.02689" lon="5.43383">
        <ele>958.88</ele>
        <time>2012-08-03T10:48:23.451Z</time>
      </trkpt>
      <trkpt lat="45.02688" lon="5.4337">
        <ele>959.035</ele>
        <time>2012-08-03T10:48:28.859Z</time>
      </trkpt>
      <trkpt lat="45.02688" lon="5.43357">
        <ele>959.537</ele>
        <time>2012-08-03T10:48:34.524Z</time>
      </trkpt>
      <trkpt lat="45.02689" lon="5.43342">
        <ele>960.403</ele>
        <time>2012-08-03T10:48:40.885Z</time>
      </trkpt>
      <trkpt lat="45.02691" lon="5.43329">
        <ele>961.305</ele>
        <time>2012-08-03T10:48:47.099Z</time>
      </trkpt>
      <trkpt lat="45.02692" lon="5.43315">
        <ele>962.013</ele>
        <time>2012-08-03T10:48:53.173Z</time>
      </trkpt>
      <trkpt lat="45.02692" lon="5.43315">
        <ele>962.544</ele>
        <time>2012-08-03T10:49:12.216Z</time>
      </trkpt>
      <trkpt lat="45.02692" lon="5.43315">
        <ele>962.88</ele>
        <time>2012-08-03T10:49:12.316Z</time>
      </trkpt>
      <trkpt lat="45.02695" lon="5.43278">
        <ele>962.982</ele>
        <time>2012-08-03T10:50:01.735Z</time>
      </trkpt>
      <trkpt lat="45.02698" lon="5.43265">
        <ele>963.238</ele>
        <time>2012-08-03T10:50:13.028Z</time>
      </trkpt>
      <trkpt lat="45.02699" lon="5.43252">
        <ele>964.053</ele>
        <time>2012-08-03T10:50:23.941Z</time>
      </trkpt>
      <trkpt lat="45.02701" lon="5.43239">
        <ele>966.092</ele>
        <time>2012-08-03T10:50:35.008Z</time>
      </trkpt>
      <trkpt lat="45.02703" lon="5.43226">
        <ele>969.599</ele>
        <time>2012-08-03T10:50:46.066Z</time>
      </trkpt>
      <trkpt lat="45.02705" lon="5.43213">
        <ele>973.273</ele>
        <time>2012-08-03T10:50:57.333Z</time>
      </trkpt>
      <trkpt lat="45.02707" lon="5.432">
        <ele>975.569</ele>
        <time>2012-08-03T10:51:08.607Z</time>
      </trkpt>
      <trkpt lat="45.02709" lon="5.43187">
        <ele>976.525</ele>
        <time>2012-08-03T10:51:19.870Z</time>
      </trkpt>
      <trkpt lat="45.02711" lon="5.43174">
        <ele>976.845</ele>
        <time>2012-08-03T10:51:30.880Z</time>
      </trkpt>
      <trkpt lat="45.02713" lon="5.43161">
        <ele>977.091</ele>
        <time>2012-08-03T10:51:42.180Z</time>
      </trkpt>
      <trkpt lat="45.02714" lon="5.43147">
        <ele>977.578</ele>
        <time>2012-08-03T10:51:53.389Z</time>
      </trkpt>
      <trkpt lat="45.02714" lon="5.43134">
        <ele>978.407</ele>
        <time>2012-08-03T10:52:04.548Z</time>
      </trkpt>
      <trkpt lat="45.02714" lon="5.43121">
        <ele>979.423</ele>
        <time>2012-08-03T10:52:16.105Z</time>
      </trkpt>
      <trkpt lat="45.02722" lon="5.43111">
        <ele>980.484</ele>
        <time>2012-08-03T10:52:27.239Z</time>
      </trkpt>
      <trkpt lat="45.0273" lon="5.43104">
        <ele>981.939</ele>
        <time>2012-08-03T10:52:35.202Z</time>
      </trkpt>
      <trkpt lat="45.02738" lon="5.43096">
        <ele>984.584</ele>
        <time>2012-08-03T10:52:42.272Z</time>
      </trkpt>
      <trkpt lat="45.02746" lon="5.43087">
        <ele>988.129</ele>
        <time>2012-08-03T10:52:50.367Z</time>
      </trkpt>
      <trkpt lat="45.02754" lon="5.43079">
        <ele>991.264</ele>
        <time>2012-08-03T10:52:58.534Z</time>
      </trkpt>
      <trkpt lat="45.02761" lon="5.43073">
        <ele>993.4</ele>
        <time>2012-08-03T10:53:05.275Z</time>
      </trkpt>
      <trkpt lat="45.02769" lon="5.43064">
        <ele>994.784</ele>
        <time>2012-08-03T10:53:12.440Z</time>
      </trkpt>
      <trkpt lat="45.02776" lon="5.43055">
        <ele>996.024</ele>
        <time>2012-08-03T10:53:19.485Z</time>
      </trkpt>
      <trkpt lat="45.02785" lon="5.43046">
        <ele>997.469</ele>
        <time>2012-08-03T10:53:28.032Z</time>
      </trkpt>
      <trkpt lat="45.02785" lon="5.43046">
        <ele>998.616</ele>
        <time>2012-08-03T10:53:38.133Z</time>
      </trkpt>
      <trkpt lat="45.02785" lon="5.43046">
        <ele>999.067</ele>
        <time>2012-08-03T11:12:14.993Z</time>
      </trkpt>
      <trkpt lat="45.02792" lon="5.43022">
        <ele>999.218</ele>
        <time>2012-08-03T11:12:28.662Z</time>
      </trkpt>
      <trkpt lat="45.02797" lon="5.43004">
        <ele>999.459</ele>
        <time>2012-08-03T11:12:32.618Z</time>
      </trkpt>
      <trkpt lat="45.028" lon="5.42991">
        <ele>999.873</ele>
        <time>2012-08-03T11:12:35.163Z</time>
      </trkpt>
      <trkpt lat="45.02803" lon="5.42973">
        <ele>1000.648</ele>
        <time>2012-08-03T11:12:39.000Z</time>
      </trkpt>
      <trkpt lat="45.02803" lon="5.4296">
        <ele>1001.764</ele>
        <time>2012-08-03T11:12:42.166Z</time>
      </trkpt>
      <trkpt lat="45.02799" lon="5.42946">
        <ele>1002.796</ele>
        <time>2012-08-03T11:12:46.983Z</time>
      </trkpt>
      <trkpt lat="45.02798" lon="5.42933">
        <ele>1003.51</ele>
        <time>2012-08-03T11:12:51.175Z</time>
      </trkpt>
      <trkpt lat="45.02794" lon="5.42917">
        <ele>1003.891</ele>
        <time>2012-08-03T11:12:56.286Z</time>
      </trkpt>
      <trkpt lat="45.02789" lon="5.42905">
        <ele>1004.113</ele>
        <time>2012-08-03T11:13:00.253Z</time>
      </trkpt>
      <trkpt lat="45.02787" lon="5.42892">
        <ele>1004.427</ele>
        <time>2012-08-03T11:13:03.492Z</time>
      </trkpt>
      <trkpt lat="45.02789" lon="5.42876">
        <ele>1004.599</ele>
        <time>2012-08-03T11:13:06.641Z</time>
      </trkpt>
      <trkpt lat="45.02805" lon="5.42852">
        <ele>1004.384</ele>
        <time>2012-08-03T11:13:11.323Z</time>
      </trkpt>
      <trkpt lat="45.02821" lon="5.42845">
        <ele>1003.758</ele>
        <time>2012-08-03T11:13:14.030Z</time>
      </trkpt>
      <trkpt lat="45.02831" lon="5.42832">
        <ele>1002.837</ele>
        <time>2012-08-03T11:13:16.154Z</time>
      </trkpt>
      <trkpt lat="45.02851" lon="5.42828">
        <ele>1002.046</ele>
        <time>2012-08-03T11:13:18.947Z</time>
      </trkpt>
      <trkpt lat="45.02867" lon="5.42813">
        <ele>1001.714</ele>
        <time>2012-08-03T11:13:21.600Z</time>
      </trkpt>
      <trkpt lat="45.0288" lon="5.42795">
        <ele>1001.828</ele>
        <time>2012-08-03T11:13:25.024Z</time>
      </trkpt>
      <trkpt lat="45.02895" lon="5.42782">
        <ele>1002.264</ele>
        <time>2012-08-03T11:13:29.576Z</time>
      </trkpt>
      <trkpt lat="45.02904" lon="5.42771">
        <ele>1002.836</ele>
        <time>2012-08-03T11:13:33.739Z</time>
      </trkpt>
      <trkpt lat="45.02915" lon="5.42759">
        <ele>1003.398</ele>
        <time>2012-08-03T11:13:39.481Z</time>
      </trkpt>
      <trkpt lat="45.02917" lon="5.42742">
        <ele>1003.795</ele>
        <time>2012-08-03T11:13:44.738Z</time>
      </trkpt>
      <trkpt lat="45.02917" lon="5.42728">
        <ele>1003.934</ele>
        <time>2012-08-03T11:13:48.598Z</time>
      </trkpt>
      <trkpt lat="45.02918" lon="5.42716">
        <ele>1003.373</ele>
        <time>2012-08-03T11:13:51.918Z</time>
      </trkpt>
      <trkpt lat="45.02919" lon="5.427">
        <ele>1001.749</ele>
        <time>2012-08-03T11:13:55.290Z</time>
      </trkpt>
      <trkpt lat="45.02919" lon="5.42688">
        <ele>999.879</ele>
        <time>2012-08-03T11:13:57.487Z</time>
      </trkpt>
      <trkpt lat="45.02919" lon="5.42673">
        <ele>998.659</ele>
        <time>2012-08-03T11:13:59.729Z</time>
      </trkpt>
      <trkpt lat="45.02922" lon="5.42659">
        <ele>998.019</ele>
        <time>2012-08-03T11:14:01.772Z</time>
      </trkpt>
      <trkpt lat="45.02925" lon="5.42643">
        <ele>997.747</ele>
        <time>2012-08-03T11:14:04.058Z</time>
      </trkpt>
      <trkpt lat="45.02939" lon="5.42631">
        <ele>997.724</ele>
        <time>2012-08-03T11:14:07.273Z</time>
      </trkpt>
      <trkpt lat="45.0295" lon="5.42629">
        <ele>997.785</ele>
        <time>2012-08-03T11:14:09.668Z</time>
      </trkpt>
      <trkpt lat="45.0296" lon="5.42628">
        <ele>997.699</ele>
        <time>2012-08-03T11:14:11.948Z</time>
      </trkpt>
      <trkpt lat="45.0297" lon="5.42627">
        <ele>996.947</ele>
        <time>2012-08-03T11:14:14.272Z</time>
      </trkpt>
      <trkpt lat="45.02983" lon="5.42622">
        <ele>995.499</ele>
        <time>2012-08-03T11:14:17.572Z</time>
      </trkpt>
      <trkpt lat="45.02995" lon="5.42616">
        <ele>994.21</ele>
        <time>2012-08-03T11:14:20.463Z</time>
      </trkpt>
      <trkpt lat="45.03005" lon="5.4261">
        <ele>993.654</ele>
        <time>2012-08-03T11:14:23.248Z</time>
      </trkpt>
      <trkpt lat="45.03015" lon="5.42601">
        <ele>993.603</ele>
        <time>2012-08-03T11:14:26.167Z</time>
      </trkpt>
      <trkpt lat="45.03024" lon="5.4259">
        <ele>993.723</ele>
        <time>2012-08-03T11:14:29.458Z</time>
      </trkpt>
      <trkpt lat="45.03033" lon="5.42579">
        <ele>993.689</ele>
        <time>2012-08-03T11:14:32.631Z</time>
      </trkpt>
      <trkpt lat="45.0304" lon="5.42569">
        <ele>993.374</ele>
        <time>2012-08-03T11:14:35.719Z</time>
      </trkpt>
      <trkpt lat="45.03047" lon="5.4256">
        <ele>993.008</ele>
        <time>2012-08-03T11:14:38.652Z</time>
      </trkpt>
      <trkpt lat="45.03054" lon="5.42547">
        <ele>992.823</ele>
        <time>2012-08-03T11:14:42.575Z</time>
      </trkpt>
      <trkpt lat="45.03061" lon="5.42534">
        <ele>992.788</ele>
        <time>2012-08-03T11:14:46.873Z</time>
      </trkpt>
      <trkpt lat="45.03067" lon="5.42521">
        <ele>992.814</ele>
        <time>2012-08-03T11:14:51.276Z</time>
      </trkpt>
      <trkpt lat="45.03072" lon="5.4251">
        <ele>992.982</ele>
        <time>2012-08-03T11:14:55.393Z</time>
      </trkpt>
      <trkpt lat="45.03078" lon="5.425">
        <ele>993.495</ele>
        <time>2012-08-03T11:14:59.543Z</time>
      </trkpt>
      <trkpt lat="45.03083" lon="5.42489">
        <ele>994.227</ele>
        <time>2012-08-03T11:15:03.987Z</time>
      </trkpt>
      <trkpt lat="45.03093" lon="5.42482">
        <ele>994.908</ele>
        <time>2012-08-03T11:15:09.064Z</time>
      </trkpt>
      <trkpt lat="45.03102" lon="5.42478">
        <ele>995.606</ele>
        <time>2012-08-03T11:15:13.869Z</time>
      </trkpt>
      <trkpt lat="45.03111" lon="5.42476">
        <ele>996.607</ele>
        <time>2012-08-03T11:15:18.241Z</time>
      </trkpt>
      <trkpt lat="45.0312" lon="5.42474">
        <ele>997.811</ele>
        <time>2012-08-03T11:15:22.671Z</time>
      </trkpt>
      <trkpt lat="45.03128" lon="5.42465">
        <ele>998.846</ele>
        <time>2012-08-03T11:15:26.962Z</time>
      </trkpt>
      <trkpt lat="45.03126" lon="5.42451">
        <ele>999.675</ele>
        <time>2012-08-03T11:15:31.079Z</time>
      </trkpt>
      <trkpt lat="45.03119" lon="5.4244">
        <ele>1000.398</ele>
        <time>2012-08-03T11:15:35.394Z</time>
      </trkpt>
      <trkpt lat="45.0311" lon="5.42436">
        <ele>1000.843</ele>
        <time>2012-08-03T11:15:39.575Z</time>
      </trkpt>
      <trkpt lat="45.03099" lon="5.42432">
        <ele>1000.972</ele>
        <time>2012-08-03T11:15:43.923Z</time>
      </trkpt>
      <trkpt lat="45.03091" lon="5.42426">
        <ele>1000.942</ele>
        <time>2012-08-03T11:15:47.621Z</time>
      </trkpt>
      <trkpt lat="45.03084" lon="5.42416">
        <ele>1001.021</ele>
        <time>2012-08-03T11:15:51.431Z</time>
      </trkpt>
      <trkpt lat="45.03079" lon="5.42405">
        <ele>1001.345</ele>
        <time>2012-08-03T11:15:55.037Z</time>
      </trkpt>
      <trkpt lat="45.03074" lon="5.42394">
        <ele>1001.704</ele>
        <time>2012-08-03T11:15:58.680Z</time>
      </trkpt>
      <trkpt lat="45.03067" lon="5.42384">
        <ele>1001.882</ele>
        <time>2012-08-03T11:16:02.408Z</time>
      </trkpt>
      <trkpt lat="45.03059" lon="5.42376">
        <ele>1002.052</ele>
        <time>2012-08-03T11:16:06.305Z</time>
      </trkpt>
      <trkpt lat="45.0305" lon="5.42369">
        <ele>1002.384</ele>
        <time>2012-08-03T11:16:10.295Z</time>
      </trkpt>
      <trkpt lat="45.03041" lon="5.42364">
        <ele>1002.725</ele>
        <time>2012-08-03T11:16:14.124Z</time>
      </trkpt>
      <trkpt lat="45.03031" lon="5.42361">
        <ele>1003.024</ele>
        <time>2012-08-03T11:16:17.993Z</time>
      </trkpt>
      <trkpt lat="45.03022" lon="5.42361">
        <ele>1003.684</ele>
        <time>2012-08-03T11:16:21.695Z</time>
      </trkpt>
      <trkpt lat="45.03013" lon="5.42361">
        <ele>1004.746</ele>
        <time>2012-08-03T11:16:25.329Z</time>
      </trkpt>
      <trkpt lat="45.03004" lon="5.4236">
        <ele>1005.632</ele>
        <time>2012-08-03T11:16:28.752Z</time>
      </trkpt>
      <trkpt lat="45.02994" lon="5.42355">
        <ele>1005.996</ele>
        <time>2012-08-03T11:16:32.603Z</time>
      </trkpt>
      <trkpt lat="45.02984" lon="5.42347">
        <ele>1006.017</ele>
        <time>2012-08-03T11:16:36.343Z</time>
      </trkpt>
      <trkpt lat="45.02977" lon="5.42338">
        <ele>1005.791</ele>
        <time>2012-08-03T11:16:39.108Z</time>
      </trkpt>
      <trkpt lat="45.02968" lon="5.4233">
        <ele>1005.221</ele>
        <time>2012-08-03T11:16:42.098Z</time>
      </trkpt>
      <trkpt lat="45.02956" lon="5.42325">
        <ele>1004.463</ele>
        <time>2012-08-03T11:16:45.416Z</time>
      </trkpt>
      <trkpt lat="45.02944" lon="5.42325">
        <ele>1003.917</ele>
        <time>2012-08-03T11:16:48.732Z</time>
      </trkpt>
      <trkpt lat="45.02935" lon="5.42328">
        <ele>1003.722</ele>
        <time>2012-08-03T11:16:51.508Z</time>
      </trkpt>
      <trkpt lat="45.02926" lon="5.42331">
        <ele>1003.731</ele>
        <time>2012-08-03T11:16:54.654Z</time>
      </trkpt>
      <trkpt lat="45.02915" lon="5.42332">
        <ele>1003.932</ele>
        <time>2012-08-03T11:16:58.289Z</time>
      </trkpt>
      <trkpt lat="45.02905" lon="5.4233">
        <ele>1004.336</ele>
        <time>2012-08-03T11:17:01.920Z</time>
      </trkpt>
      <trkpt lat="45.02893" lon="5.42328">
        <ele>1004.859</ele>
        <time>2012-08-03T11:17:05.870Z</time>
      </trkpt>
      <trkpt lat="45.02883" lon="5.42327">
        <ele>1005.394</ele>
        <time>2012-08-03T11:17:08.991Z</time>
      </trkpt>
      <trkpt lat="45.02873" lon="5.42326">
        <ele>1005.784</ele>
        <time>2012-08-03T11:17:11.885Z</time>
      </trkpt>
      <trkpt lat="45.02862" lon="5.42325">
        <ele>1005.926</ele>
        <time>2012-08-03T11:17:15.567Z</time>
      </trkpt>
      <trkpt lat="45.0285" lon="5.42323">
        <ele>1005.783</ele>
        <time>2012-08-03T11:17:19.180Z</time>
      </trkpt>
      <trkpt lat="45.02839" lon="5.42323">
        <ele>1005.379</ele>
        <time>2012-08-03T11:17:22.124Z</time>
      </trkpt>
      <trkpt lat="45.02827" lon="5.42324">
        <ele>1004.978</ele>
        <time>2012-08-03T11:17:25.304Z</time>
      </trkpt>
      <trkpt lat="45.02812" lon="5.42323">
        <ele>1004.653</ele>
        <time>2012-08-03T11:17:29.050Z</time>
      </trkpt>
      <trkpt lat="45.02802" lon="5.4232">
        <ele>1004.267</ele>
        <time>2012-08-03T11:17:31.841Z</time>
      </trkpt>
      <trkpt lat="45.02792" lon="5.42316">
        <ele>1003.932</ele>
        <time>2012-08-03T11:17:35.256Z</time>
      </trkpt>
      <trkpt lat="45.02782" lon="5.42312">
        <ele>1003.789</ele>
        <time>2012-08-03T11:17:38.730Z</time>
      </trkpt>
      <trkpt lat="45.02773" lon="5.42309">
        <ele>1003.916</ele>
        <time>2012-08-03T11:17:42.453Z</time>
      </trkpt>
      <trkpt lat="45.02764" lon="5.42305">
        <ele>1004.446</ele>
        <time>2012-08-03T11:17:46.060Z</time>
      </trkpt>
      <trkpt lat="45.02754" lon="5.42301">
        <ele>1005.341</ele>
        <time>2012-08-03T11:17:50.422Z</time>
      </trkpt>
      <trkpt lat="45.02745" lon="5.42297">
        <ele>1006.257</ele>
        <time>2012-08-03T11:17:54.291Z</time>
      </trkpt>
      <trkpt lat="45.02735" lon="5.42292">
        <ele>1007.105</ele>
        <time>2012-08-03T11:17:58.734Z</time>
      </trkpt>
      <trkpt lat="45.02726" lon="5.42288">
        <ele>1007.994</ele>
        <time>2012-08-03T11:18:02.707Z</time>
      </trkpt>
      <trkpt lat="45.02719" lon="5.42277">
        <ele>1008.973</ele>
        <time>2012-08-03T11:18:07.423Z</time>
      </trkpt>
      <trkpt lat="45.02721" lon="5.42263">
        <ele>1009.969</ele>
        <time>2012-08-03T11:18:12.612Z</time>
      </trkpt>
      <trkpt lat="45.02721" lon="5.42249">
        <ele>1010.852</ele>
        <time>2012-08-03T11:18:16.797Z</time>
      </trkpt>
      <trkpt lat="45.02722" lon="5.42236">
        <ele>1011.489</ele>
        <time>2012-08-03T11:18:20.383Z</time>
      </trkpt>
      <trkpt lat="45.02725" lon="5.42223">
        <ele>1011.855</ele>
        <time>2012-08-03T11:18:24.132Z</time>
      </trkpt>
      <trkpt lat="45.02732" lon="5.42214">
        <ele>1011.948</ele>
        <time>2012-08-03T11:18:27.716Z</time>
      </trkpt>
      <trkpt lat="45.02741" lon="5.42209">
        <ele>1012.052</ele>
        <time>2012-08-03T11:18:31.738Z</time>
      </trkpt>
      <trkpt lat="45.02747" lon="5.42199">
        <ele>1012.36</ele>
        <time>2012-08-03T11:18:36.461Z</time>
      </trkpt>
      <trkpt lat="45.0275" lon="5.42184">
        <ele>1012.7</ele>
        <time>2012-08-03T11:18:42.237Z</time>
      </trkpt>
      <trkpt lat="45.02753" lon="5.42171">
        <ele>1013.006</ele>
        <time>2012-08-03T11:18:47.060Z</time>
      </trkpt>
      <trkpt lat="45.02755" lon="5.42158">
        <ele>1013.534</ele>
        <time>2012-08-03T11:18:51.879Z</time>
      </trkpt>
      <trkpt lat="45.02762" lon="5.42149">
        <ele>1014.237</ele>
        <time>2012-08-03T11:18:57.206Z</time>
      </trkpt>
      <trkpt lat="45.02772" lon="5.42145">
        <ele>1014.754</ele>
        <time>2012-08-03T11:19:03.612Z</time>
      </trkpt>
      <trkpt lat="45.0278" lon="5.42141">
        <ele>1014.942</ele>
        <time>2012-08-03T11:19:09.696Z</time>
      </trkpt>
      <trkpt lat="45.02788" lon="5.42134">
        <ele>1014.937</ele>
        <time>2012-08-03T11:19:15.524Z</time>
      </trkpt>
      <trkpt lat="45.02795" lon="5.42123">
        <ele>1014.879</ele>
        <time>2012-08-03T11:19:22.105Z</time>
      </trkpt>
      <trkpt lat="45.02796" lon="5.42111">
        <ele>1014.837</ele>
        <time>2012-08-03T11:19:28.198Z</time>
      </trkpt>
      <trkpt lat="45.02792" lon="5.42098">
        <ele>1014.822</ele>
        <time>2012-08-03T11:19:35.138Z</time>
      </trkpt>
      <trkpt lat="45.02783" lon="5.42093">
        <ele>1015.237</ele>
        <time>2012-08-03T11:19:43.981Z</time>
      </trkpt>
      <trkpt lat="45.02774" lon="5.42088">
        <ele>1016.321</ele>
        <time>2012-08-03T11:19:52.574Z</time>
      </trkpt>
      <trkpt lat="45.02767" lon="5.42079">
        <ele>1017.433</ele>
        <time>2012-08-03T11:20:00.827Z</time>
      </trkpt>
      <trkpt lat="45.02759" lon="5.4207">
        <ele>1018.098</ele>
        <time>2012-08-03T11:20:08.546Z</time>
      </trkpt>
      <trkpt lat="45.02751" lon="5.42067">
        <ele>1018.538</ele>
        <time>2012-08-03T11:20:15.637Z</time>
      </trkpt>
      <trkpt lat="45.02743" lon="5.42059">
        <ele>1018.955</ele>
        <time>2012-08-03T11:20:23.968Z</time>
      </trkpt>
      <trkpt lat="45.02733" lon="5.42057">
        <ele>1019.399</ele>
        <time>2012-08-03T11:20:33.195Z</time>
      </trkpt>
      <trkpt lat="45.02724" lon="5.42054">
        <ele>1020.168</ele>
        <time>2012-08-03T11:20:42.769Z</time>
      </trkpt>
      <trkpt lat="45.02715" lon="5.42049">
        <ele>1021.525</ele>
        <time>2012-08-03T11:20:52.738Z</time>
      </trkpt>
      <trkpt lat="45.02708" lon="5.42042">
        <ele>1023.964</ele>
        <time>2012-08-03T11:21:02.928Z</time>
      </trkpt>
      <trkpt lat="45.02701" lon="5.42032">
        <ele>1027.48</ele>
        <time>2012-08-03T11:21:12.621Z</time>
      </trkpt>
      <trkpt lat="45.02695" lon="5.4202">
        <ele>1030.79</ele>
        <time>2012-08-03T11:21:21.823Z</time>
      </trkpt>
      <trkpt lat="45.02687" lon="5.42016">
        <ele>1032.672</ele>
        <time>2012-08-03T11:21:30.206Z</time>
      </trkpt>
      <trkpt lat="45.02677" lon="5.42014">
        <ele>1033.696</ele>
        <time>2012-08-03T11:21:38.454Z</time>
      </trkpt>
      <trkpt lat="45.02669" lon="5.42008">
        <ele>1035.666</ele>
        <time>2012-08-03T11:21:45.960Z</time>
      </trkpt>
      <trkpt lat="45.02661" lon="5.42">
        <ele>1039.476</ele>
        <time>2012-08-03T11:21:53.751Z</time>
      </trkpt>
      <trkpt lat="45.02653" lon="5.41992">
        <ele>1043.515</ele>
        <time>2012-08-03T11:22:01.519Z</time>
      </trkpt>
      <trkpt lat="45.02646" lon="5.41982">
        <ele>1046.296</ele>
        <time>2012-08-03T11:22:08.886Z</time>
      </trkpt>
      <trkpt lat="45.02639" lon="5.41972">
        <ele>1048.004</ele>
        <time>2012-08-03T11:22:15.946Z</time>
      </trkpt>
      <trkpt lat="45.02635" lon="5.41959">
        <ele>1048.91</ele>
        <time>2012-08-03T11:22:22.020Z</time>
      </trkpt>
      <trkpt lat="45.02632" lon="5.41946">
        <ele>1049.244</ele>
        <time>2012-08-03T11:22:28.180Z</time>
      </trkpt>
      <trkpt lat="45.02625" lon="5.41938">
        <ele>1049.492</ele>
        <time>2012-08-03T11:22:34.360Z</time>
      </trkpt>
      <trkpt lat="45.02624" lon="5.41924">
        <ele>1049.86</ele>
        <time>2012-08-03T11:22:40.063Z</time>
      </trkpt>
      <trkpt lat="45.0263" lon="5.41913">
        <ele>1050.322</ele>
        <time>2012-08-03T11:22:45.542Z</time>
      </trkpt>
      <trkpt lat="45.02628" lon="5.419">
        <ele>1050.841</ele>
        <time>2012-08-03T11:22:52.579Z</time>
      </trkpt>
      <trkpt lat="45.02631" lon="5.41886">
        <ele>1051.356</ele>
        <time>2012-08-03T11:23:01.378Z</time>
      </trkpt>
      <trkpt lat="45.02631" lon="5.41873">
        <ele>1051.871</ele>
        <time>2012-08-03T11:23:10.185Z</time>
      </trkpt>
      <trkpt lat="45.02634" lon="5.41859">
        <ele>1052.368</ele>
        <time>2012-08-03T11:23:19.691Z</time>
      </trkpt>
      <trkpt lat="45.0264" lon="5.41849">
        <ele>1052.733</ele>
        <time>2012-08-03T11:23:26.486Z</time>
      </trkpt>
      <trkpt lat="45.02648" lon="5.4184">
        <ele>1052.866</ele>
        <time>2012-08-03T11:23:34.030Z</time>
      </trkpt>
      <trkpt lat="45.0265" lon="5.41826">
        <ele>1053</ele>
        <time>2012-08-03T11:23:41.193Z</time>
      </trkpt>
      <trkpt lat="45.02648" lon="5.41812">
        <ele>1053.457</ele>
        <time>2012-08-03T11:23:48.101Z</time>
      </trkpt>
      <trkpt lat="45.02642" lon="5.418">
        <ele>1054.295</ele>
        <time>2012-08-03T11:23:55.479Z</time>
      </trkpt>
      <trkpt lat="45.02635" lon="5.4179">
        <ele>1055.327</ele>
        <time>2012-08-03T11:24:02.345Z</time>
      </trkpt>
      <trkpt lat="45.02632" lon="5.41778">
        <ele>1056.259</ele>
        <time>2012-08-03T11:24:09.084Z</time>
      </trkpt>
      <trkpt lat="45.02632" lon="5.41778">
        <ele>1056.803</ele>
        <time>2012-08-03T11:24:26.298Z</time>
      </trkpt>
      <trkpt lat="45.02632" lon="5.41778">
        <ele>1056.948</ele>
        <time>2012-08-03T11:25:17.870Z</time>
      </trkpt>
      <trkpt lat="45.02626" lon="5.41749">
        <ele>1057.177</ele>
        <time>2012-08-03T11:25:35.971Z</time>
      </trkpt>
      <trkpt lat="45.02625" lon="5.41736">
        <ele>1057.959</ele>
        <time>2012-08-03T11:25:42.113Z</time>
      </trkpt>
      <trkpt lat="45.02626" lon="5.41723">
        <ele>1059.014</ele>
        <time>2012-08-03T11:25:48.370Z</time>
      </trkpt>
      <trkpt lat="45.02629" lon="5.4171">
        <ele>1060.275</ele>
        <time>2012-08-03T11:25:55.431Z</time>
      </trkpt>
      <trkpt lat="45.02633" lon="5.41698">
        <ele>1062.223</ele>
        <time>2012-08-03T11:26:01.701Z</time>
      </trkpt>
      <trkpt lat="45.02636" lon="5.41685">
        <ele>1064.532</ele>
        <time>2012-08-03T11:26:08.566Z</time>
      </trkpt>
      <trkpt lat="45.02638" lon="5.4167">
        <ele>1066.383</ele>
        <time>2012-08-03T11:26:15.504Z</time>
      </trkpt>
      <trkpt lat="45.02634" lon="5.41658">
        <ele>1067.65</ele>
        <time>2012-08-03T11:26:22.064Z</time>
      </trkpt>
      <trkpt lat="45.02626" lon="5.41649">
        <ele>1068.607</ele>
        <time>2012-08-03T11:26:28.933Z</time>
      </trkpt>
      <trkpt lat="45.02619" lon="5.41641">
        <ele>1069.637</ele>
        <time>2012-08-03T11:26:36.185Z</time>
      </trkpt>
      <trkpt lat="45.02611" lon="5.41633">
        <ele>1071.479</ele>
        <time>2012-08-03T11:26:43.784Z</time>
      </trkpt>
      <trkpt lat="45.02607" lon="5.4162">
        <ele>1074.266</ele>
        <time>2012-08-03T11:26:51.360Z</time>
      </trkpt>
      <trkpt lat="45.02611" lon="5.41607">
        <ele>1077.059</ele>
        <time>2012-08-03T11:26:58.900Z</time>
      </trkpt>
      <trkpt lat="45.02616" lon="5.41595">
        <ele>1079.016</ele>
        <time>2012-08-03T11:27:06.119Z</time>
      </trkpt>
      <trkpt lat="45.02616" lon="5.41579">
        <ele>1079.968</ele>
        <time>2012-08-03T11:27:12.353Z</time>
      </trkpt>
      <trkpt lat="45.02615" lon="5.41566">
        <ele>1080.126</ele>
        <time>2012-08-03T11:27:16.356Z</time>
      </trkpt>
      <trkpt lat="45.02616" lon="5.41551">
        <ele>1079.698</ele>
        <time>2012-08-03T11:27:20.606Z</time>
      </trkpt>
      <trkpt lat="45.02618" lon="5.41537">
        <ele>1078.818</ele>
        <time>2012-08-03T11:27:24.663Z</time>
      </trkpt>
      <trkpt lat="45.02615" lon="5.41523">
        <ele>1078.003</ele>
        <time>2012-08-03T11:27:29.290Z</time>
      </trkpt>
      <trkpt lat="45.02611" lon="5.41511">
        <ele>1077.64</ele>
        <time>2012-08-03T11:27:34.013Z</time>
      </trkpt>
      <trkpt lat="45.02618" lon="5.41502">
        <ele>1077.738</ele>
        <time>2012-08-03T11:27:39.096Z</time>
      </trkpt>
      <trkpt lat="45.02626" lon="5.41492">
        <ele>1079.276</ele>
        <time>2012-08-03T11:27:44.750Z</time>
      </trkpt>
      <trkpt lat="45.02629" lon="5.41479">
        <ele>1082.73</ele>
        <time>2012-08-03T11:27:50.086Z</time>
      </trkpt>
      <trkpt lat="45.02628" lon="5.41466">
        <ele>1086.387</ele>
        <time>2012-08-03T11:27:55.780Z</time>
      </trkpt>
      <trkpt lat="45.02624" lon="5.41453">
        <ele>1088.825</ele>
        <time>2012-08-03T11:28:02.807Z</time>
      </trkpt>
      <trkpt lat="45.02623" lon="5.41439">
        <ele>1090.265</ele>
        <time>2012-08-03T11:28:09.171Z</time>
      </trkpt>
      <trkpt lat="45.02623" lon="5.41439">
        <ele>1090.931</ele>
        <time>2012-08-03T11:28:26.069Z</time>
      </trkpt>
      <trkpt lat="45.02623" lon="5.41439">
        <ele>1091.02</ele>
        <time>2012-08-03T11:28:58.056Z</time>
      </trkpt>
      <trkpt lat="45.02604" lon="5.4143">
        <ele>1090.898</ele>
        <time>2012-08-03T11:29:21.193Z</time>
      </trkpt>
      <trkpt lat="45.02604" lon="5.4143">
        <ele>1090.643</ele>
        <time>2012-08-03T11:29:34.215Z</time>
      </trkpt>
      <trkpt lat="45.02604" lon="5.4143">
        <ele>1090.22</ele>
        <time>2012-08-03T11:29:35.972Z</time>
      </trkpt>
      <trkpt lat="45.02585" lon="5.41413">
        <ele>1089.819</ele>
        <time>2012-08-03T11:30:18.590Z</time>
      </trkpt>
      <trkpt lat="45.02584" lon="5.414">
        <ele>1089.628</ele>
        <time>2012-08-03T11:30:29.872Z</time>
      </trkpt>
      <trkpt lat="45.02591" lon="5.41392">
        <ele>1089.609</ele>
        <time>2012-08-03T11:30:40.477Z</time>
      </trkpt>
      <trkpt lat="45.02599" lon="5.41388">
        <ele>1090.081</ele>
        <time>2012-08-03T11:30:50.887Z</time>
      </trkpt>
      <trkpt lat="45.02609" lon="5.41387">
        <ele>1091.218</ele>
        <time>2012-08-03T11:31:01.826Z</time>
      </trkpt>
      <trkpt lat="45.02618" lon="5.41383">
        <ele>1093.322</ele>
        <time>2012-08-03T11:31:14.248Z</time>
      </trkpt>
      <trkpt lat="45.02626" lon="5.41378">
        <ele>1096.371</ele>
        <time>2012-08-03T11:31:27.190Z</time>
      </trkpt>
      <trkpt lat="45.02626" lon="5.41378">
        <ele>1099.031</ele>
        <time>2012-08-03T11:31:37.196Z</time>
      </trkpt>
      <trkpt lat="45.02626" lon="5.41378">
        <ele>1100.164</ele>
        <time>2012-08-03T11:31:37.296Z</time>
      </trkpt>
      <trkpt lat="45.02646" lon="5.41365">
        <ele>1100.395</ele>
        <time>2012-08-03T11:32:15.912Z</time>
      </trkpt>
      <trkpt lat="45.02654" lon="5.4136">
        <ele>1100.917</ele>
        <time>2012-08-03T11:32:25.193Z</time>
      </trkpt>
      <trkpt lat="45.02654" lon="5.4136">
        <ele>1102.15</ele>
        <time>2012-08-03T11:32:37.195Z</time>
      </trkpt>
      <trkpt lat="45.02654" lon="5.4136">
        <ele>1102.948</ele>
        <time>2012-08-03T11:33:54.911Z</time>
      </trkpt>
      <trkpt lat="45.02671" lon="5.41337">
        <ele>1102.468</ele>
        <time>2012-08-03T11:34:19.587Z</time>
      </trkpt>
      <trkpt lat="45.02676" lon="5.41325">
        <ele>1103.123</ele>
        <time>2012-08-03T11:34:26.475Z</time>
      </trkpt>
      <trkpt lat="45.0268" lon="5.41311">
        <ele>1107.201</ele>
        <time>2012-08-03T11:34:33.392Z</time>
      </trkpt>
      <trkpt lat="45.02683" lon="5.41297">
        <ele>1112.485</ele>
        <time>2012-08-03T11:34:40.242Z</time>
      </trkpt>
      <trkpt lat="45.02685" lon="5.41284">
        <ele>1116.127</ele>
        <time>2012-08-03T11:34:46.797Z</time>
      </trkpt>
      <trkpt lat="45.02691" lon="5.41273">
        <ele>1118.127</ele>
        <time>2012-08-03T11:34:53.219Z</time>
      </trkpt>
      <trkpt lat="45.02698" lon="5.41264">
        <ele>1119.285</ele>
        <time>2012-08-03T11:34:59.844Z</time>
      </trkpt>
      <trkpt lat="45.02707" lon="5.41258">
        <ele>1120.097</ele>
        <time>2012-08-03T11:35:06.653Z</time>
      </trkpt>
      <trkpt lat="45.02716" lon="5.41253">
        <ele>1120.378</ele>
        <time>2012-08-03T11:35:13.815Z</time>
      </trkpt>
      <trkpt lat="45.02723" lon="5.41246">
        <ele>1119.846</ele>
        <time>2012-08-03T11:35:21.537Z</time>
      </trkpt>
      <trkpt lat="45.02733" lon="5.41237">
        <ele>1118.952</ele>
        <time>2012-08-03T11:35:29.041Z</time>
      </trkpt>
      <trkpt lat="45.0274" lon="5.41229">
        <ele>1118.174</ele>
        <time>2012-08-03T11:35:33.673Z</time>
      </trkpt>
      <trkpt lat="45.02749" lon="5.41233">
        <ele>1117.707</ele>
        <time>2012-08-03T11:35:38.701Z</time>
      </trkpt>
      <trkpt lat="45.02758" lon="5.41239">
        <ele>1117.577</ele>
        <time>2012-08-03T11:35:43.985Z</time>
      </trkpt>
      <trkpt lat="45.02761" lon="5.41227">
        <ele>1117.612</ele>
        <time>2012-08-03T11:35:49.774Z</time>
      </trkpt>
      <trkpt lat="45.02758" lon="5.41213">
        <ele>1117.814</ele>
        <time>2012-08-03T11:35:56.808Z</time>
      </trkpt>
      <trkpt lat="45.02761" lon="5.41199">
        <ele>1118.211</ele>
        <time>2012-08-03T11:36:04.480Z</time>
      </trkpt>
      <trkpt lat="45.02767" lon="5.41188">
        <ele>1118.591</ele>
        <time>2012-08-03T11:36:11.517Z</time>
      </trkpt>
      <trkpt lat="45.02775" lon="5.4118">
        <ele>1118.902</ele>
        <time>2012-08-03T11:36:18.194Z</time>
      </trkpt>
      <trkpt lat="45.02782" lon="5.41172">
        <ele>1119.283</ele>
        <time>2012-08-03T11:36:24.272Z</time>
      </trkpt>
      <trkpt lat="45.02792" lon="5.41167">
        <ele>1119.896</ele>
        <time>2012-08-03T11:36:30.959Z</time>
      </trkpt>
      <trkpt lat="45.02799" lon="5.41158">
        <ele>1120.76</ele>
        <time>2012-08-03T11:36:37.634Z</time>
      </trkpt>
      <trkpt lat="45.02808" lon="5.41153">
        <ele>1121.511</ele>
        <time>2012-08-03T11:36:43.290Z</time>
      </trkpt>
      <trkpt lat="45.02817" lon="5.41148">
        <ele>1121.83</ele>
        <time>2012-08-03T11:36:49.262Z</time>
      </trkpt>
      <trkpt lat="45.02824" lon="5.4114">
        <ele>1121.856</ele>
        <time>2012-08-03T11:36:55.494Z</time>
      </trkpt>
      <trkpt lat="45.02833" lon="5.41138">
        <ele>1122.061</ele>
        <time>2012-08-03T11:37:02.841Z</time>
      </trkpt>
      <trkpt lat="45.02842" lon="5.41135">
        <ele>1123.687</ele>
        <time>2012-08-03T11:37:10.740Z</time>
      </trkpt>
      <trkpt lat="45.0285" lon="5.41128">
        <ele>1127.886</ele>
        <time>2012-08-03T11:37:17.461Z</time>
      </trkpt>
      <trkpt lat="45.0286" lon="5.41123">
        <ele>1133.617</ele>
        <time>2012-08-03T11:37:24.702Z</time>
      </trkpt>
      <trkpt lat="45.02869" lon="5.41117">
        <ele>1138.346</ele>
        <time>2012-08-03T11:37:31.763Z</time>
      </trkpt>
      <trkpt lat="45.02877" lon="5.41111">
        <ele>1141.079</ele>
        <time>2012-08-03T11:37:38.412Z</time>
      </trkpt>
      <trkpt lat="45.02886" lon="5.41105">
        <ele>1142.437</ele>
        <time>2012-08-03T11:37:45.735Z</time>
      </trkpt>
      <trkpt lat="45.02895" lon="5.41099">
        <ele>1142.955</ele>
        <time>2012-08-03T11:37:52.662Z</time>
      </trkpt>
      <trkpt lat="45.02898" lon="5.41087">
        <ele>1142.958</ele>
        <time>2012-08-03T11:37:59.600Z</time>
      </trkpt>
      <trkpt lat="45.02907" lon="5.4108">
        <ele>1143.089</ele>
        <time>2012-08-03T11:38:07.140Z</time>
      </trkpt>
      <trkpt lat="45.02915" lon="5.41075">
        <ele>1143.699</ele>
        <time>2012-08-03T11:38:14.316Z</time>
      </trkpt>
      <trkpt lat="45.02924" lon="5.41068">
        <ele>1143.843</ele>
        <time>2012-08-03T11:38:20.385Z</time>
      </trkpt>
      <trkpt lat="45.02931" lon="5.41058">
        <ele>1142.755</ele>
        <time>2012-08-03T11:38:26.848Z</time>
      </trkpt>
      <trkpt lat="45.02936" lon="5.41046">
        <ele>1141.48</ele>
        <time>2012-08-03T11:38:33.297Z</time>
      </trkpt>
      <trkpt lat="45.02937" lon="5.41032">
        <ele>1141.364</ele>
        <time>2012-08-03T11:38:40.291Z</time>
      </trkpt>
      <trkpt lat="45.02934" lon="5.41019">
        <ele>1142.29</ele>
        <time>2012-08-03T11:38:47.326Z</time>
      </trkpt>
      <trkpt lat="45.02936" lon="5.41005">
        <ele>1143.158</ele>
        <time>2012-08-03T11:38:55.489Z</time>
      </trkpt>
      <trkpt lat="45.0294" lon="5.40993">
        <ele>1143.291</ele>
        <time>2012-08-03T11:39:02.218Z</time>
      </trkpt>
      <trkpt lat="45.02943" lon="5.4098">
        <ele>1143.005</ele>
        <time>2012-08-03T11:39:08.872Z</time>
      </trkpt>
      <trkpt lat="45.02939" lon="5.40967">
        <ele>1142.752</ele>
        <time>2012-08-03T11:39:16.005Z</time>
      </trkpt>
      <trkpt lat="45.02933" lon="5.40956">
        <ele>1142.644</ele>
        <time>2012-08-03T11:39:23.319Z</time>
      </trkpt>
      <trkpt lat="45.02928" lon="5.40945">
        <ele>1142.496</ele>
        <time>2012-08-03T11:39:30.245Z</time>
      </trkpt>
      <trkpt lat="45.02928" lon="5.40945">
        <ele>1142.09</ele>
        <time>2012-08-03T11:39:54.036Z</time>
      </trkpt>
      <trkpt lat="45.02928" lon="5.40945">
        <ele>1141.504</ele>
        <time>2012-08-03T11:43:31.217Z</time>
      </trkpt>
      <trkpt lat="45.02926" lon="5.40911">
        <ele>1141.005</ele>
        <time>2012-08-03T11:43:58.468Z</time>
      </trkpt>
      <trkpt lat="45.02935" lon="5.40907">
        <ele>1140.797</ele>
        <time>2012-08-03T11:44:01.954Z</time>
      </trkpt>
      <trkpt lat="45.02945" lon="5.40905">
        <ele>1140.956</ele>
        <time>2012-08-03T11:44:05.048Z</time>
      </trkpt>
      <trkpt lat="45.02956" lon="5.40902">
        <ele>1144.636</ele>
        <time>2012-08-03T11:44:08.290Z</time>
      </trkpt>
      <trkpt lat="45.02965" lon="5.40906">
        <ele>1153.848</ele>
        <time>2012-08-03T11:44:11.106Z</time>
      </trkpt>
      <trkpt lat="45.02975" lon="5.40901">
        <ele>1163.555</ele>
        <time>2012-08-03T11:44:14.506Z</time>
      </trkpt>
      <trkpt lat="45.02984" lon="5.40896">
        <ele>1168.644</ele>
        <time>2012-08-03T11:44:17.896Z</time>
      </trkpt>
      <trkpt lat="45.02993" lon="5.4089">
        <ele>1169.961</ele>
        <time>2012-08-03T11:44:22.354Z</time>
      </trkpt>
      <trkpt lat="45.03" lon="5.4088">
        <ele>1169.64</ele>
        <time>2012-08-03T11:44:27.617Z</time>
      </trkpt>
      <trkpt lat="45.03005" lon="5.40867">
        <ele>1169.161</ele>
        <time>2012-08-03T11:44:34.027Z</time>
      </trkpt>
      <trkpt lat="45.03014" lon="5.40855">
        <ele>1169.286</ele>
        <time>2012-08-03T11:44:40.788Z</time>
      </trkpt>
      <trkpt lat="45.0302" lon="5.40846">
        <ele>1170.188</ele>
        <time>2012-08-03T11:44:44.832Z</time>
      </trkpt>
      <trkpt lat="45.03029" lon="5.40832">
        <ele>1171.48</ele>
        <time>2012-08-03T11:44:49.567Z</time>
      </trkpt>
      <trkpt lat="45.03034" lon="5.40818">
        <ele>1172.61</ele>
        <time>2012-08-03T11:44:53.568Z</time>
      </trkpt>
      <trkpt lat="45.03032" lon="5.408">
        <ele>1173.485</ele>
        <time>2012-08-03T11:44:58.009Z</time>
      </trkpt>
      <trkpt lat="45.03031" lon="5.40783">
        <ele>1174.215</ele>
        <time>2012-08-03T11:45:02.064Z</time>
      </trkpt>
      <trkpt lat="45.03031" lon="5.40783">
        <ele>1174.515</ele>
        <time>2012-08-03T11:45:16.155Z</time>
      </trkpt>
      <trkpt lat="45.03031" lon="5.40783">
        <ele>1174.21</ele>
        <time>2012-08-03T11:45:32.795Z</time>
      </trkpt>
      <trkpt lat="45.03046" lon="5.40787">
        <ele>1173.591</ele>
        <time>2012-08-03T11:45:50.358Z</time>
      </trkpt>
      <trkpt lat="45.03055" lon="5.40791">
        <ele>1173.069</ele>
        <time>2012-08-03T11:45:56.114Z</time>
      </trkpt>
      <trkpt lat="45.03065" lon="5.40793">
        <ele>1172.781</ele>
        <time>2012-08-03T11:46:02.246Z</time>
      </trkpt>
      <trkpt lat="45.03075" lon="5.40787">
        <ele>1169.342</ele>
        <time>2012-08-03T11:46:08.700Z</time>
      </trkpt>
      <trkpt lat="45.03084" lon="5.40779">
        <ele>1160.665</ele>
        <time>2012-08-03T11:46:14.261Z</time>
      </trkpt>
      <trkpt lat="45.03095" lon="5.40777">
        <ele>1151.803</ele>
        <time>2012-08-03T11:46:20.565Z</time>
      </trkpt>
      <trkpt lat="45.03104" lon="5.40769">
        <ele>1147.612</ele>
        <time>2012-08-03T11:46:26.125Z</time>
      </trkpt>
      <trkpt lat="45.03111" lon="5.40758">
        <ele>1146.985</ele>
        <time>2012-08-03T11:46:31.349Z</time>
      </trkpt>
      <trkpt lat="45.03119" lon="5.4075">
        <ele>1147.708</ele>
        <time>2012-08-03T11:46:36.017Z</time>
      </trkpt>
      <trkpt lat="45.03127" lon="5.40741">
        <ele>1148.43</ele>
        <time>2012-08-03T11:46:41.090Z</time>
      </trkpt>
      <trkpt lat="45.03123" lon="5.40728">
        <ele>1148.767</ele>
        <time>2012-08-03T11:46:46.156Z</time>
      </trkpt>
      <trkpt lat="45.03123" lon="5.40715">
        <ele>1148.815</ele>
        <time>2012-08-03T11:46:50.504Z</time>
      </trkpt>
      <trkpt lat="45.03128" lon="5.40703">
        <ele>1149.031</ele>
        <time>2012-08-03T11:46:55.278Z</time>
      </trkpt>
      <trkpt lat="45.03134" lon="5.40693">
        <ele>1149.692</ele>
        <time>2012-08-03T11:47:00.129Z</time>
      </trkpt>
      <trkpt lat="45.03142" lon="5.40687">
        <ele>1150.404</ele>
        <time>2012-08-03T11:47:05.023Z</time>
      </trkpt>
      <trkpt lat="45.0315" lon="5.4068">
        <ele>1150.751</ele>
        <time>2012-08-03T11:47:10.305Z</time>
      </trkpt>
      <trkpt lat="45.0316" lon="5.40678">
        <ele>1150.809</ele>
        <time>2012-08-03T11:47:15.832Z</time>
      </trkpt>
      <trkpt lat="45.0317" lon="5.40683">
        <ele>1150.754</ele>
        <time>2012-08-03T11:47:21.041Z</time>
      </trkpt>
      <trkpt lat="45.03181" lon="5.40686">
        <ele>1150.696</ele>
        <time>2012-08-03T11:47:26.320Z</time>
      </trkpt>
      <trkpt lat="45.0319" lon="5.40693">
        <ele>1150.668</ele>
        <time>2012-08-03T11:47:31.518Z</time>
      </trkpt>
      <trkpt lat="45.03194" lon="5.40705">
        <ele>1150.663</ele>
        <time>2012-08-03T11:47:36.670Z</time>
      </trkpt>
      <trkpt lat="45.03202" lon="5.40717">
        <ele>1150.668</ele>
        <time>2012-08-03T11:47:42.756Z</time>
      </trkpt>
      <trkpt lat="45.03207" lon="5.4073">
        <ele>1150.673</ele>
        <time>2012-08-03T11:47:48.798Z</time>
      </trkpt>
      <trkpt lat="45.03209" lon="5.40742">
        <ele>1150.675</ele>
        <time>2012-08-03T11:47:54.594Z</time>
      </trkpt>
      <trkpt lat="45.03214" lon="5.40753">
        <ele>1150.952</ele>
        <time>2012-08-03T11:48:01.307Z</time>
      </trkpt>
      <trkpt lat="45.03223" lon="5.40762">
        <ele>1152.5</ele>
        <time>2012-08-03T11:48:08.187Z</time>
      </trkpt>
      <trkpt lat="45.03232" lon="5.40768">
        <ele>1155.398</ele>
        <time>2012-08-03T11:48:12.817Z</time>
      </trkpt>
      <trkpt lat="45.03241" lon="5.40781">
        <ele>1157.965</ele>
        <time>2012-08-03T11:48:17.616Z</time>
      </trkpt>
      <trkpt lat="45.03246" lon="5.40791">
        <ele>1159.07</ele>
        <time>2012-08-03T11:48:21.359Z</time>
      </trkpt>
      <trkpt lat="45.03252" lon="5.40804">
        <ele>1158.616</ele>
        <time>2012-08-03T11:48:25.943Z</time>
      </trkpt>
      <trkpt lat="45.03257" lon="5.40815">
        <ele>1156.66</ele>
        <time>2012-08-03T11:48:29.785Z</time>
      </trkpt>
      <trkpt lat="45.03266" lon="5.40818">
        <ele>1154.116</ele>
        <time>2012-08-03T11:48:33.590Z</time>
      </trkpt>
      <trkpt lat="45.03278" lon="5.40818">
        <ele>1152.227</ele>
        <time>2012-08-03T11:48:38.381Z</time>
      </trkpt>
      <trkpt lat="45.03288" lon="5.40817">
        <ele>1151.394</ele>
        <time>2012-08-03T11:48:42.493Z</time>
      </trkpt>
      <trkpt lat="45.03297" lon="5.40815">
        <ele>1151.305</ele>
        <time>2012-08-03T11:48:46.362Z</time>
      </trkpt>
      <trkpt lat="45.03306" lon="5.40817">
        <ele>1151.476</ele>
        <time>2012-08-03T11:48:51.475Z</time>
      </trkpt>
      <trkpt lat="45.03317" lon="5.40816">
        <ele>1151.63</ele>
        <time>2012-08-03T11:48:58.250Z</time>
      </trkpt>
      <trkpt lat="45.03326" lon="5.40814">
        <ele>1153.355</ele>
        <time>2012-08-03T11:49:03.141Z</time>
      </trkpt>
      <trkpt lat="45.03335" lon="5.40809">
        <ele>1157.68</ele>
        <time>2012-08-03T11:49:07.966Z</time>
      </trkpt>
      <trkpt lat="45.03342" lon="5.40801">
        <ele>1162.237</ele>
        <time>2012-08-03T11:49:13.447Z</time>
      </trkpt>
      <trkpt lat="45.0335" lon="5.40793">
        <ele>1164.826</ele>
        <time>2012-08-03T11:49:19.037Z</time>
      </trkpt>
      <trkpt lat="45.03361" lon="5.40792">
        <ele>1165.73</ele>
        <time>2012-08-03T11:49:24.463Z</time>
      </trkpt>
      <trkpt lat="45.03372" lon="5.40787">
        <ele>1165.555</ele>
        <time>2012-08-03T11:49:29.497Z</time>
      </trkpt>
      <trkpt lat="45.03381" lon="5.40783">
        <ele>1165.027</ele>
        <time>2012-08-03T11:49:33.980Z</time>
      </trkpt>
      <trkpt lat="45.0339" lon="5.40787">
        <ele>1164.68</ele>
        <time>2012-08-03T11:49:38.306Z</time>
      </trkpt>
      <trkpt lat="45.03401" lon="5.40795">
        <ele>1165.261</ele>
        <time>2012-08-03T11:49:43.196Z</time>
      </trkpt>
      <trkpt lat="45.03409" lon="5.40802">
        <ele>1167.076</ele>
        <time>2012-08-03T11:49:47.219Z</time>
      </trkpt>
      <trkpt lat="45.03417" lon="5.40809">
        <ele>1169.105</ele>
        <time>2012-08-03T11:49:51.348Z</time>
      </trkpt>
      <trkpt lat="45.03424" lon="5.40798">
        <ele>1170.369</ele>
        <time>2012-08-03T11:49:58.328Z</time>
      </trkpt>
      <trkpt lat="45.03429" lon="5.40785">
        <ele>1171.156</ele>
        <time>2012-08-03T11:50:05.170Z</time>
      </trkpt>
      <trkpt lat="45.03429" lon="5.40785">
        <ele>1171.9</ele>
        <time>2012-08-03T11:50:16.086Z</time>
      </trkpt>
      <trkpt lat="45.03429" lon="5.40785">
        <ele>1172.235</ele>
        <time>2012-08-03T11:50:49.129Z</time>
      </trkpt>
      <trkpt lat="45.03447" lon="5.40798">
        <ele>1171.763</ele>
        <time>2012-08-03T11:51:04.412Z</time>
      </trkpt>
      <trkpt lat="45.03451" lon="5.40811">
        <ele>1171.312</ele>
        <time>2012-08-03T11:51:09.126Z</time>
      </trkpt>
      <trkpt lat="45.03461" lon="5.40817">
        <ele>1172.449</ele>
        <time>2012-08-03T11:51:14.535Z</time>
      </trkpt>
      <trkpt lat="45.03474" lon="5.40823">
        <ele>1175.521</ele>
        <time>2012-08-03T11:51:20.771Z</time>
      </trkpt>
      <trkpt lat="45.03498" lon="5.40829">
        <ele>1178.848</ele>
        <time>2012-08-03T11:51:26.465Z</time>
      </trkpt>
      <trkpt lat="45.03512" lon="5.40828">
        <ele>1180.751</ele>
        <time>2012-08-03T11:51:29.427Z</time>
      </trkpt>
      <trkpt lat="45.03523" lon="5.40825">
        <ele>1181.234</ele>
        <time>2012-08-03T11:51:32.106Z</time>
      </trkpt>
      <trkpt lat="45.03534" lon="5.40824">
        <ele>1180.779</ele>
        <time>2012-08-03T11:51:34.763Z</time>
      </trkpt>
      <trkpt lat="45.03543" lon="5.40822">
        <ele>1179.51</ele>
        <time>2012-08-03T11:51:37.045Z</time>
      </trkpt>
      <trkpt lat="45.03553" lon="5.40819">
        <ele>1177.898</ele>
        <time>2012-08-03T11:51:39.452Z</time>
      </trkpt>
      <trkpt lat="45.03565" lon="5.40815">
        <ele>1176.771</ele>
        <time>2012-08-03T11:51:42.253Z</time>
      </trkpt>
      <trkpt lat="45.0358" lon="5.40813">
        <ele>1176.244</ele>
        <time>2012-08-03T11:51:45.373Z</time>
      </trkpt>
      <trkpt lat="45.03589" lon="5.40814">
        <ele>1175.913</ele>
        <time>2012-08-03T11:51:47.066Z</time>
      </trkpt>
      <trkpt lat="45.03606" lon="5.4083">
        <ele>1175.676</ele>
        <time>2012-08-03T11:51:50.634Z</time>
      </trkpt>
      <trkpt lat="45.03618" lon="5.40833">
        <ele>1174.625</ele>
        <time>2012-08-03T11:51:52.565Z</time>
      </trkpt>
      <trkpt lat="45.03636" lon="5.40835">
        <ele>1172.111</ele>
        <time>2012-08-03T11:51:55.471Z</time>
      </trkpt>
      <trkpt lat="45.03649" lon="5.40842">
        <ele>1169.414</ele>
        <time>2012-08-03T11:51:58.539Z</time>
      </trkpt>
      <trkpt lat="45.0366" lon="5.4085">
        <ele>1167.708</ele>
        <time>2012-08-03T11:52:02.378Z</time>
      </trkpt>
      <trkpt lat="45.0367" lon="5.40857">
        <ele>1166.109</ele>
        <time>2012-08-03T11:52:06.651Z</time>
      </trkpt>
      <trkpt lat="45.03678" lon="5.40862">
        <ele>1163.974</ele>
        <time>2012-08-03T11:52:10.515Z</time>
      </trkpt>
      <trkpt lat="45.03688" lon="5.40869">
        <ele>1161.581</ele>
        <time>2012-08-03T11:52:14.896Z</time>
      </trkpt>
      <trkpt lat="45.03697" lon="5.40876">
        <ele>1158.675</ele>
        <time>2012-08-03T11:52:18.782Z</time>
      </trkpt>
      <trkpt lat="45.03706" lon="5.40883">
        <ele>1155.338</ele>
        <time>2012-08-03T11:52:22.830Z</time>
      </trkpt>
      <trkpt lat="45.03711" lon="5.40896">
        <ele>1152.829</ele>
        <time>2012-08-03T11:52:27.233Z</time>
      </trkpt>
      <trkpt lat="45.03718" lon="5.40905">
        <ele>1151.498</ele>
        <time>2012-08-03T11:52:31.809Z</time>
      </trkpt>
      <trkpt lat="45.03727" lon="5.40914">
        <ele>1150.818</ele>
        <time>2012-08-03T11:52:37.666Z</time>
      </trkpt>
      <trkpt lat="45.03737" lon="5.40922">
        <ele>1150.271</ele>
        <time>2012-08-03T11:52:44.325Z</time>
      </trkpt>
      <trkpt lat="45.03742" lon="5.40933">
        <ele>1148.437</ele>
        <time>2012-08-03T11:52:49.147Z</time>
      </trkpt>
      <trkpt lat="45.03749" lon="5.40942">
        <ele>1144.889</ele>
        <time>2012-08-03T11:52:54.037Z</time>
      </trkpt>
      <trkpt lat="45.03749" lon="5.40942">
        <ele>1141.638</ele>
        <time>2012-08-03T11:53:11.197Z</time>
      </trkpt>
      <trkpt lat="45.03749" lon="5.40942">
        <ele>1140.154</ele>
        <time>2012-08-03T11:56:34.063Z</time>
      </trkpt>
      <trkpt lat="45.03746" lon="5.40914">
        <ele>1139.872</ele>
        <time>2012-08-03T11:56:54.537Z</time>
      </trkpt>
      <trkpt lat="45.03746" lon="5.40902">
        <ele>1140.359</ele>
        <time>2012-08-03T11:56:59.577Z</time>
      </trkpt>
      <trkpt lat="45.03744" lon="5.40887">
        <ele>1141.533</ele>
        <time>2012-08-03T11:57:05.004Z</time>
      </trkpt>
      <trkpt lat="45.03744" lon="5.40873">
        <ele>1145.472</ele>
        <time>2012-08-03T11:57:10.485Z</time>
      </trkpt>
      <trkpt lat="45.03743" lon="5.40858">
        <ele>1153.114</ele>
        <time>2012-08-03T11:57:15.886Z</time>
      </trkpt>
      <trkpt lat="45.03742" lon="5.40844">
        <ele>1160.38</ele>
        <time>2012-08-03T11:57:20.754Z</time>
      </trkpt>
      <trkpt lat="45.03738" lon="5.40829">
        <ele>1163.665</ele>
        <time>2012-08-03T11:57:25.043Z</time>
      </trkpt>
      <trkpt lat="45.03727" lon="5.40806">
        <ele>1163.099</ele>
        <time>2012-08-03T11:57:29.290Z</time>
      </trkpt>
      <trkpt lat="45.03722" lon="5.40792">
        <ele>1159.392</ele>
        <time>2012-08-03T11:57:31.531Z</time>
      </trkpt>
      <trkpt lat="45.03713" lon="5.40772">
        <ele>1154.36</ele>
        <time>2012-08-03T11:57:35.034Z</time>
      </trkpt>
      <trkpt lat="45.03709" lon="5.40755">
        <ele>1150.312</ele>
        <time>2012-08-03T11:57:38.083Z</time>
      </trkpt>
      <trkpt lat="45.037" lon="5.40745">
        <ele>1148.287</ele>
        <time>2012-08-03T11:57:40.878Z</time>
      </trkpt>
      <trkpt lat="45.03693" lon="5.40734">
        <ele>1147.918</ele>
        <time>2012-08-03T11:57:43.738Z</time>
      </trkpt>
      <trkpt lat="45.03687" lon="5.40724">
        <ele>1148.355</ele>
        <time>2012-08-03T11:57:46.361Z</time>
      </trkpt>
      <trkpt lat="45.03682" lon="5.40712">
        <ele>1149.322</ele>
        <time>2012-08-03T11:57:49.244Z</time>
      </trkpt>
      <trkpt lat="45.03676" lon="5.40698">
        <ele>1150.85</ele>
        <time>2012-08-03T11:57:52.959Z</time>
      </trkpt>
      <trkpt lat="45.03672" lon="5.40685">
        <ele>1153.48</ele>
        <time>2012-08-03T11:57:56.919Z</time>
      </trkpt>
      <trkpt lat="45.03666" lon="5.40673">
        <ele>1157.505</ele>
        <time>2012-08-03T11:58:01.479Z</time>
      </trkpt>
      <trkpt lat="45.03658" lon="5.4066">
        <ele>1161.517</ele>
        <time>2012-08-03T11:58:06.723Z</time>
      </trkpt>
      <trkpt lat="45.03651" lon="5.40648">
        <ele>1163.802</ele>
        <time>2012-08-03T11:58:11.151Z</time>
      </trkpt>
      <trkpt lat="45.03649" lon="5.40635">
        <ele>1164.377</ele>
        <time>2012-08-03T11:58:15.005Z</time>
      </trkpt>
      <trkpt lat="45.03651" lon="5.40622">
        <ele>1164.02</ele>
        <time>2012-08-03T11:58:18.842Z</time>
      </trkpt>
      <trkpt lat="45.03651" lon="5.40608">
        <ele>1163.332</ele>
        <time>2012-08-03T11:58:23.177Z</time>
      </trkpt>
      <trkpt lat="45.0365" lon="5.40592">
        <ele>1162.778</ele>
        <time>2012-08-03T11:58:28.172Z</time>
      </trkpt>
      <trkpt lat="45.03647" lon="5.40579">
        <ele>1162.558</ele>
        <time>2012-08-03T11:58:32.456Z</time>
      </trkpt>
      <trkpt lat="45.03641" lon="5.40566">
        <ele>1162.55</ele>
        <time>2012-08-03T11:58:36.957Z</time>
      </trkpt>
      <trkpt lat="45.03639" lon="5.40551">
        <ele>1162.607</ele>
        <time>2012-08-03T11:58:41.598Z</time>
      </trkpt>
      <trkpt lat="45.03634" lon="5.40541">
        <ele>1162.652</ele>
        <time>2012-08-03T11:58:44.951Z</time>
      </trkpt>
      <trkpt lat="45.03623" lon="5.40531">
        <ele>1162.669</ele>
        <time>2012-08-03T11:58:48.734Z</time>
      </trkpt>
      <trkpt lat="45.03612" lon="5.4052">
        <ele>1162.67</ele>
        <time>2012-08-03T11:58:51.684Z</time>
      </trkpt>
      <trkpt lat="45.03601" lon="5.40507">
        <ele>1162.527</ele>
        <time>2012-08-03T11:58:54.975Z</time>
      </trkpt>
      <trkpt lat="45.03588" lon="5.40497">
        <ele>1162.163</ele>
        <time>2012-08-03T11:58:58.427Z</time>
      </trkpt>
      <trkpt lat="45.03594" lon="5.40483">
        <ele>1161.792</ele>
        <time>2012-08-03T11:59:01.351Z</time>
      </trkpt>
      <trkpt lat="45.03591" lon="5.40468">
        <ele>1161.479</ele>
        <time>2012-08-03T11:59:04.586Z</time>
      </trkpt>
      <trkpt lat="45.03587" lon="5.40455">
        <ele>1160.955</ele>
        <time>2012-08-03T11:59:07.903Z</time>
      </trkpt>
      <trkpt lat="45.03588" lon="5.40439">
        <ele>1160.256</ele>
        <time>2012-08-03T11:59:11.766Z</time>
      </trkpt>
      <trkpt lat="45.03585" lon="5.40426">
        <ele>1159.603</ele>
        <time>2012-08-03T11:59:15.915Z</time>
      </trkpt>
      <trkpt lat="45.03581" lon="5.40414">
        <ele>1158.779</ele>
        <time>2012-08-03T11:59:20.056Z</time>
      </trkpt>
      <trkpt lat="45.0358" lon="5.40401">
        <ele>1157.004</ele>
        <time>2012-08-03T11:59:25.302Z</time>
      </trkpt>
      <trkpt lat="45.03577" lon="5.40386">
        <ele>1154.348</ele>
        <time>2012-08-03T11:59:32.154Z</time>
      </trkpt>
      <trkpt lat="45.03571" lon="5.40374">
        <ele>1152.028</ele>
        <time>2012-08-03T11:59:38.158Z</time>
      </trkpt>
      <trkpt lat="45.03566" lon="5.40361">
        <ele>1150.783</ele>
        <time>2012-08-03T11:59:42.923Z</time>
      </trkpt>
      <trkpt lat="45.03564" lon="5.40346">
        <ele>1150.509</ele>
        <time>2012-08-03T11:59:48.136Z</time>
      </trkpt>
      <trkpt lat="45.03562" lon="5.40332">
        <ele>1150.913</ele>
        <time>2012-08-03T11:59:53.245Z</time>
      </trkpt>
      <trkpt lat="45.03557" lon="5.40321">
        <ele>1151.71</ele>
        <time>2012-08-03T11:59:57.866Z</time>
      </trkpt>
      <trkpt lat="45.03552" lon="5.40309">
        <ele>1152.706</ele>
        <time>2012-08-03T12:00:02.618Z</time>
      </trkpt>
      <trkpt lat="45.03547" lon="5.40298">
        <ele>1153.504</ele>
        <time>2012-08-03T12:00:07.693Z</time>
      </trkpt>
      <trkpt lat="45.03537" lon="5.40293">
        <ele>1153.82</ele>
        <time>2012-08-03T12:00:14.118Z</time>
      </trkpt>
      <trkpt lat="45.03528" lon="5.40286">
        <ele>1153.831</ele>
        <time>2012-08-03T12:00:20.447Z</time>
      </trkpt>
      <trkpt lat="45.03518" lon="5.40283">
        <ele>1154.025</ele>
        <time>2012-08-03T12:00:25.680Z</time>
      </trkpt>
      <trkpt lat="45.03509" lon="5.40284">
        <ele>1154.68</ele>
        <time>2012-08-03T12:00:30.193Z</time>
      </trkpt>
      <trkpt lat="45.03499" lon="5.4028">
        <ele>1155.394</ele>
        <time>2012-08-03T12:00:34.983Z</time>
      </trkpt>
      <trkpt lat="45.03491" lon="5.40273">
        <ele>1155.744</ele>
        <time>2012-08-03T12:00:39.270Z</time>
      </trkpt>
      <trkpt lat="45.03482" lon="5.40267">
        <ele>1155.527</ele>
        <time>2012-08-03T12:00:43.730Z</time>
      </trkpt>
      <trkpt lat="45.03472" lon="5.40267">
        <ele>1154.753</ele>
        <time>2012-08-03T12:00:48.423Z</time>
      </trkpt>
      <trkpt lat="45.03461" lon="5.40266">
        <ele>1153.955</ele>
        <time>2012-08-03T12:00:53.835Z</time>
      </trkpt>
      <trkpt lat="45.0345" lon="5.40261">
        <ele>1153.439</ele>
        <time>2012-08-03T12:00:58.868Z</time>
      </trkpt>
      <trkpt lat="45.03441" lon="5.40256">
        <ele>1153.021</ele>
        <time>2012-08-03T12:01:03.141Z</time>
      </trkpt>
      <trkpt lat="45.03434" lon="5.40248">
        <ele>1152.716</ele>
        <time>2012-08-03T12:01:07.338Z</time>
      </trkpt>
      <trkpt lat="45.03425" lon="5.40239">
        <ele>1152.744</ele>
        <time>2012-08-03T12:01:12.412Z</time>
      </trkpt>
      <trkpt lat="45.03417" lon="5.40231">
        <ele>1153.246</ele>
        <time>2012-08-03T12:01:17.163Z</time>
      </trkpt>
      <trkpt lat="45.0341" lon="5.40221">
        <ele>1154.424</ele>
        <time>2012-08-03T12:01:22.980Z</time>
      </trkpt>
      <trkpt lat="45.03403" lon="5.40212">
        <ele>1156.488</ele>
        <time>2012-08-03T12:01:28.910Z</time>
      </trkpt>
      <trkpt lat="45.03396" lon="5.40203">
        <ele>1159.025</ele>
        <time>2012-08-03T12:01:34.702Z</time>
      </trkpt>
      <trkpt lat="45.03396" lon="5.40203">
        <ele>1161.015</ele>
        <time>2012-08-03T12:01:47.743Z</time>
      </trkpt>
      <trkpt lat="45.03396" lon="5.40203">
        <ele>1161.927</ele>
        <time>2012-08-03T12:01:47.843Z</time>
      </trkpt>
      <trkpt lat="45.0339" lon="5.40167">
        <ele>1162.322</ele>
        <time>2012-08-03T12:02:06.838Z</time>
      </trkpt>
      <trkpt lat="45.03386" lon="5.40156">
        <ele>1162.871</ele>
        <time>2012-08-03T12:02:11.644Z</time>
      </trkpt>
      <trkpt lat="45.03384" lon="5.40141">
        <ele>1163.862</ele>
        <time>2012-08-03T12:02:17.535Z</time>
      </trkpt>
      <trkpt lat="45.03378" lon="5.40129">
        <ele>1165.219</ele>
        <time>2012-08-03T12:02:22.715Z</time>
      </trkpt>
      <trkpt lat="45.03375" lon="5.40115">
        <ele>1166.233</ele>
        <time>2012-08-03T12:02:28.469Z</time>
      </trkpt>
      <trkpt lat="45.03369" lon="5.40105">
        <ele>1166.492</ele>
        <time>2012-08-03T12:02:34.009Z</time>
      </trkpt>
      <trkpt lat="45.03367" lon="5.40091">
        <ele>1166.515</ele>
        <time>2012-08-03T12:02:40.358Z</time>
      </trkpt>
      <trkpt lat="45.03369" lon="5.40078">
        <ele>1166.597</ele>
        <time>2012-08-03T12:02:46.736Z</time>
      </trkpt>
      <trkpt lat="45.03369" lon="5.40078">
        <ele>1166.513</ele>
        <time>2012-08-03T12:02:53.678Z</time>
      </trkpt>
      <trkpt lat="45.03369" lon="5.40078">
        <ele>1166.116</ele>
        <time>2012-08-03T12:03:03.616Z</time>
      </trkpt>
      <trkpt lat="45.03356" lon="5.4006">
        <ele>1165.599</ele>
        <time>2012-08-03T12:03:16.390Z</time>
      </trkpt>
      <trkpt lat="45.03348" lon="5.40049">
        <ele>1165.257</ele>
        <time>2012-08-03T12:03:19.684Z</time>
      </trkpt>
      <trkpt lat="45.03341" lon="5.40037">
        <ele>1164.916</ele>
        <time>2012-08-03T12:03:23.142Z</time>
      </trkpt>
      <trkpt lat="45.03346" lon="5.40025">
        <ele>1164.358</ele>
        <time>2012-08-03T12:03:26.468Z</time>
      </trkpt>
      <trkpt lat="45.0334" lon="5.40015">
        <ele>1163.827</ele>
        <time>2012-08-03T12:03:30.850Z</time>
      </trkpt>
      <trkpt lat="45.0333" lon="5.40013">
        <ele>1163.586</ele>
        <time>2012-08-03T12:03:36.572Z</time>
      </trkpt>
      <trkpt lat="45.0333" lon="5.40013">
        <ele>1163.557</ele>
        <time>2012-08-03T12:03:51.563Z</time>
      </trkpt>
      <trkpt lat="45.03318" lon="5.40011">
        <ele>1183.274</ele>
        <time>2012-08-03T12:11:57.740Z</time>
      </trkpt>
      <trkpt lat="45.03318" lon="5.40011">
        <ele>1182.728</ele>
        <time>2012-08-03T12:11:58.710Z</time>
      </trkpt>
      <trkpt lat="45.03318" lon="5.40011">
        <ele>1182.524</ele>
        <time>2012-08-03T12:11:58.810Z</time>
      </trkpt>
      <trkpt lat="45.03338" lon="5.40081">
        <ele>1182.527</ele>
        <time>2012-08-03T12:12:04.463Z</time>
      </trkpt>
      <trkpt lat="45.03315" lon="5.40023">
        <ele>1182.586</ele>
        <time>2012-08-03T12:12:07.700Z</time>
      </trkpt>
      <trkpt lat="45.03315" lon="5.40023">
        <ele>1182.53</ele>
        <time>2012-08-03T12:12:27.531Z</time>
      </trkpt>
      <trkpt lat="45.03315" lon="5.40023">
        <ele>1182.21</ele>
        <time>2012-08-03T12:13:24.116Z</time>
      </trkpt>
      <trkpt lat="45.03316" lon="5.39993">
        <ele>1181.745</ele>
        <time>2012-08-03T12:14:24.561Z</time>
      </trkpt>
      <trkpt lat="45.03316" lon="5.39993">
        <ele>1181.391</ele>
        <time>2012-08-03T12:14:45.555Z</time>
      </trkpt>
      <trkpt lat="45.03316" lon="5.39993">
        <ele>1181.214</ele>
        <time>2012-08-03T12:17:23.985Z</time>
      </trkpt>
      <trkpt lat="45.03309" lon="5.4001">
        <ele>1181.148</ele>
        <time>2012-08-03T12:18:39.495Z</time>
      </trkpt>
      <trkpt lat="45.03309" lon="5.4001">
        <ele>1181.141</ele>
        <time>2012-08-03T12:18:42.674Z</time>
      </trkpt>
      <trkpt lat="45.03309" lon="5.4001">
        <ele>1181.046</ele>
        <time>2012-08-03T12:19:38.970Z</time>
      </trkpt>
      <trkpt lat="45.03328" lon="5.40003">
        <ele>1180.775</ele>
        <time>2012-08-03T12:20:21.658Z</time>
      </trkpt>
      <trkpt lat="45.03336" lon="5.39996">
        <ele>1180.49</ele>
        <time>2012-08-03T12:20:29.720Z</time>
      </trkpt>
      <trkpt lat="45.03344" lon="5.39987">
        <ele>1180.665</ele>
        <time>2012-08-03T12:20:37.006Z</time>
      </trkpt>
      <trkpt lat="45.03349" lon="5.39973">
        <ele>1182.007</ele>
        <time>2012-08-03T12:20:45.385Z</time>
      </trkpt>
      <trkpt lat="45.03354" lon="5.39962">
        <ele>1184.993</ele>
        <time>2012-08-03T12:20:52.770Z</time>
      </trkpt>
      <trkpt lat="45.03353" lon="5.3995">
        <ele>1189.518</ele>
        <time>2012-08-03T12:21:02.932Z</time>
      </trkpt>
      <trkpt lat="45.03347" lon="5.39941">
        <ele>1195.816</ele>
        <time>2012-08-03T12:21:13.540Z</time>
      </trkpt>
      <trkpt lat="45.03347" lon="5.39941">
        <ele>1202.908</ele>
        <time>2012-08-03T12:21:22.533Z</time>
      </trkpt>
      <trkpt lat="45.03347" lon="5.39941">
        <ele>1207.966</ele>
        <time>2012-08-03T12:21:22.633Z</time>
      </trkpt>
      <trkpt lat="45.03334" lon="5.39962">
        <ele>1210.44</ele>
        <time>2012-08-03T12:21:50.865Z</time>
      </trkpt>
      <trkpt lat="45.03335" lon="5.39976">
        <ele>1213.107</ele>
        <time>2012-08-03T12:21:57.782Z</time>
      </trkpt>
      <trkpt lat="45.03337" lon="5.39989">
        <ele>1218.409</ele>
        <time>2012-08-03T12:22:05.069Z</time>
      </trkpt>
      <trkpt lat="45.0333" lon="5.39999">
        <ele>1225.42</ele>
        <time>2012-08-03T12:22:12.545Z</time>
      </trkpt>
      <trkpt lat="45.03323" lon="5.40007">
        <ele>1227.938</ele>
        <time>2012-08-03T12:22:20.538Z</time>
      </trkpt>
      <trkpt lat="45.03323" lon="5.40007">
        <ele>1224.778</ele>
        <time>2012-08-03T12:22:35.541Z</time>
      </trkpt>
      <trkpt lat="45.03323" lon="5.40007">
        <ele>1222.744</ele>
        <time>2012-08-03T12:26:12.823Z</time>
      </trkpt>
      <trkpt lat="45.03328" lon="5.40037">
        <ele>1223.743</ele>
        <time>2012-08-03T12:26:29.186Z</time>
      </trkpt>
      <trkpt lat="45.03327" lon="5.40051">
        <ele>1222.637</ele>
        <time>2012-08-03T12:26:33.487Z</time>
      </trkpt>
      <trkpt lat="45.03316" lon="5.40061">
        <ele>1218.07</ele>
        <time>2012-08-03T12:26:37.781Z</time>
      </trkpt>
      <trkpt lat="45.03304" lon="5.40066">
        <ele>1211.25</ele>
        <time>2012-08-03T12:26:40.896Z</time>
      </trkpt>
      <trkpt lat="45.03295" lon="5.40071">
        <ele>1203.583</ele>
        <time>2012-08-03T12:26:42.993Z</time>
      </trkpt>
      <trkpt lat="45.03284" lon="5.40078">
        <ele>1197.412</ele>
        <time>2012-08-03T12:26:45.722Z</time>
      </trkpt>
      <trkpt lat="45.03275" lon="5.40083">
        <ele>1194.444</ele>
        <time>2012-08-03T12:26:47.966Z</time>
      </trkpt>
      <trkpt lat="45.03266" lon="5.4009">
        <ele>1193.28</ele>
        <time>2012-08-03T12:26:50.499Z</time>
      </trkpt>
      <trkpt lat="45.03256" lon="5.40092">
        <ele>1191.929</ele>
        <time>2012-08-03T12:26:52.933Z</time>
      </trkpt>
      <trkpt lat="45.03246" lon="5.40093">
        <ele>1189.53</ele>
        <time>2012-08-03T12:26:55.558Z</time>
      </trkpt>
      <trkpt lat="45.03237" lon="5.40095">
        <ele>1186.77</ele>
        <time>2012-08-03T12:26:58.095Z</time>
      </trkpt>
      <trkpt lat="45.03229" lon="5.40102">
        <ele>1184.452</ele>
        <time>2012-08-03T12:27:00.708Z</time>
      </trkpt>
      <trkpt lat="45.03219" lon="5.40109">
        <ele>1182.824</ele>
        <time>2012-08-03T12:27:03.735Z</time>
      </trkpt>
      <trkpt lat="45.03209" lon="5.40113">
        <ele>1181.176</ele>
        <time>2012-08-03T12:27:06.692Z</time>
      </trkpt>
      <trkpt lat="45.03195" lon="5.40119">
        <ele>1178.982</ele>
        <time>2012-08-03T12:27:10.749Z</time>
      </trkpt>
      <trkpt lat="45.03181" lon="5.40126">
        <ele>1177.111</ele>
        <time>2012-08-03T12:27:14.616Z</time>
      </trkpt>
      <trkpt lat="45.03172" lon="5.4013">
        <ele>1176.191</ele>
        <time>2012-08-03T12:27:16.792Z</time>
      </trkpt>
      <trkpt lat="45.03163" lon="5.40134">
        <ele>1175.777</ele>
        <time>2012-08-03T12:27:19.066Z</time>
      </trkpt>
      <trkpt lat="45.03154" lon="5.40139">
        <ele>1175.589</ele>
        <time>2012-08-03T12:27:21.258Z</time>
      </trkpt>
      <trkpt lat="45.03143" lon="5.40149">
        <ele>1175.704</ele>
        <time>2012-08-03T12:27:24.503Z</time>
      </trkpt>
      <trkpt lat="45.03136" lon="5.40161">
        <ele>1175.962</ele>
        <time>2012-08-03T12:27:27.406Z</time>
      </trkpt>
      <trkpt lat="45.03132" lon="5.40176">
        <ele>1175.867</ele>
        <time>2012-08-03T12:27:30.438Z</time>
      </trkpt>
      <trkpt lat="45.03128" lon="5.40199">
        <ele>1175.328</ele>
        <time>2012-08-03T12:27:34.214Z</time>
      </trkpt>
      <trkpt lat="45.03129" lon="5.40214">
        <ele>1174.259</ele>
        <time>2012-08-03T12:27:36.049Z</time>
      </trkpt>
      <trkpt lat="45.03131" lon="5.40235">
        <ele>1172.308</ele>
        <time>2012-08-03T12:27:38.696Z</time>
      </trkpt>
      <trkpt lat="45.03133" lon="5.40253">
        <ele>1169.252</ele>
        <time>2012-08-03T12:27:41.077Z</time>
      </trkpt>
      <trkpt lat="45.03136" lon="5.40267">
        <ele>1165.559</ele>
        <time>2012-08-03T12:27:43.049Z</time>
      </trkpt>
      <trkpt lat="45.03128" lon="5.40285">
        <ele>1162.292</ele>
        <time>2012-08-03T12:27:46.226Z</time>
      </trkpt>
      <trkpt lat="45.03119" lon="5.40296">
        <ele>1160.237</ele>
        <time>2012-08-03T12:27:48.564Z</time>
      </trkpt>
      <trkpt lat="45.03111" lon="5.40317">
        <ele>1159.346</ele>
        <time>2012-08-03T12:27:52.523Z</time>
      </trkpt>
      <trkpt lat="45.03105" lon="5.4034">
        <ele>1159.262</ele>
        <time>2012-08-03T12:27:57.452Z</time>
      </trkpt>
      <trkpt lat="45.03103" lon="5.40356">
        <ele>1159.452</ele>
        <time>2012-08-03T12:28:02.849Z</time>
      </trkpt>
      <trkpt lat="45.03097" lon="5.40366">
        <ele>1159.758</ele>
        <time>2012-08-03T12:28:07.275Z</time>
      </trkpt>
      <trkpt lat="45.03097" lon="5.4038">
        <ele>1160.327</ele>
        <time>2012-08-03T12:28:12.049Z</time>
      </trkpt>
      <trkpt lat="45.03091" lon="5.40391">
        <ele>1161.339</ele>
        <time>2012-08-03T12:28:17.469Z</time>
      </trkpt>
      <trkpt lat="45.03093" lon="5.40406">
        <ele>1162.588</ele>
        <time>2012-08-03T12:28:23.087Z</time>
      </trkpt>
      <trkpt lat="45.03087" lon="5.40424">
        <ele>1163.515</ele>
        <time>2012-08-03T12:28:28.571Z</time>
      </trkpt>
      <trkpt lat="45.03082" lon="5.40438">
        <ele>1163.856</ele>
        <time>2012-08-03T12:28:32.728Z</time>
      </trkpt>
      <trkpt lat="45.03082" lon="5.40454">
        <ele>1163.849</ele>
        <time>2012-08-03T12:28:37.726Z</time>
      </trkpt>
      <trkpt lat="45.03082" lon="5.40467">
        <ele>1163.746</ele>
        <time>2012-08-03T12:28:41.646Z</time>
      </trkpt>
      <trkpt lat="45.03083" lon="5.4048">
        <ele>1163.67</ele>
        <time>2012-08-03T12:28:45.543Z</time>
      </trkpt>
      <trkpt lat="45.03083" lon="5.4048">
        <ele>1163.459</ele>
        <time>2012-08-03T12:28:52.726Z</time>
      </trkpt>
      <trkpt lat="45.03083" lon="5.4048">
        <ele>1162.953</ele>
        <time>2012-08-03T12:29:27.078Z</time>
      </trkpt>
      <trkpt lat="45.03068" lon="5.40496">
        <ele>1162.394</ele>
        <time>2012-08-03T12:29:39.834Z</time>
      </trkpt>
      <trkpt lat="45.03062" lon="5.40511">
        <ele>1162.118</ele>
        <time>2012-08-03T12:29:44.062Z</time>
      </trkpt>
      <trkpt lat="45.03057" lon="5.40523">
        <ele>1162.446</ele>
        <time>2012-08-03T12:29:47.315Z</time>
      </trkpt>
      <trkpt lat="45.03056" lon="5.40537">
        <ele>1163.811</ele>
        <time>2012-08-03T12:29:50.764Z</time>
      </trkpt>
      <trkpt lat="45.03061" lon="5.4055">
        <ele>1166.249</ele>
        <time>2012-08-03T12:29:55.031Z</time>
      </trkpt>
      <trkpt lat="45.03056" lon="5.40562">
        <ele>1169.013</ele>
        <time>2012-08-03T12:29:59.534Z</time>
      </trkpt>
      <trkpt lat="45.03047" lon="5.40568">
        <ele>1171.068</ele>
        <time>2012-08-03T12:30:05.405Z</time>
      </trkpt>
      <trkpt lat="45.03039" lon="5.40576">
        <ele>1171.826</ele>
        <time>2012-08-03T12:30:11.470Z</time>
      </trkpt>
      <trkpt lat="45.03031" lon="5.4059">
        <ele>1171.554</ele>
        <time>2012-08-03T12:30:18.493Z</time>
      </trkpt>
      <trkpt lat="45.03028" lon="5.40604">
        <ele>1170.996</ele>
        <time>2012-08-03T12:30:23.252Z</time>
      </trkpt>
      <trkpt lat="45.0303" lon="5.40617">
        <ele>1170.653</ele>
        <time>2012-08-03T12:30:27.510Z</time>
      </trkpt>
      <trkpt lat="45.03029" lon="5.4063">
        <ele>1170.555</ele>
        <time>2012-08-03T12:30:31.627Z</time>
      </trkpt>
      <trkpt lat="45.03021" lon="5.40643">
        <ele>1170.44</ele>
        <time>2012-08-03T12:30:37.390Z</time>
      </trkpt>
      <trkpt lat="45.03013" lon="5.40648">
        <ele>1169.711</ele>
        <time>2012-08-03T12:30:42.258Z</time>
      </trkpt>
      <trkpt lat="45.03013" lon="5.4066">
        <ele>1168.29</ele>
        <time>2012-08-03T12:30:46.967Z</time>
      </trkpt>
      <trkpt lat="45.03009" lon="5.40674">
        <ele>1167.014</ele>
        <time>2012-08-03T12:30:51.540Z</time>
      </trkpt>
      <trkpt lat="45.03003" lon="5.40687">
        <ele>1166.322</ele>
        <time>2012-08-03T12:30:56.356Z</time>
      </trkpt>
      <trkpt lat="45.03002" lon="5.40702">
        <ele>1165.77</ele>
        <time>2012-08-03T12:31:00.958Z</time>
      </trkpt>
      <trkpt lat="45.03005" lon="5.40714">
        <ele>1164.882</ele>
        <time>2012-08-03T12:31:04.456Z</time>
      </trkpt>
      <trkpt lat="45.03009" lon="5.40727">
        <ele>1163.722</ele>
        <time>2012-08-03T12:31:07.668Z</time>
      </trkpt>
      <trkpt lat="45.03011" lon="5.40742">
        <ele>1162.687</ele>
        <time>2012-08-03T12:31:10.783Z</time>
      </trkpt>
      <trkpt lat="45.03011" lon="5.40757">
        <ele>1161.846</ele>
        <time>2012-08-03T12:31:13.534Z</time>
      </trkpt>
      <trkpt lat="45.03008" lon="5.40774">
        <ele>1160.699</ele>
        <time>2012-08-03T12:31:18.495Z</time>
      </trkpt>
      <trkpt lat="45.03009" lon="5.4079">
        <ele>1159.033</ele>
        <time>2012-08-03T12:31:23.000Z</time>
      </trkpt>
      <trkpt lat="45.03002" lon="5.40803">
        <ele>1157.435</ele>
        <time>2012-08-03T12:31:28.775Z</time>
      </trkpt>
      <trkpt lat="45.02992" lon="5.40807">
        <ele>1156.571</ele>
        <time>2012-08-03T12:31:34.760Z</time>
      </trkpt>
      <trkpt lat="45.02982" lon="5.40809">
        <ele>1156.376</ele>
        <time>2012-08-03T12:31:38.110Z</time>
      </trkpt>
      <trkpt lat="45.02958" lon="5.40819">
        <ele>1156.614</ele>
        <time>2012-08-03T12:31:45.127Z</time>
      </trkpt>
      <trkpt lat="45.02949" lon="5.40822">
        <ele>1157.105</ele>
        <time>2012-08-03T12:31:48.771Z</time>
      </trkpt>
      <trkpt lat="45.02939" lon="5.40831">
        <ele>1157.682</ele>
        <time>2012-08-03T12:31:53.187Z</time>
      </trkpt>
      <trkpt lat="45.0293" lon="5.40835">
        <ele>1158.371</ele>
        <time>2012-08-03T12:31:57.735Z</time>
      </trkpt>
      <trkpt lat="45.02921" lon="5.40839">
        <ele>1159.118</ele>
        <time>2012-08-03T12:32:01.931Z</time>
      </trkpt>
      <trkpt lat="45.02911" lon="5.40833">
        <ele>1160.175</ele>
        <time>2012-08-03T12:32:07.122Z</time>
      </trkpt>
      <trkpt lat="45.02903" lon="5.40827">
        <ele>1161.919</ele>
        <time>2012-08-03T12:32:11.047Z</time>
      </trkpt>
      <trkpt lat="45.02892" lon="5.40822">
        <ele>1164.29</ele>
        <time>2012-08-03T12:32:14.837Z</time>
      </trkpt>
      <trkpt lat="45.02882" lon="5.40814">
        <ele>1166.739</ele>
        <time>2012-08-03T12:32:18.336Z</time>
      </trkpt>
      <trkpt lat="45.0287" lon="5.4081">
        <ele>1168.457</ele>
        <time>2012-08-03T12:32:21.794Z</time>
      </trkpt>
      <trkpt lat="45.02857" lon="5.40807">
        <ele>1169.051</ele>
        <time>2012-08-03T12:32:25.725Z</time>
      </trkpt>
      <trkpt lat="45.02848" lon="5.40802">
        <ele>1168.594</ele>
        <time>2012-08-03T12:32:28.563Z</time>
      </trkpt>
      <trkpt lat="45.02839" lon="5.40798">
        <ele>1166.484</ele>
        <time>2012-08-03T12:32:31.574Z</time>
      </trkpt>
      <trkpt lat="45.02828" lon="5.40795">
        <ele>1163.077</ele>
        <time>2012-08-03T12:32:35.117Z</time>
      </trkpt>
      <trkpt lat="45.02818" lon="5.40789">
        <ele>1160.149</ele>
        <time>2012-08-03T12:32:39.914Z</time>
      </trkpt>
      <trkpt lat="45.02809" lon="5.40785">
        <ele>1158.524</ele>
        <time>2012-08-03T12:32:44.571Z</time>
      </trkpt>
      <trkpt lat="45.02798" lon="5.40781">
        <ele>1157.742</ele>
        <time>2012-08-03T12:32:50.544Z</time>
      </trkpt>
      <trkpt lat="45.02789" lon="5.40776">
        <ele>1157.479</ele>
        <time>2012-08-03T12:32:57.187Z</time>
      </trkpt>
      <trkpt lat="45.02779" lon="5.40772">
        <ele>1157.642</ele>
        <time>2012-08-03T12:33:01.412Z</time>
      </trkpt>
      <trkpt lat="45.02769" lon="5.40768">
        <ele>1158.234</ele>
        <time>2012-08-03T12:33:06.653Z</time>
      </trkpt>
      <trkpt lat="45.02759" lon="5.40765">
        <ele>1159.027</ele>
        <time>2012-08-03T12:33:11.214Z</time>
      </trkpt>
      <trkpt lat="45.02751" lon="5.40757">
        <ele>1159.592</ele>
        <time>2012-08-03T12:33:15.572Z</time>
      </trkpt>
      <trkpt lat="45.02742" lon="5.40749">
        <ele>1159.792</ele>
        <time>2012-08-03T12:33:18.847Z</time>
      </trkpt>
      <trkpt lat="45.02733" lon="5.4074">
        <ele>1159.504</ele>
        <time>2012-08-03T12:33:21.828Z</time>
      </trkpt>
      <trkpt lat="45.02723" lon="5.40732">
        <ele>1158.166</ele>
        <time>2012-08-03T12:33:25.294Z</time>
      </trkpt>
      <trkpt lat="45.02714" lon="5.40735">
        <ele>1155.942</ele>
        <time>2012-08-03T12:33:28.419Z</time>
      </trkpt>
      <trkpt lat="45.02703" lon="5.40736">
        <ele>1154.098</ele>
        <time>2012-08-03T12:33:32.264Z</time>
      </trkpt>
      <trkpt lat="45.02694" lon="5.40738">
        <ele>1153.345</ele>
        <time>2012-08-03T12:33:35.873Z</time>
      </trkpt>
      <trkpt lat="45.02685" lon="5.4074">
        <ele>1153.581</ele>
        <time>2012-08-03T12:33:39.514Z</time>
      </trkpt>
      <trkpt lat="45.02685" lon="5.4074">
        <ele>1154.484</ele>
        <time>2012-08-03T12:33:50.691Z</time>
      </trkpt>
      <trkpt lat="45.02685" lon="5.4074">
        <ele>1155.373</ele>
        <time>2012-08-03T12:34:03.727Z</time>
      </trkpt>
      <trkpt lat="45.02666" lon="5.40747">
        <ele>1155.922</ele>
        <time>2012-08-03T12:34:22.560Z</time>
      </trkpt>
      <trkpt lat="45.02657" lon="5.40753">
        <ele>1156.614</ele>
        <time>2012-08-03T12:34:27.588Z</time>
      </trkpt>
      <trkpt lat="45.02657" lon="5.40753">
        <ele>1157.628</ele>
        <time>2012-08-03T12:34:42.579Z</time>
      </trkpt>
      <trkpt lat="45.02657" lon="5.40753">
        <ele>1158.142</ele>
        <time>2012-08-03T12:34:47.302Z</time>
      </trkpt>
      <trkpt lat="45.02642" lon="5.40758">
        <ele>1157.632</ele>
        <time>2012-08-03T12:35:01.113Z</time>
      </trkpt>
      <trkpt lat="45.02633" lon="5.40764">
        <ele>1157.379</ele>
        <time>2012-08-03T12:35:05.613Z</time>
      </trkpt>
      <trkpt lat="45.02633" lon="5.40764">
        <ele>1158.453</ele>
        <time>2012-08-03T12:35:22.567Z</time>
      </trkpt>
      <trkpt lat="45.02633" lon="5.40764">
        <ele>1159.447</ele>
        <time>2012-08-03T12:35:22.667Z</time>
      </trkpt>
      <trkpt lat="45.02616" lon="5.40775">
        <ele>1158.98</ele>
        <time>2012-08-03T12:35:39.912Z</time>
      </trkpt>
      <trkpt lat="45.02609" lon="5.40783">
        <ele>1158.069</ele>
        <time>2012-08-03T12:35:46.299Z</time>
      </trkpt>
      <trkpt lat="45.026" lon="5.40787">
        <ele>1158.19</ele>
        <time>2012-08-03T12:35:52.130Z</time>
      </trkpt>
      <trkpt lat="45.02591" lon="5.40792">
        <ele>1159.266</ele>
        <time>2012-08-03T12:35:57.225Z</time>
      </trkpt>
      <trkpt lat="45.0258" lon="5.40797">
        <ele>1160.455</ele>
        <time>2012-08-03T12:36:01.801Z</time>
      </trkpt>
      <trkpt lat="45.02571" lon="5.40803">
        <ele>1161.437</ele>
        <time>2012-08-03T12:36:05.829Z</time>
      </trkpt>
      <trkpt lat="45.02567" lon="5.40815">
        <ele>1162.369</ele>
        <time>2012-08-03T12:36:10.050Z</time>
      </trkpt>
      <trkpt lat="45.0257" lon="5.40828">
        <ele>1163.184</ele>
        <time>2012-08-03T12:36:15.018Z</time>
      </trkpt>
      <trkpt lat="45.02567" lon="5.40843">
        <ele>1163.67</ele>
        <time>2012-08-03T12:36:20.909Z</time>
      </trkpt>
      <trkpt lat="45.02566" lon="5.40856">
        <ele>1163.803</ele>
        <time>2012-08-03T12:36:26.904Z</time>
      </trkpt>
      <trkpt lat="45.02565" lon="5.40869">
        <ele>1163.764</ele>
        <time>2012-08-03T12:36:33.627Z</time>
      </trkpt>
      <trkpt lat="45.02556" lon="5.40874">
        <ele>1163.836</ele>
        <time>2012-08-03T12:36:40.613Z</time>
      </trkpt>
      <trkpt lat="45.02556" lon="5.40874">
        <ele>1164.156</ele>
        <time>2012-08-03T12:36:57.561Z</time>
      </trkpt>
      <trkpt lat="45.02556" lon="5.40874">
        <ele>1164.377</ele>
        <time>2012-08-03T12:37:05.474Z</time>
      </trkpt>
      <trkpt lat="45.02545" lon="5.40902">
        <ele>1164.61</ele>
        <time>2012-08-03T12:37:23.452Z</time>
      </trkpt>
      <trkpt lat="45.02538" lon="5.40916">
        <ele>1166.596</ele>
        <time>2012-08-03T12:37:28.272Z</time>
      </trkpt>
      <trkpt lat="45.02533" lon="5.40929">
        <ele>1170.741</ele>
        <time>2012-08-03T12:37:32.175Z</time>
      </trkpt>
      <trkpt lat="45.02526" lon="5.4094">
        <ele>1174.536</ele>
        <time>2012-08-03T12:37:36.030Z</time>
      </trkpt>
      <trkpt lat="45.02519" lon="5.40948">
        <ele>1175.794</ele>
        <time>2012-08-03T12:37:39.537Z</time>
      </trkpt>
      <trkpt lat="45.02514" lon="5.40963">
        <ele>1174.891</ele>
        <time>2012-08-03T12:37:43.503Z</time>
      </trkpt>
      <trkpt lat="45.02509" lon="5.40973">
        <ele>1173.853</ele>
        <time>2012-08-03T12:37:46.502Z</time>
      </trkpt>
      <trkpt lat="45.02503" lon="5.40987">
        <ele>1174.098</ele>
        <time>2012-08-03T12:37:49.927Z</time>
      </trkpt>
      <trkpt lat="45.02499" lon="5.41">
        <ele>1174.993</ele>
        <time>2012-08-03T12:37:53.297Z</time>
      </trkpt>
      <trkpt lat="45.02495" lon="5.41015">
        <ele>1175.596</ele>
        <time>2012-08-03T12:37:57.313Z</time>
      </trkpt>
      <trkpt lat="45.02501" lon="5.41028">
        <ele>1176.07</ele>
        <time>2012-08-03T12:38:03.011Z</time>
      </trkpt>
      <trkpt lat="45.02493" lon="5.41036">
        <ele>1176.906</ele>
        <time>2012-08-03T12:38:07.751Z</time>
      </trkpt>
      <trkpt lat="45.02493" lon="5.41036">
        <ele>1177.931</ele>
        <time>2012-08-03T12:38:17.579Z</time>
      </trkpt>
      <trkpt lat="45.02493" lon="5.41036">
        <ele>1178.602</ele>
        <time>2012-08-03T12:46:18.499Z</time>
      </trkpt>
      <trkpt lat="45.02504" lon="5.41057">
        <ele>1178.815</ele>
        <time>2012-08-03T12:46:38.698Z</time>
      </trkpt>
      <trkpt lat="45.02505" lon="5.41073">
        <ele>1178.922</ele>
        <time>2012-08-03T12:46:42.017Z</time>
      </trkpt>
      <trkpt lat="45.02504" lon="5.41092">
        <ele>1179.059</ele>
        <time>2012-08-03T12:46:45.307Z</time>
      </trkpt>
      <trkpt lat="45.02503" lon="5.41119">
        <ele>1178.728</ele>
        <time>2012-08-03T12:46:50.472Z</time>
      </trkpt>
      <trkpt lat="45.02504" lon="5.41134">
        <ele>1177.644</ele>
        <time>2012-08-03T12:46:53.396Z</time>
      </trkpt>
      <trkpt lat="45.02502" lon="5.41148">
        <ele>1176.399</ele>
        <time>2012-08-03T12:46:56.048Z</time>
      </trkpt>
      <trkpt lat="45.02503" lon="5.41164">
        <ele>1174.399</ele>
        <time>2012-08-03T12:46:58.747Z</time>
      </trkpt>
      <trkpt lat="45.02504" lon="5.41179">
        <ele>1170.946</ele>
        <time>2012-08-03T12:47:01.491Z</time>
      </trkpt>
      <trkpt lat="45.02504" lon="5.41193">
        <ele>1167.4</ele>
        <time>2012-08-03T12:47:03.883Z</time>
      </trkpt>
      <trkpt lat="45.02508" lon="5.41204">
        <ele>1164.375</ele>
        <time>2012-08-03T12:47:06.385Z</time>
      </trkpt>
      <trkpt lat="45.02512" lon="5.41217">
        <ele>1160.885</ele>
        <time>2012-08-03T12:47:09.117Z</time>
      </trkpt>
      <trkpt lat="45.02504" lon="5.41223">
        <ele>1156.972</ele>
        <time>2012-08-03T12:47:12.018Z</time>
      </trkpt>
      <trkpt lat="45.02497" lon="5.41232">
        <ele>1153.31</ele>
        <time>2012-08-03T12:47:14.884Z</time>
      </trkpt>
      <trkpt lat="45.02491" lon="5.41244">
        <ele>1150.606</ele>
        <time>2012-08-03T12:47:18.515Z</time>
      </trkpt>
      <trkpt lat="45.02483" lon="5.41256">
        <ele>1148.096</ele>
        <time>2012-08-03T12:47:22.910Z</time>
      </trkpt>
      <trkpt lat="45.02479" lon="5.41267">
        <ele>1144.537</ele>
        <time>2012-08-03T12:47:27.251Z</time>
      </trkpt>
      <trkpt lat="45.02473" lon="5.41278">
        <ele>1140.524</ele>
        <time>2012-08-03T12:47:32.052Z</time>
      </trkpt>
      <trkpt lat="45.02466" lon="5.41286">
        <ele>1137.22</ele>
        <time>2012-08-03T12:47:36.669Z</time>
      </trkpt>
      <trkpt lat="45.02466" lon="5.41286">
        <ele>1135.07</ele>
        <time>2012-08-03T12:47:48.585Z</time>
      </trkpt>
      <trkpt lat="45.02466" lon="5.41286">
        <ele>1134.128</ele>
        <time>2012-08-03T12:49:47.014Z</time>
      </trkpt>
      <trkpt lat="45.02456" lon="5.41308">
        <ele>1133.794</ele>
        <time>2012-08-03T12:50:07.122Z</time>
      </trkpt>
      <trkpt lat="45.02451" lon="5.41348">
        <ele>1133.535</ele>
        <time>2012-08-03T12:50:14.946Z</time>
      </trkpt>
      <trkpt lat="45.02441" lon="5.41351">
        <ele>1133.023</ele>
        <time>2012-08-03T12:50:17.633Z</time>
      </trkpt>
      <trkpt lat="45.0243" lon="5.41351">
        <ele>1132.308</ele>
        <time>2012-08-03T12:50:20.691Z</time>
      </trkpt>
      <trkpt lat="45.0242" lon="5.41357">
        <ele>1131.226</ele>
        <time>2012-08-03T12:50:24.251Z</time>
      </trkpt>
      <trkpt lat="45.02413" lon="5.41369">
        <ele>1129.177</ele>
        <time>2012-08-03T12:50:28.243Z</time>
      </trkpt>
      <trkpt lat="45.02403" lon="5.41379">
        <ele>1126.624</ele>
        <time>2012-08-03T12:50:32.152Z</time>
      </trkpt>
      <trkpt lat="45.02397" lon="5.41393">
        <ele>1124.735</ele>
        <time>2012-08-03T12:50:35.468Z</time>
      </trkpt>
      <trkpt lat="45.02394" lon="5.41409">
        <ele>1123.787</ele>
        <time>2012-08-03T12:50:38.826Z</time>
      </trkpt>
      <trkpt lat="45.02385" lon="5.41416">
        <ele>1123.059</ele>
        <time>2012-08-03T12:50:41.599Z</time>
      </trkpt>
      <trkpt lat="45.02385" lon="5.41416">
        <ele>1122.013</ele>
        <time>2012-08-03T12:50:52.673Z</time>
      </trkpt>
      <trkpt lat="45.02385" lon="5.41416">
        <ele>1121.02</ele>
        <time>2012-08-03T12:51:04.389Z</time>
      </trkpt>
      <trkpt lat="45.02379" lon="5.41436">
        <ele>1120.572</ele>
        <time>2012-08-03T12:51:14.969Z</time>
      </trkpt>
      <trkpt lat="45.02378" lon="5.41451">
        <ele>1119.688</ele>
        <time>2012-08-03T12:51:18.324Z</time>
      </trkpt>
      <trkpt lat="45.02377" lon="5.41468">
        <ele>1117.201</ele>
        <time>2012-08-03T12:51:21.625Z</time>
      </trkpt>
      <trkpt lat="45.02376" lon="5.41484">
        <ele>1111.636</ele>
        <time>2012-08-03T12:51:24.801Z</time>
      </trkpt>
      <trkpt lat="45.02375" lon="5.41498">
        <ele>1103.118</ele>
        <time>2012-08-03T12:51:27.825Z</time>
      </trkpt>
      <trkpt lat="45.02375" lon="5.41498">
        <ele>1095.437</ele>
        <time>2012-08-03T12:51:39.874Z</time>
      </trkpt>
      <trkpt lat="45.02375" lon="5.41498">
        <ele>1091.812</ele>
        <time>2012-08-03T12:52:24.825Z</time>
      </trkpt>
      <trkpt lat="45.0237" lon="5.41527">
        <ele>1091.274</ele>
        <time>2012-08-03T12:52:39.046Z</time>
      </trkpt>
      <trkpt lat="45.02368" lon="5.41542">
        <ele>1092.041</ele>
        <time>2012-08-03T12:52:42.318Z</time>
      </trkpt>
      <trkpt lat="45.02367" lon="5.41554">
        <ele>1093.087</ele>
        <time>2012-08-03T12:52:44.638Z</time>
      </trkpt>
      <trkpt lat="45.02363" lon="5.41573">
        <ele>1093.905</ele>
        <time>2012-08-03T12:52:47.730Z</time>
      </trkpt>
      <trkpt lat="45.02367" lon="5.41587">
        <ele>1094.283</ele>
        <time>2012-08-03T12:52:50.119Z</time>
      </trkpt>
      <trkpt lat="45.02374" lon="5.41596">
        <ele>1094.273</ele>
        <time>2012-08-03T12:52:52.156Z</time>
      </trkpt>
      <trkpt lat="45.02382" lon="5.41626">
        <ele>1094.047</ele>
        <time>2012-08-03T12:52:56.647Z</time>
      </trkpt>
      <trkpt lat="45.02384" lon="5.41644">
        <ele>1093.128</ele>
        <time>2012-08-03T12:52:59.007Z</time>
      </trkpt>
      <trkpt lat="45.02382" lon="5.41661">
        <ele>1091.083</ele>
        <time>2012-08-03T12:53:01.333Z</time>
      </trkpt>
      <trkpt lat="45.02384" lon="5.41682">
        <ele>1088.861</ele>
        <time>2012-08-03T12:53:03.792Z</time>
      </trkpt>
      <trkpt lat="45.02382" lon="5.41716">
        <ele>1087.496</ele>
        <time>2012-08-03T12:53:07.144Z</time>
      </trkpt>
      <trkpt lat="45.02381" lon="5.41741">
        <ele>1086.432</ele>
        <time>2012-08-03T12:53:09.694Z</time>
      </trkpt>
      <trkpt lat="45.02383" lon="5.41764">
        <ele>1084.977</ele>
        <time>2012-08-03T12:53:12.629Z</time>
      </trkpt>
      <trkpt lat="45.02385" lon="5.41777">
        <ele>1083.1</ele>
        <time>2012-08-03T12:53:14.475Z</time>
      </trkpt>
      <trkpt lat="45.02391" lon="5.41788">
        <ele>1081.198</ele>
        <time>2012-08-03T12:53:16.968Z</time>
      </trkpt>
      <trkpt lat="45.0239" lon="5.41806">
        <ele>1079.749</ele>
        <time>2012-08-03T12:53:20.328Z</time>
      </trkpt>
      <trkpt lat="45.02389" lon="5.41822">
        <ele>1078.946</ele>
        <time>2012-08-03T12:53:23.818Z</time>
      </trkpt>
      <trkpt lat="45.02387" lon="5.41836">
        <ele>1078.617</ele>
        <time>2012-08-03T12:53:26.609Z</time>
      </trkpt>
      <trkpt lat="45.02382" lon="5.41851">
        <ele>1078.598</ele>
        <time>2012-08-03T12:53:29.796Z</time>
      </trkpt>
      <trkpt lat="45.02379" lon="5.41864">
        <ele>1078.125</ele>
        <time>2012-08-03T12:53:32.208Z</time>
      </trkpt>
      <trkpt lat="45.02372" lon="5.41875">
        <ele>1076.612</ele>
        <time>2012-08-03T12:53:34.708Z</time>
      </trkpt>
      <trkpt lat="45.02363" lon="5.41894">
        <ele>1074.663</ele>
        <time>2012-08-03T12:53:38.049Z</time>
      </trkpt>
      <trkpt lat="45.02358" lon="5.41913">
        <ele>1073.234</ele>
        <time>2012-08-03T12:53:41.020Z</time>
      </trkpt>
      <trkpt lat="45.0235" lon="5.41925">
        <ele>1071.885</ele>
        <time>2012-08-03T12:53:43.670Z</time>
      </trkpt>
      <trkpt lat="45.02343" lon="5.41933">
        <ele>1069.722</ele>
        <time>2012-08-03T12:53:45.762Z</time>
      </trkpt>
      <trkpt lat="45.02333" lon="5.4194">
        <ele>1067.001</ele>
        <time>2012-08-03T12:53:48.148Z</time>
      </trkpt>
      <trkpt lat="45.02322" lon="5.41954">
        <ele>1064.368</ele>
        <time>2012-08-03T12:53:51.208Z</time>
      </trkpt>
      <trkpt lat="45.02312" lon="5.4196">
        <ele>1061.981</ele>
        <time>2012-08-03T12:53:53.657Z</time>
      </trkpt>
      <trkpt lat="45.02303" lon="5.41973">
        <ele>1060.265</ele>
        <time>2012-08-03T12:53:56.614Z</time>
      </trkpt>
      <trkpt lat="45.02296" lon="5.41981">
        <ele>1059.518</ele>
        <time>2012-08-03T12:53:58.826Z</time>
      </trkpt>
      <trkpt lat="45.02288" lon="5.41988">
        <ele>1059.444</ele>
        <time>2012-08-03T12:54:01.272Z</time>
      </trkpt>
      <trkpt lat="45.02279" lon="5.41993">
        <ele>1059.602</ele>
        <time>2012-08-03T12:54:03.925Z</time>
      </trkpt>
      <trkpt lat="45.02266" lon="5.42">
        <ele>1059.603</ele>
        <time>2012-08-03T12:54:07.809Z</time>
      </trkpt>
      <trkpt lat="45.02251" lon="5.42003">
        <ele>1058.889</ele>
        <time>2012-08-03T12:54:12.138Z</time>
      </trkpt>
      <trkpt lat="45.02239" lon="5.42007">
        <ele>1057.445</ele>
        <time>2012-08-03T12:54:15.397Z</time>
      </trkpt>
      <trkpt lat="45.02226" lon="5.4201">
        <ele>1055.872</ele>
        <time>2012-08-03T12:54:18.627Z</time>
      </trkpt>
      <trkpt lat="45.02216" lon="5.42011">
        <ele>1054.588</ele>
        <time>2012-08-03T12:54:20.817Z</time>
      </trkpt>
      <trkpt lat="45.02191" lon="5.42021">
        <ele>1053.657</ele>
        <time>2012-08-03T12:54:26.010Z</time>
      </trkpt>
      <trkpt lat="45.02176" lon="5.42046">
        <ele>1052.928</ele>
        <time>2012-08-03T12:54:29.478Z</time>
      </trkpt>
      <trkpt lat="45.02174" lon="5.42074">
        <ele>1051.56</ele>
        <time>2012-08-03T12:54:32.316Z</time>
      </trkpt>
      <trkpt lat="45.02166" lon="5.42102">
        <ele>1048.63</ele>
        <time>2012-08-03T12:54:35.381Z</time>
      </trkpt>
      <trkpt lat="45.02157" lon="5.42131">
        <ele>1044.708</ele>
        <time>2012-08-03T12:54:39.622Z</time>
      </trkpt>
      <trkpt lat="45.02151" lon="5.42145">
        <ele>1041.232</ele>
        <time>2012-08-03T12:54:42.260Z</time>
      </trkpt>
      <trkpt lat="45.02141" lon="5.42153">
        <ele>1038.691</ele>
        <time>2012-08-03T12:54:46.591Z</time>
      </trkpt>
      <trkpt lat="45.02133" lon="5.42159">
        <ele>1036.686</ele>
        <time>2012-08-03T12:54:51.101Z</time>
      </trkpt>
      <trkpt lat="45.02126" lon="5.42168">
        <ele>1034.858</ele>
        <time>2012-08-03T12:54:55.904Z</time>
      </trkpt>
      <trkpt lat="45.02126" lon="5.42168">
        <ele>1033.384</ele>
        <time>2012-08-03T12:55:03.559Z</time>
      </trkpt>
      <trkpt lat="45.02126" lon="5.42168">
        <ele>1032.573</ele>
        <time>2012-08-03T12:55:28.422Z</time>
      </trkpt>
      <trkpt lat="45.02143" lon="5.42181">
        <ele>1031.482</ele>
        <time>2012-08-03T12:55:50.456Z</time>
      </trkpt>
      <trkpt lat="45.02151" lon="5.42188">
        <ele>1028.738</ele>
        <time>2012-08-03T12:55:57.077Z</time>
      </trkpt>
      <trkpt lat="45.0216" lon="5.42195">
        <ele>1024.962</ele>
        <time>2012-08-03T12:56:04.133Z</time>
      </trkpt>
      <trkpt lat="45.02169" lon="5.42201">
        <ele>1022.489</ele>
        <time>2012-08-03T12:56:11.553Z</time>
      </trkpt>
      <trkpt lat="45.02177" lon="5.4221">
        <ele>1022.218</ele>
        <time>2012-08-03T12:56:19.346Z</time>
      </trkpt>
      <trkpt lat="45.02186" lon="5.42215">
        <ele>1022.995</ele>
        <time>2012-08-03T12:56:26.347Z</time>
      </trkpt>
      <trkpt lat="45.02194" lon="5.42224">
        <ele>1023.656</ele>
        <time>2012-08-03T12:56:33.623Z</time>
      </trkpt>
      <trkpt lat="45.02202" lon="5.42232">
        <ele>1024.209</ele>
        <time>2012-08-03T12:56:40.215Z</time>
      </trkpt>
      <trkpt lat="45.02213" lon="5.42236">
        <ele>1025.362</ele>
        <time>2012-08-03T12:56:47.633Z</time>
      </trkpt>
      <trkpt lat="45.02221" lon="5.42244">
        <ele>1027.255</ele>
        <time>2012-08-03T12:56:54.240Z</time>
      </trkpt>
      <trkpt lat="45.02227" lon="5.42255">
        <ele>1029.019</ele>
        <time>2012-08-03T12:57:00.589Z</time>
      </trkpt>
      <trkpt lat="45.02229" lon="5.42268">
        <ele>1030.084</ele>
        <time>2012-08-03T12:57:07.152Z</time>
      </trkpt>
      <trkpt lat="45.02232" lon="5.42281">
        <ele>1030.914</ele>
        <time>2012-08-03T12:57:14.465Z</time>
      </trkpt>
      <trkpt lat="45.02237" lon="5.42294">
        <ele>1031.885</ele>
        <time>2012-08-03T12:57:21.549Z</time>
      </trkpt>
      <trkpt lat="45.02241" lon="5.42308">
        <ele>1032.516</ele>
        <time>2012-08-03T12:57:27.791Z</time>
      </trkpt>
      <trkpt lat="45.02246" lon="5.4232">
        <ele>1032.459</ele>
        <time>2012-08-03T12:57:32.976Z</time>
      </trkpt>
      <trkpt lat="45.02247" lon="5.42334">
        <ele>1032.097</ele>
        <time>2012-08-03T12:57:38.225Z</time>
      </trkpt>
      <trkpt lat="45.0225" lon="5.42346">
        <ele>1031.98</ele>
        <time>2012-08-03T12:57:43.822Z</time>
      </trkpt>
      <trkpt lat="45.02253" lon="5.42358">
        <ele>1032.251</ele>
        <time>2012-08-03T12:57:50.393Z</time>
      </trkpt>
      <trkpt lat="45.02248" lon="5.42369">
        <ele>1032.626</ele>
        <time>2012-08-03T12:57:56.590Z</time>
      </trkpt>
      <trkpt lat="45.02239" lon="5.42377">
        <ele>1032.969</ele>
        <time>2012-08-03T12:58:02.637Z</time>
      </trkpt>
      <trkpt lat="45.02232" lon="5.42384">
        <ele>1033.377</ele>
        <time>2012-08-03T12:58:08.184Z</time>
      </trkpt>
      <trkpt lat="45.02225" lon="5.42395">
        <ele>1033.723</ele>
        <time>2012-08-03T12:58:15.628Z</time>
      </trkpt>
      <trkpt lat="45.02223" lon="5.4241">
        <ele>1034.144</ele>
        <time>2012-08-03T12:58:24.213Z</time>
      </trkpt>
      <trkpt lat="45.02224" lon="5.42423">
        <ele>1035.288</ele>
        <time>2012-08-03T12:58:31.756Z</time>
      </trkpt>
      <trkpt lat="45.02219" lon="5.42434">
        <ele>1037.35</ele>
        <time>2012-08-03T12:58:38.566Z</time>
      </trkpt>
      <trkpt lat="45.02219" lon="5.42434">
        <ele>1039.5</ele>
        <time>2012-08-03T12:58:57.597Z</time>
      </trkpt>
      <trkpt lat="45.02219" lon="5.42434">
        <ele>1040.806</ele>
        <time>2012-08-03T13:01:11.667Z</time>
      </trkpt>
      <trkpt lat="45.02197" lon="5.42453">
        <ele>1041.176</ele>
        <time>2012-08-03T13:01:26.507Z</time>
      </trkpt>
      <trkpt lat="45.02209" lon="5.42492">
        <ele>1040.736</ele>
        <time>2012-08-03T13:01:33.033Z</time>
      </trkpt>
      <trkpt lat="45.02209" lon="5.42524">
        <ele>1039.453</ele>
        <time>2012-08-03T13:01:36.613Z</time>
      </trkpt>
      <trkpt lat="45.02211" lon="5.42547">
        <ele>1037.794</ele>
        <time>2012-08-03T13:01:38.794Z</time>
      </trkpt>
      <trkpt lat="45.02215" lon="5.42565">
        <ele>1036.49</ele>
        <time>2012-08-03T13:01:40.509Z</time>
      </trkpt>
      <trkpt lat="45.02229" lon="5.42592">
        <ele>1035.664</ele>
        <time>2012-08-03T13:01:43.311Z</time>
      </trkpt>
      <trkpt lat="45.02237" lon="5.42622">
        <ele>1034.696</ele>
        <time>2012-08-03T13:01:46.229Z</time>
      </trkpt>
      <trkpt lat="45.02234" lon="5.42637">
        <ele>1033.021</ele>
        <time>2012-08-03T13:01:47.869Z</time>
      </trkpt>
      <trkpt lat="45.02224" lon="5.42643">
        <ele>1030.834</ele>
        <time>2012-08-03T13:01:49.838Z</time>
      </trkpt>
      <trkpt lat="45.02211" lon="5.42653">
        <ele>1028.741</ele>
        <time>2012-08-03T13:01:52.466Z</time>
      </trkpt>
      <trkpt lat="45.02203" lon="5.42662">
        <ele>1026.843</ele>
        <time>2012-08-03T13:01:54.292Z</time>
      </trkpt>
      <trkpt lat="45.02193" lon="5.42672">
        <ele>1025.106</ele>
        <time>2012-08-03T13:01:56.438Z</time>
      </trkpt>
      <trkpt lat="45.02185" lon="5.42681">
        <ele>1023.788</ele>
        <time>2012-08-03T13:01:58.319Z</time>
      </trkpt>
      <trkpt lat="45.02186" lon="5.42694">
        <ele>1023.036</ele>
        <time>2012-08-03T13:02:00.285Z</time>
      </trkpt>
      <trkpt lat="45.02188" lon="5.42712">
        <ele>1022.569</ele>
        <time>2012-08-03T13:02:03.941Z</time>
      </trkpt>
      <trkpt lat="45.02192" lon="5.42762">
        <ele>1022.039</ele>
        <time>2012-08-03T13:02:13.159Z</time>
      </trkpt>
      <trkpt lat="45.02191" lon="5.42777">
        <ele>1020.687</ele>
        <time>2012-08-03T13:02:14.661Z</time>
      </trkpt>
      <trkpt lat="45.02191" lon="5.42777">
        <ele>1018.404</ele>
        <time>2012-08-03T13:02:23.864Z</time>
      </trkpt>
      <trkpt lat="45.02191" lon="5.42777">
        <ele>1016.382</ele>
        <time>2012-08-03T13:02:31.402Z</time>
      </trkpt>
      <trkpt lat="45.02183" lon="5.42802">
        <ele>1015.373</ele>
        <time>2012-08-03T13:02:46.644Z</time>
      </trkpt>
      <trkpt lat="45.02176" lon="5.42813">
        <ele>1014.382</ele>
        <time>2012-08-03T13:02:50.716Z</time>
      </trkpt>
      <trkpt lat="45.02167" lon="5.42818">
        <ele>1012.762</ele>
        <time>2012-08-03T13:02:53.928Z</time>
      </trkpt>
      <trkpt lat="45.02158" lon="5.42822">
        <ele>1010.03</ele>
        <time>2012-08-03T13:02:56.538Z</time>
      </trkpt>
      <trkpt lat="45.02143" lon="5.42829">
        <ele>1005.719</ele>
        <time>2012-08-03T13:03:00.693Z</time>
      </trkpt>
      <trkpt lat="45.02132" lon="5.42833">
        <ele>1001.106</ele>
        <time>2012-08-03T13:03:03.597Z</time>
      </trkpt>
      <trkpt lat="45.02122" lon="5.42836">
        <ele>998.056</ele>
        <time>2012-08-03T13:03:06.061Z</time>
      </trkpt>
      <trkpt lat="45.02108" lon="5.42837">
        <ele>996.269</ele>
        <time>2012-08-03T13:03:09.117Z</time>
      </trkpt>
      <trkpt lat="45.02095" lon="5.42842">
        <ele>994.888</ele>
        <time>2012-08-03T13:03:11.497Z</time>
      </trkpt>
      <trkpt lat="45.02071" lon="5.42887">
        <ele>993.806</ele>
        <time>2012-08-03T13:03:17.118Z</time>
      </trkpt>
      <trkpt lat="45.0205" lon="5.429">
        <ele>993.13</ele>
        <time>2012-08-03T13:03:20.496Z</time>
      </trkpt>
      <trkpt lat="45.02034" lon="5.42902">
        <ele>992.791</ele>
        <time>2012-08-03T13:03:23.014Z</time>
      </trkpt>
      <trkpt lat="45.02024" lon="5.429">
        <ele>992.315</ele>
        <time>2012-08-03T13:03:24.695Z</time>
      </trkpt>
      <trkpt lat="45.01997" lon="5.42911">
        <ele>991.285</ele>
        <time>2012-08-03T13:03:28.749Z</time>
      </trkpt>
      <trkpt lat="45.0199" lon="5.42936">
        <ele>990.094</ele>
        <time>2012-08-03T13:03:31.389Z</time>
      </trkpt>
      <trkpt lat="45.0199" lon="5.42961">
        <ele>989.236</ele>
        <time>2012-08-03T13:03:34.280Z</time>
      </trkpt>
      <trkpt lat="45.01993" lon="5.42979">
        <ele>988.653</ele>
        <time>2012-08-03T13:03:36.736Z</time>
      </trkpt>
      <trkpt lat="45.01995" lon="5.42993">
        <ele>988.066</ele>
        <time>2012-08-03T13:03:39.010Z</time>
      </trkpt>
      <trkpt lat="45.01997" lon="5.43006">
        <ele>987.119</ele>
        <time>2012-08-03T13:03:41.374Z</time>
      </trkpt>
      <trkpt lat="45.01986" lon="5.43023">
        <ele>985.648</ele>
        <time>2012-08-03T13:03:44.852Z</time>
      </trkpt>
      <trkpt lat="45.0198" lon="5.43032">
        <ele>984.024</ele>
        <time>2012-08-03T13:03:46.642Z</time>
      </trkpt>
      <trkpt lat="45.01969" lon="5.43035">
        <ele>982.807</ele>
        <time>2012-08-03T13:03:48.920Z</time>
      </trkpt>
      <trkpt lat="45.01963" lon="5.43046">
        <ele>982.098</ele>
        <time>2012-08-03T13:03:50.776Z</time>
      </trkpt>
      <trkpt lat="45.01954" lon="5.43057">
        <ele>981.774</ele>
        <time>2012-08-03T13:03:52.840Z</time>
      </trkpt>
      <trkpt lat="45.01942" lon="5.43074">
        <ele>981.456</ele>
        <time>2012-08-03T13:03:55.381Z</time>
      </trkpt>
      <trkpt lat="45.01935" lon="5.43102">
        <ele>980.521</ele>
        <time>2012-08-03T13:03:58.190Z</time>
      </trkpt>
      <trkpt lat="45.01922" lon="5.43126">
        <ele>978.982</ele>
        <time>2012-08-03T13:04:00.915Z</time>
      </trkpt>
      <trkpt lat="45.01916" lon="5.43139">
        <ele>977.282</ele>
        <time>2012-08-03T13:04:02.307Z</time>
      </trkpt>
      <trkpt lat="45.01904" lon="5.43159">
        <ele>975.378</ele>
        <time>2012-08-03T13:04:05.007Z</time>
      </trkpt>
      <trkpt lat="45.01901" lon="5.43176">
        <ele>973.109</ele>
        <time>2012-08-03T13:04:07.081Z</time>
      </trkpt>
      <trkpt lat="45.01896" lon="5.4319">
        <ele>971.02</ele>
        <time>2012-08-03T13:04:09.155Z</time>
      </trkpt>
      <trkpt lat="45.01892" lon="5.43208">
        <ele>969.68</ele>
        <time>2012-08-03T13:04:11.391Z</time>
      </trkpt>
      <trkpt lat="45.01886" lon="5.43222">
        <ele>969.012</ele>
        <time>2012-08-03T13:04:13.219Z</time>
      </trkpt>
      <trkpt lat="45.01877" lon="5.43238">
        <ele>968.615</ele>
        <time>2012-08-03T13:04:15.392Z</time>
      </trkpt>
      <trkpt lat="45.01859" lon="5.43264">
        <ele>968.113</ele>
        <time>2012-08-03T13:04:18.834Z</time>
      </trkpt>
      <trkpt lat="45.01849" lon="5.43276">
        <ele>967.316</ele>
        <time>2012-08-03T13:04:20.583Z</time>
      </trkpt>
      <trkpt lat="45.01843" lon="5.43292">
        <ele>966.189</ele>
        <time>2012-08-03T13:04:22.650Z</time>
      </trkpt>
      <trkpt lat="45.01838" lon="5.43312">
        <ele>964.505</ele>
        <time>2012-08-03T13:04:25.027Z</time>
      </trkpt>
      <trkpt lat="45.01834" lon="5.43329">
        <ele>961.823</ele>
        <time>2012-08-03T13:04:27.154Z</time>
      </trkpt>
      <trkpt lat="45.01833" lon="5.43341">
        <ele>958.455</ele>
        <time>2012-08-03T13:04:28.729Z</time>
      </trkpt>
      <trkpt lat="45.01833" lon="5.43341">
        <ele>955.739</ele>
        <time>2012-08-03T13:04:32.618Z</time>
      </trkpt>
      <trkpt lat="45.01833" lon="5.43341">
        <ele>954.482</ele>
        <time>2012-08-03T13:04:46.082Z</time>
      </trkpt>
      <trkpt lat="45.01812" lon="5.43354">
        <ele>954.141</ele>
        <time>2012-08-03T13:05:03.629Z</time>
      </trkpt>
      <trkpt lat="45.01789" lon="5.43354">
        <ele>953.604</ele>
        <time>2012-08-03T13:05:08.502Z</time>
      </trkpt>
      <trkpt lat="45.0177" lon="5.43357">
        <ele>951.874</ele>
        <time>2012-08-03T13:05:11.386Z</time>
      </trkpt>
      <trkpt lat="45.01753" lon="5.43357">
        <ele>947.906</ele>
        <time>2012-08-03T13:05:13.907Z</time>
      </trkpt>
      <trkpt lat="45.01721" lon="5.43359">
        <ele>942.026</ele>
        <time>2012-08-03T13:05:17.927Z</time>
      </trkpt>
      <trkpt lat="45.01708" lon="5.43353">
        <ele>936.703</ele>
        <time>2012-08-03T13:05:19.618Z</time>
      </trkpt>
      <trkpt lat="45.01688" lon="5.43359">
        <ele>933.706</ele>
        <time>2012-08-03T13:05:22.583Z</time>
      </trkpt>
      <trkpt lat="45.01676" lon="5.4336">
        <ele>932.159</ele>
        <time>2012-08-03T13:05:24.727Z</time>
      </trkpt>
      <trkpt lat="45.01666" lon="5.43371">
        <ele>930.806</ele>
        <time>2012-08-03T13:05:27.470Z</time>
      </trkpt>
      <trkpt lat="45.01652" lon="5.43377">
        <ele>929.144</ele>
        <time>2012-08-03T13:05:29.995Z</time>
      </trkpt>
      <trkpt lat="45.01641" lon="5.43375">
        <ele>927.236</ele>
        <time>2012-08-03T13:05:31.824Z</time>
      </trkpt>
      <trkpt lat="45.01627" lon="5.43374">
        <ele>925.466</ele>
        <time>2012-08-03T13:05:33.928Z</time>
      </trkpt>
      <trkpt lat="45.01609" lon="5.43379">
        <ele>924.146</ele>
        <time>2012-08-03T13:05:36.462Z</time>
      </trkpt>
      <trkpt lat="45.01589" lon="5.43384">
        <ele>923.125</ele>
        <time>2012-08-03T13:05:39.205Z</time>
      </trkpt>
      <trkpt lat="45.01575" lon="5.43384">
        <ele>922.202</ele>
        <time>2012-08-03T13:05:41.059Z</time>
      </trkpt>
      <trkpt lat="45.01561" lon="5.43385">
        <ele>920.851</ele>
        <time>2012-08-03T13:05:42.976Z</time>
      </trkpt>
      <trkpt lat="45.01547" lon="5.43372">
        <ele>918.384</ele>
        <time>2012-08-03T13:05:45.868Z</time>
      </trkpt>
      <trkpt lat="45.01538" lon="5.4337">
        <ele>915.198</ele>
        <time>2012-08-03T13:05:47.569Z</time>
      </trkpt>
      <trkpt lat="45.01538" lon="5.4337">
        <ele>912.698</ele>
        <time>2012-08-03T13:05:53.540Z</time>
      </trkpt>
      <trkpt lat="45.01538" lon="5.4337">
        <ele>911.544</ele>
        <time>2012-08-03T13:06:56.794Z</time>
      </trkpt>
      <trkpt lat="45.01521" lon="5.43389">
        <ele>911.078</ele>
        <time>2012-08-03T13:07:12.664Z</time>
      </trkpt>
      <trkpt lat="45.0153" lon="5.43417">
        <ele>908.921</ele>
        <time>2012-08-03T13:07:17.146Z</time>
      </trkpt>
      <trkpt lat="45.01541" lon="5.43437">
        <ele>903.85</ele>
        <time>2012-08-03T13:07:20.399Z</time>
      </trkpt>
      <trkpt lat="45.0155" lon="5.43449">
        <ele>896.546</ele>
        <time>2012-08-03T13:07:22.615Z</time>
      </trkpt>
      <trkpt lat="45.01552" lon="5.43463">
        <ele>888.224</ele>
        <time>2012-08-03T13:07:24.278Z</time>
      </trkpt>
      <trkpt lat="45.01565" lon="5.43481">
        <ele>880.93</ele>
        <time>2012-08-03T13:07:27.389Z</time>
      </trkpt>
      <trkpt lat="45.01565" lon="5.43498">
        <ele>876.081</ele>
        <time>2012-08-03T13:07:29.390Z</time>
      </trkpt>
      <trkpt lat="45.01573" lon="5.43512">
        <ele>872.522</ele>
        <time>2012-08-03T13:07:31.681Z</time>
      </trkpt>
      <trkpt lat="45.01578" lon="5.43527">
        <ele>869.651</ele>
        <time>2012-08-03T13:07:33.552Z</time>
      </trkpt>
      <trkpt lat="45.01582" lon="5.43544">
        <ele>867.538</ele>
        <time>2012-08-03T13:07:35.494Z</time>
      </trkpt>
      <trkpt lat="45.01592" lon="5.43556">
        <ele>865.033</ele>
        <time>2012-08-03T13:07:37.607Z</time>
      </trkpt>
      <trkpt lat="45.016" lon="5.43564">
        <ele>861.268</ele>
        <time>2012-08-03T13:07:39.220Z</time>
      </trkpt>
      <trkpt lat="45.016" lon="5.43577">
        <ele>857.533</ele>
        <time>2012-08-03T13:07:41.054Z</time>
      </trkpt>
      <trkpt lat="45.01596" lon="5.43591">
        <ele>854.713</ele>
        <time>2012-08-03T13:07:43.072Z</time>
      </trkpt>
      <trkpt lat="45.01586" lon="5.43596">
        <ele>851.941</ele>
        <time>2012-08-03T13:07:45.490Z</time>
      </trkpt>
      <trkpt lat="45.01579" lon="5.4361">
        <ele>848.393</ele>
        <time>2012-08-03T13:07:48.688Z</time>
      </trkpt>
      <trkpt lat="45.01579" lon="5.4361">
        <ele>844.682</ele>
        <time>2012-08-03T13:07:53.712Z</time>
      </trkpt>
      <trkpt lat="45.01579" lon="5.4361">
        <ele>842.211</ele>
        <time>2012-08-03T13:08:01.375Z</time>
      </trkpt>
      <trkpt lat="45.01578" lon="5.43643">
        <ele>840.72</ele>
        <time>2012-08-03T13:08:09.662Z</time>
      </trkpt>
      <trkpt lat="45.01576" lon="5.43665">
        <ele>838.331</ele>
        <time>2012-08-03T13:08:12.597Z</time>
      </trkpt>
      <trkpt lat="45.01575" lon="5.43688">
        <ele>834.575</ele>
        <time>2012-08-03T13:08:16.055Z</time>
      </trkpt>
      <trkpt lat="45.01575" lon="5.43703">
        <ele>830.972</ele>
        <time>2012-08-03T13:08:18.611Z</time>
      </trkpt>
      <trkpt lat="45.01575" lon="5.43718">
        <ele>829.195</ele>
        <time>2012-08-03T13:08:22.334Z</time>
      </trkpt>
      <trkpt lat="45.01575" lon="5.43733">
        <ele>829.397</ele>
        <time>2012-08-03T13:08:25.540Z</time>
      </trkpt>
      <trkpt lat="45.01575" lon="5.43748">
        <ele>830.193</ele>
        <time>2012-08-03T13:08:28.868Z</time>
      </trkpt>
      <trkpt lat="45.01577" lon="5.43772">
        <ele>830.479</ele>
        <time>2012-08-03T13:08:33.617Z</time>
      </trkpt>
      <trkpt lat="45.01581" lon="5.43791">
        <ele>830.328</ele>
        <time>2012-08-03T13:08:36.797Z</time>
      </trkpt>
      <trkpt lat="45.01589" lon="5.43803">
        <ele>830.134</ele>
        <time>2012-08-03T13:08:39.350Z</time>
      </trkpt>
      <trkpt lat="45.01597" lon="5.43813">
        <ele>830.03</ele>
        <time>2012-08-03T13:08:41.466Z</time>
      </trkpt>
      <trkpt lat="45.01621" lon="5.43827">
        <ele>829.594</ele>
        <time>2012-08-03T13:08:46.198Z</time>
      </trkpt>
      <trkpt lat="45.01632" lon="5.43835">
        <ele>828.527</ele>
        <time>2012-08-03T13:08:48.249Z</time>
      </trkpt>
      <trkpt lat="45.01648" lon="5.43837">
        <ele>827.158</ele>
        <time>2012-08-03T13:08:51.178Z</time>
      </trkpt>
      <trkpt lat="45.01659" lon="5.43848">
        <ele>825.506</ele>
        <time>2012-08-03T13:08:53.436Z</time>
      </trkpt>
      <trkpt lat="45.0167" lon="5.4386">
        <ele>823.471</ele>
        <time>2012-08-03T13:08:55.800Z</time>
      </trkpt>
      <trkpt lat="45.01683" lon="5.43872">
        <ele>821.327</ele>
        <time>2012-08-03T13:08:58.472Z</time>
      </trkpt>
      <trkpt lat="45.0169" lon="5.43884">
        <ele>819.112</ele>
        <time>2012-08-03T13:09:00.445Z</time>
      </trkpt>
      <trkpt lat="45.01698" lon="5.43892">
        <ele>816.854</ele>
        <time>2012-08-03T13:09:02.201Z</time>
      </trkpt>
      <trkpt lat="45.0171" lon="5.43906">
        <ele>814.861</ele>
        <time>2012-08-03T13:09:05.019Z</time>
      </trkpt>
      <trkpt lat="45.01719" lon="5.43916">
        <ele>813.335</ele>
        <time>2012-08-03T13:09:07.160Z</time>
      </trkpt>
      <trkpt lat="45.01729" lon="5.43929">
        <ele>812.085</ele>
        <time>2012-08-03T13:09:09.620Z</time>
      </trkpt>
      <trkpt lat="45.01745" lon="5.43947">
        <ele>810.653</ele>
        <time>2012-08-03T13:09:13.362Z</time>
      </trkpt>
      <trkpt lat="45.01764" lon="5.4396">
        <ele>809.006</ele>
        <time>2012-08-03T13:09:16.894Z</time>
      </trkpt>
      <trkpt lat="45.01787" lon="5.43973">
        <ele>807.367</ele>
        <time>2012-08-03T13:09:21.029Z</time>
      </trkpt>
      <trkpt lat="45.01798" lon="5.43984">
        <ele>805.539</ele>
        <time>2012-08-03T13:09:23.529Z</time>
      </trkpt>
      <trkpt lat="45.01814" lon="5.43982">
        <ele>803.587</ele>
        <time>2012-08-03T13:09:27.408Z</time>
      </trkpt>
      <trkpt lat="45.0183" lon="5.43983">
        <ele>801.949</ele>
        <time>2012-08-03T13:09:32.176Z</time>
      </trkpt>
      <trkpt lat="45.01841" lon="5.43996">
        <ele>800.485</ele>
        <time>2012-08-03T13:09:36.003Z</time>
      </trkpt>
      <trkpt lat="45.01842" lon="5.44009">
        <ele>798.649</ele>
        <time>2012-08-03T13:09:37.855Z</time>
      </trkpt>
      <trkpt lat="45.01842" lon="5.44025">
        <ele>796.225</ele>
        <time>2012-08-03T13:09:40.014Z</time>
      </trkpt>
      <trkpt lat="45.01834" lon="5.44055">
        <ele>793.192</ele>
        <time>2012-08-03T13:09:44.295Z</time>
      </trkpt>
      <trkpt lat="45.01828" lon="5.44072">
        <ele>789.748</ele>
        <time>2012-08-03T13:09:46.923Z</time>
      </trkpt>
      <trkpt lat="45.01823" lon="5.44087">
        <ele>786.287</ele>
        <time>2012-08-03T13:09:49.948Z</time>
      </trkpt>
      <trkpt lat="45.01821" lon="5.441">
        <ele>782.654</ele>
        <time>2012-08-03T13:09:53.189Z</time>
      </trkpt>
      <trkpt lat="45.0182" lon="5.44113">
        <ele>778.544</ele>
        <time>2012-08-03T13:09:56.643Z</time>
      </trkpt>
      <trkpt lat="45.01818" lon="5.44127">
        <ele>774.615</ele>
        <time>2012-08-03T13:10:00.160Z</time>
      </trkpt>
      <trkpt lat="45.01816" lon="5.44142">
        <ele>771.352</ele>
        <time>2012-08-03T13:10:03.448Z</time>
      </trkpt>
      <trkpt lat="45.01814" lon="5.44155">
        <ele>767.888</ele>
        <time>2012-08-03T13:10:05.895Z</time>
      </trkpt>
      <trkpt lat="45.01811" lon="5.44167">
        <ele>763.711</ele>
        <time>2012-08-03T13:10:07.935Z</time>
      </trkpt>
      <trkpt lat="45.01799" lon="5.44173">
        <ele>759.544</ele>
        <time>2012-08-03T13:10:10.198Z</time>
      </trkpt>
      <trkpt lat="45.01784" lon="5.44176">
        <ele>756.281</ele>
        <time>2012-08-03T13:10:12.766Z</time>
      </trkpt>
      <trkpt lat="45.0177" lon="5.44179">
        <ele>754.067</ele>
        <time>2012-08-03T13:10:15.007Z</time>
      </trkpt>
      <trkpt lat="45.01752" lon="5.4418">
        <ele>752.544</ele>
        <time>2012-08-03T13:10:17.533Z</time>
      </trkpt>
      <trkpt lat="45.01739" lon="5.44181">
        <ele>751.497</ele>
        <time>2012-08-03T13:10:19.480Z</time>
      </trkpt>
      <trkpt lat="45.01721" lon="5.44173">
        <ele>751.006</ele>
        <time>2012-08-03T13:10:21.977Z</time>
      </trkpt>
      <trkpt lat="45.01706" lon="5.44159">
        <ele>750.796</ele>
        <time>2012-08-03T13:10:24.554Z</time>
      </trkpt>
      <trkpt lat="45.01694" lon="5.44148">
        <ele>750.523</ele>
        <time>2012-08-03T13:10:26.416Z</time>
      </trkpt>
      <trkpt lat="45.01678" lon="5.44144">
        <ele>749.962</ele>
        <time>2012-08-03T13:10:28.854Z</time>
      </trkpt>
      <trkpt lat="45.01669" lon="5.44144">
        <ele>748.969</ele>
        <time>2012-08-03T13:10:30.355Z</time>
      </trkpt>
      <trkpt lat="45.01656" lon="5.44142">
        <ele>747.849</ele>
        <time>2012-08-03T13:10:32.553Z</time>
      </trkpt>
      <trkpt lat="45.01644" lon="5.44141">
        <ele>747.152</ele>
        <time>2012-08-03T13:10:34.768Z</time>
      </trkpt>
      <trkpt lat="45.01644" lon="5.44141">
        <ele>746.946</ele>
        <time>2012-08-03T13:10:42.773Z</time>
      </trkpt>
      <trkpt lat="45.01644" lon="5.44141">
        <ele>746.874</ele>
        <time>2012-08-03T13:11:01.317Z</time>
      </trkpt>
      <trkpt lat="45.01655" lon="5.4414">
        <ele>746.66</ele>
        <time>2012-08-03T13:11:09.243Z</time>
      </trkpt>
      <trkpt lat="45.01644" lon="5.44147">
        <ele>746.382</ele>
        <time>2012-08-03T13:11:15.002Z</time>
      </trkpt>
      <trkpt lat="45.01635" lon="5.44148">
        <ele>746.195</ele>
        <time>2012-08-03T13:11:18.912Z</time>
      </trkpt>
      <trkpt lat="45.01625" lon="5.44148">
        <ele>746.113</ele>
        <time>2012-08-03T13:11:22.700Z</time>
      </trkpt>
      <trkpt lat="45.01614" lon="5.44148">
        <ele>746.104</ele>
        <time>2012-08-03T13:11:26.513Z</time>
      </trkpt>
      <trkpt lat="45.01603" lon="5.44148">
        <ele>746.121</ele>
        <time>2012-08-03T13:11:30.109Z</time>
      </trkpt>
      <trkpt lat="45.01593" lon="5.44148">
        <ele>746.136</ele>
        <time>2012-08-03T13:11:33.188Z</time>
      </trkpt>
      <trkpt lat="45.01583" lon="5.44146">
        <ele>746.005</ele>
        <time>2012-08-03T13:11:36.182Z</time>
      </trkpt>
      <trkpt lat="45.01574" lon="5.44144">
        <ele>745.645</ele>
        <time>2012-08-03T13:11:38.880Z</time>
      </trkpt>
      <trkpt lat="45.01561" lon="5.44139">
        <ele>745.275</ele>
        <time>2012-08-03T13:11:42.236Z</time>
      </trkpt>
      <trkpt lat="45.01545" lon="5.4414">
        <ele>744.96</ele>
        <time>2012-08-03T13:11:45.715Z</time>
      </trkpt>
      <trkpt lat="45.01533" lon="5.44142">
        <ele>744.435</ele>
        <time>2012-08-03T13:11:48.696Z</time>
      </trkpt>
      <trkpt lat="45.01522" lon="5.4414">
        <ele>743.735</ele>
        <time>2012-08-03T13:11:51.599Z</time>
      </trkpt>
      <trkpt lat="45.01513" lon="5.44135">
        <ele>743.083</ele>
        <time>2012-08-03T13:11:56.635Z</time>
      </trkpt>
      <trkpt lat="45.01502" lon="5.44129">
        <ele>742.535</ele>
        <time>2012-08-03T13:12:02.635Z</time>
      </trkpt>
      <trkpt lat="45.01492" lon="5.44124">
        <ele>742.171</ele>
        <time>2012-08-03T13:12:05.627Z</time>
      </trkpt>
      <trkpt lat="45.01478" lon="5.44114">
        <ele>741.777</ele>
        <time>2012-08-03T13:12:08.983Z</time>
      </trkpt>
      <trkpt lat="45.01468" lon="5.44108">
        <ele>740.935</ele>
        <time>2012-08-03T13:12:11.036Z</time>
      </trkpt>
      <trkpt lat="45.01459" lon="5.44109">
        <ele>739.881</ele>
        <time>2012-08-03T13:12:13.104Z</time>
      </trkpt>
      <trkpt lat="45.0145" lon="5.44107">
        <ele>739.19</ele>
        <time>2012-08-03T13:12:15.239Z</time>
      </trkpt>
      <trkpt lat="45.0144" lon="5.44111">
        <ele>738.971</ele>
        <time>2012-08-03T13:12:18.045Z</time>
      </trkpt>
      <trkpt lat="45.0143" lon="5.44114">
        <ele>739.003</ele>
        <time>2012-08-03T13:12:21.426Z</time>
      </trkpt>
      <trkpt lat="45.01418" lon="5.44115">
        <ele>739.366</ele>
        <time>2012-08-03T13:12:25.643Z</time>
      </trkpt>
      <trkpt lat="45.01406" lon="5.44115">
        <ele>740.28</ele>
        <time>2012-08-03T13:12:30.587Z</time>
      </trkpt>
      <trkpt lat="45.01393" lon="5.44112">
        <ele>741.949</ele>
        <time>2012-08-03T13:12:34.766Z</time>
      </trkpt>
      <trkpt lat="45.01385" lon="5.44108">
        <ele>744.106</ele>
        <time>2012-08-03T13:12:37.243Z</time>
      </trkpt>
      <trkpt lat="45.01375" lon="5.44106">
        <ele>745.805</ele>
        <time>2012-08-03T13:12:40.268Z</time>
      </trkpt>
      <trkpt lat="45.01365" lon="5.44102">
        <ele>746.468</ele>
        <time>2012-08-03T13:12:43.697Z</time>
      </trkpt>
      <trkpt lat="45.01354" lon="5.44098">
        <ele>746.482</ele>
        <time>2012-08-03T13:12:47.729Z</time>
      </trkpt>
      <trkpt lat="45.01344" lon="5.44096">
        <ele>746.304</ele>
        <time>2012-08-03T13:12:51.384Z</time>
      </trkpt>
      <trkpt lat="45.01334" lon="5.44095">
        <ele>746.166</ele>
        <time>2012-08-03T13:12:55.123Z</time>
      </trkpt>
      <trkpt lat="45.01323" lon="5.44091">
        <ele>746.113</ele>
        <time>2012-08-03T13:12:58.973Z</time>
      </trkpt>
      <trkpt lat="45.01312" lon="5.44092">
        <ele>746.113</ele>
        <time>2012-08-03T13:13:02.977Z</time>
      </trkpt>
      <trkpt lat="45.01303" lon="5.44085">
        <ele>746.127</ele>
        <time>2012-08-03T13:13:06.805Z</time>
      </trkpt>
      <trkpt lat="45.01294" lon="5.44085">
        <ele>746.139</ele>
        <time>2012-08-03T13:13:10.496Z</time>
      </trkpt>
      <trkpt lat="45.01283" lon="5.44087">
        <ele>746.143</ele>
        <time>2012-08-03T13:13:15.019Z</time>
      </trkpt>
      <trkpt lat="45.01273" lon="5.44089">
        <ele>746.143</ele>
        <time>2012-08-03T13:13:19.858Z</time>
      </trkpt>
      <trkpt lat="45.01263" lon="5.44088">
        <ele>746.142</ele>
        <time>2012-08-03T13:13:24.321Z</time>
      </trkpt>
      <trkpt lat="45.01252" lon="5.4409">
        <ele>746.141</ele>
        <time>2012-08-03T13:13:28.556Z</time>
      </trkpt>
      <trkpt lat="45.01241" lon="5.4409">
        <ele>746.278</ele>
        <time>2012-08-03T13:13:32.654Z</time>
      </trkpt>
      <trkpt lat="45.01229" lon="5.4409">
        <ele>746.777</ele>
        <time>2012-08-03T13:13:37.156Z</time>
      </trkpt>
      <trkpt lat="45.01218" lon="5.44089">
        <ele>747.506</ele>
        <time>2012-08-03T13:13:41.326Z</time>
      </trkpt>
      <trkpt lat="45.01205" lon="5.44089">
        <ele>748.051</ele>
        <time>2012-08-03T13:13:45.610Z</time>
      </trkpt>
      <trkpt lat="45.01194" lon="5.44093">
        <ele>748.253</ele>
        <time>2012-08-03T13:13:48.895Z</time>
      </trkpt>
      <trkpt lat="45.01185" lon="5.44098">
        <ele>748.249</ele>
        <time>2012-08-03T13:13:51.598Z</time>
      </trkpt>
      <trkpt lat="45.01175" lon="5.44104">
        <ele>748.189</ele>
        <time>2012-08-03T13:13:54.707Z</time>
      </trkpt>
      <trkpt lat="45.01159" lon="5.44109">
        <ele>748.145</ele>
        <time>2012-08-03T13:13:59.106Z</time>
      </trkpt>
      <trkpt lat="45.01145" lon="5.4411">
        <ele>748.267</ele>
        <time>2012-08-03T13:14:02.782Z</time>
      </trkpt>
      <trkpt lat="45.01133" lon="5.4411">
        <ele>748.627</ele>
        <time>2012-08-03T13:14:05.594Z</time>
      </trkpt>
      <trkpt lat="45.01119" lon="5.44108">
        <ele>749.002</ele>
        <time>2012-08-03T13:14:08.570Z</time>
      </trkpt>
      <trkpt lat="45.01109" lon="5.44104">
        <ele>749.18</ele>
        <time>2012-08-03T13:14:10.679Z</time>
      </trkpt>
      <trkpt lat="45.01096" lon="5.44104">
        <ele>749.346</ele>
        <time>2012-08-03T13:14:13.421Z</time>
      </trkpt>
      <trkpt lat="45.01086" lon="5.44104">
        <ele>749.676</ele>
        <time>2012-08-03T13:14:15.569Z</time>
      </trkpt>
      <trkpt lat="45.01075" lon="5.44103">
        <ele>750.015</ele>
        <time>2012-08-03T13:14:18.087Z</time>
      </trkpt>
      <trkpt lat="45.01061" lon="5.44107">
        <ele>750.038</ele>
        <time>2012-08-03T13:14:21.097Z</time>
      </trkpt>
      <trkpt lat="45.01047" lon="5.4411">
        <ele>749.702</ele>
        <time>2012-08-03T13:14:24.197Z</time>
      </trkpt>
      <trkpt lat="45.01036" lon="5.44116">
        <ele>749.167</ele>
        <time>2012-08-03T13:14:26.794Z</time>
      </trkpt>
      <trkpt lat="45.01027" lon="5.44119">
        <ele>748.328</ele>
        <time>2012-08-03T13:14:28.768Z</time>
      </trkpt>
      <trkpt lat="45.01013" lon="5.44122">
        <ele>746.923</ele>
        <time>2012-08-03T13:14:31.702Z</time>
      </trkpt>
      <trkpt lat="45.00997" lon="5.44126">
        <ele>745.317</ele>
        <time>2012-08-03T13:14:35.192Z</time>
      </trkpt>
      <trkpt lat="45.00988" lon="5.4413">
        <ele>744.234</ele>
        <time>2012-08-03T13:14:37.095Z</time>
      </trkpt>
      <trkpt lat="45.00978" lon="5.44134">
        <ele>743.738</ele>
        <time>2012-08-03T13:14:39.096Z</time>
      </trkpt>
      <trkpt lat="45.00965" lon="5.44141">
        <ele>743.28</ele>
        <time>2012-08-03T13:14:42.015Z</time>
      </trkpt>
      <trkpt lat="45.00954" lon="5.44145">
        <ele>742.407</ele>
        <time>2012-08-03T13:14:44.150Z</time>
      </trkpt>
      <trkpt lat="45.00942" lon="5.44144">
        <ele>741.23</ele>
        <time>2012-08-03T13:14:46.554Z</time>
      </trkpt>
      <trkpt lat="45.00934" lon="5.44129">
        <ele>740.18</ele>
        <time>2012-08-03T13:14:49.305Z</time>
      </trkpt>
      <trkpt lat="45.00925" lon="5.44124">
        <ele>739.469</ele>
        <time>2012-08-03T13:14:51.630Z</time>
      </trkpt>
      <trkpt lat="45.00916" lon="5.44123">
        <ele>739.096</ele>
        <time>2012-08-03T13:14:54.033Z</time>
      </trkpt>
      <trkpt lat="45.00906" lon="5.44125">
        <ele>739.018</ele>
        <time>2012-08-03T13:14:57.055Z</time>
      </trkpt>
      <trkpt lat="45.00897" lon="5.44131">
        <ele>739.203</ele>
        <time>2012-08-03T13:15:00.211Z</time>
      </trkpt>
      <trkpt lat="45.00887" lon="5.4413">
        <ele>740.036</ele>
        <time>2012-08-03T13:15:04.261Z</time>
      </trkpt>
      <trkpt lat="45.00876" lon="5.44128">
        <ele>741.791</ele>
        <time>2012-08-03T13:15:08.418Z</time>
      </trkpt>
      <trkpt lat="45.00867" lon="5.44129">
        <ele>743.801</ele>
        <time>2012-08-03T13:15:12.657Z</time>
      </trkpt>
      <trkpt lat="45.00858" lon="5.44131">
        <ele>745.088</ele>
        <time>2012-08-03T13:15:17.223Z</time>
      </trkpt>
      <trkpt lat="45.00847" lon="5.44136">
        <ele>745.207</ele>
        <time>2012-08-03T13:15:22.817Z</time>
      </trkpt>
      <trkpt lat="45.0084" lon="5.44148">
        <ele>744.418</ele>
        <time>2012-08-03T13:15:26.924Z</time>
      </trkpt>
      <trkpt lat="45.00829" lon="5.44146">
        <ele>743.514</ele>
        <time>2012-08-03T13:15:30.782Z</time>
      </trkpt>
      <trkpt lat="45.00821" lon="5.44139">
        <ele>742.921</ele>
        <time>2012-08-03T13:15:34.563Z</time>
      </trkpt>
      <trkpt lat="45.00814" lon="5.44127">
        <ele>742.477</ele>
        <time>2012-08-03T13:15:39.759Z</time>
      </trkpt>
      <trkpt lat="45.00817" lon="5.44114">
        <ele>742.312</ele>
        <time>2012-08-03T13:15:44.882Z</time>
      </trkpt>
      <trkpt lat="45.00826" lon="5.441">
        <ele>742.57</ele>
        <time>2012-08-03T13:15:51.593Z</time>
      </trkpt>
      <trkpt lat="45.00824" lon="5.44087">
        <ele>742.949</ele>
        <time>2012-08-03T13:15:56.102Z</time>
      </trkpt>
      <trkpt lat="45.00814" lon="5.4408">
        <ele>743.161</ele>
        <time>2012-08-03T13:16:01.870Z</time>
      </trkpt>
      <trkpt lat="45.00805" lon="5.44075">
        <ele>743.212</ele>
        <time>2012-08-03T13:16:07.362Z</time>
      </trkpt>
      <trkpt lat="45.00795" lon="5.44076">
        <ele>743.19</ele>
        <time>2012-08-03T13:16:14.880Z</time>
      </trkpt>
      <trkpt lat="45.00787" lon="5.44069">
        <ele>743.021</ele>
        <time>2012-08-03T13:16:22.405Z</time>
      </trkpt>
      <trkpt lat="45.0078" lon="5.44059">
        <ele>742.506</ele>
        <time>2012-08-03T13:16:31.359Z</time>
      </trkpt>
      <trkpt lat="45.00774" lon="5.4405">
        <ele>741.635</ele>
        <time>2012-08-03T13:16:41.204Z</time>
      </trkpt>
      <trkpt lat="45.00765" lon="5.44053">
        <ele>740.455</ele>
        <time>2012-08-03T13:16:52.797Z</time>
      </trkpt>
      <trkpt lat="45.00762" lon="5.4404">
        <ele>739.167</ele>
        <time>2012-08-03T13:17:04.599Z</time>
      </trkpt>
      <trkpt lat="45.00762" lon="5.4404">
        <ele>738.281</ele>
        <time>2012-08-03T13:17:16.603Z</time>
      </trkpt>
      <trkpt lat="45.00762" lon="5.4404">
        <ele>737.902</ele>
        <time>2012-08-03T13:17:25.085Z</time>
      </trkpt>
      <trkpt lat="45.00737" lon="5.44038">
        <ele>737.665</ele>
        <time>2012-08-03T13:17:52.900Z</time>
      </trkpt>
      <trkpt lat="45.00723" lon="5.44035">
        <ele>737.596</ele>
        <time>2012-08-03T13:17:57.315Z</time>
      </trkpt>
      <trkpt lat="45.00714" lon="5.44035">
        <ele>738.091</ele>
        <time>2012-08-03T13:17:59.433Z</time>
      </trkpt>
      <trkpt lat="45.00695" lon="5.4404">
        <ele>739.075</ele>
        <time>2012-08-03T13:18:03.226Z</time>
      </trkpt>
      <trkpt lat="45.00685" lon="5.44045">
        <ele>739.927</ele>
        <time>2012-08-03T13:18:05.198Z</time>
      </trkpt>
      <trkpt lat="45.00675" lon="5.4405">
        <ele>740.287</ele>
        <time>2012-08-03T13:18:07.092Z</time>
      </trkpt>
      <trkpt lat="45.0066" lon="5.44054">
        <ele>740.315</ele>
        <time>2012-08-03T13:18:09.697Z</time>
      </trkpt>
      <trkpt lat="45.00646" lon="5.44058">
        <ele>740.096</ele>
        <time>2012-08-03T13:18:11.688Z</time>
      </trkpt>
      <trkpt lat="45.00615" lon="5.44081">
        <ele>739.39</ele>
        <time>2012-08-03T13:18:15.797Z</time>
      </trkpt>
      <trkpt lat="45.00598" lon="5.44091">
        <ele>737.857</ele>
        <time>2012-08-03T13:18:17.847Z</time>
      </trkpt>
      <trkpt lat="45.0057" lon="5.44099">
        <ele>735.585</ele>
        <time>2012-08-03T13:18:20.690Z</time>
      </trkpt>
      <trkpt lat="45.00545" lon="5.44103">
        <ele>733.387</ele>
        <time>2012-08-03T13:18:23.038Z</time>
      </trkpt>
      <trkpt lat="45.00522" lon="5.441">
        <ele>731.828</ele>
        <time>2012-08-03T13:18:25.346Z</time>
      </trkpt>
      <trkpt lat="45.00496" lon="5.44105">
        <ele>729.804</ele>
        <time>2012-08-03T13:18:28.319Z</time>
      </trkpt>
      <trkpt lat="45.00487" lon="5.4412">
        <ele>726.242</ele>
        <time>2012-08-03T13:18:30.091Z</time>
      </trkpt>
      <trkpt lat="45.00471" lon="5.44136">
        <ele>721.992</ele>
        <time>2012-08-03T13:18:32.931Z</time>
      </trkpt>
      <trkpt lat="45.0046" lon="5.44143">
        <ele>718.627</ele>
        <time>2012-08-03T13:18:35.348Z</time>
      </trkpt>
      <trkpt lat="45.00448" lon="5.44152">
        <ele>716.756</ele>
        <time>2012-08-03T13:18:38.463Z</time>
      </trkpt>
      <trkpt lat="45.00439" lon="5.4415">
        <ele>715.913</ele>
        <time>2012-08-03T13:18:40.572Z</time>
      </trkpt>
      <trkpt lat="45.00427" lon="5.44154">
        <ele>715.004</ele>
        <time>2012-08-03T13:18:42.840Z</time>
      </trkpt>
      <trkpt lat="45.00417" lon="5.44149">
        <ele>713.378</ele>
        <time>2012-08-03T13:18:44.738Z</time>
      </trkpt>
      <trkpt lat="45.00402" lon="5.44149">
        <ele>710.244</ele>
        <time>2012-08-03T13:18:47.249Z</time>
      </trkpt>
      <trkpt lat="45.00389" lon="5.44147">
        <ele>705.632</ele>
        <time>2012-08-03T13:18:49.552Z</time>
      </trkpt>
      <trkpt lat="45.00374" lon="5.44143">
        <ele>701.558</ele>
        <time>2012-08-03T13:18:52.099Z</time>
      </trkpt>
      <trkpt lat="45.00364" lon="5.44137">
        <ele>699.67</ele>
        <time>2012-08-03T13:18:53.876Z</time>
      </trkpt>
      <trkpt lat="45.00353" lon="5.44125">
        <ele>699.411</ele>
        <time>2012-08-03T13:18:56.143Z</time>
      </trkpt>
      <trkpt lat="45.00347" lon="5.44113">
        <ele>699.892</ele>
        <time>2012-08-03T13:18:57.685Z</time>
      </trkpt>
      <trkpt lat="45.00339" lon="5.44099">
        <ele>700.584</ele>
        <time>2012-08-03T13:18:59.824Z</time>
      </trkpt>
      <trkpt lat="45.00331" lon="5.44087">
        <ele>701.244</ele>
        <time>2012-08-03T13:19:01.608Z</time>
      </trkpt>
      <trkpt lat="45.00331" lon="5.44087">
        <ele>701.798</ele>
        <time>2012-08-03T13:19:10.620Z</time>
      </trkpt>
      <trkpt lat="45.00331" lon="5.44087">
        <ele>702.027</ele>
        <time>2012-08-03T13:21:08.490Z</time>
      </trkpt>
    </trkseg>
  </trk>
</gpx>